Wetterdaten: aktuell Samstag, 03.06.2023 16:26
Datum Zeit Temp 2m Temp 5cm Temp -10cm Temp -20cm Temp -50cm Luftf 2m BFeucht-10cm BFeucht-20cm BFeucht-50cm Luftdruck Regen Wind Richtung Richtung Sonnenschein ET UV Solar Taupunkt Windchill Windben Empfang
03.06.2023 16:26 21,2 C 23,9 C 17,8 C 16,1 C 15,0 C 48 % 87 cb 57 cb 34 cb 1016,6 hPa 0,0 l/m 11,3 km/h (2 Bft) SO 135 1 min 0,000 mm 2,9 UV-I 652 W/m 9,7 C 19,6 C 16,1 km/h (3 Bft) 95,65 %
03.06.2023 16:25 21,3 C 23,9 C 17,8 C 16,1 C 15,0 C 48 % 87 cb 57 cb 34 cb 1016,7 hPa 0,0 l/m 9,7 km/h (2 Bft) O-SO 112 1 min 0,000 mm 2,9 UV-I 656 W/m 9,8 C 20,2 C 14,5 km/h (3 Bft) 95,65 %
03.06.2023 16:24 21,3 C 23,9 C 17,8 C 16,1 C 15,0 C 48 % 87 cb 57 cb 34 cb 1016,7 hPa 0,0 l/m 12,9 km/h (3 Bft) O-SO 112 1 min 0,000 mm 3,0 UV-I 657 W/m 9,8 C 19,3 C 17,7 km/h (3 Bft) 95,65 %
03.06.2023 16:23 21,2 C 23,9 C 17,8 C 16,1 C 15,0 C 47 % 87 cb 57 cb 34 cb 1016,7 hPa 0,0 l/m 16,1 km/h (3 Bft) SO 135 1 min 0,000 mm 3,0 UV-I 663 W/m 9,4 C 18,5 C 17,7 km/h (3 Bft) 86,96 %
03.06.2023 16:22 21,3 C 23,9 C 17,8 C 16,1 C 15,0 C 48 % 87 cb 57 cb 34 cb 1016,6 hPa 0,0 l/m 16,1 km/h (3 Bft) SO 135 1 min 0,000 mm 3,0 UV-I 666 W/m 9,8 C 18,6 C 20,9 km/h (4 Bft) 95,65 %
03.06.2023 16:21 21,3 C 23,9 C 17,8 C 16,1 C 15,0 C 47 % 87 cb 57 cb 34 cb 1016,6 hPa 0,0 l/m 17,7 km/h (3 Bft) O-SO 112 1 min 0,000 mm 3,0 UV-I 668 W/m 9,5 C 18,3 C 22,5 km/h (4 Bft) 95,65 %
03.06.2023 16:20 21,3 C 23,9 C 17,8 C 16,1 C 15,0 C 47 % 87 cb 57 cb 34 cb 1016,6 hPa 0,0 l/m 16,1 km/h (3 Bft) O-SO 112 1 min 0,000 mm 3,1 UV-I 668 W/m 9,5 C 18,6 C 22,5 km/h (4 Bft) 91,30 %
03.06.2023 16:19 21,3 C 23,9 C 17,8 C 16,1 C 15,0 C 49 % 87 cb 57 cb 34 cb 1016,6 hPa 0,0 l/m 11,3 km/h (2 Bft) O 90 1 min 0,000 mm 3,1 UV-I 671 W/m 10,1 C 19,7 C 16,1 km/h (3 Bft) 100,00 %
03.06.2023 16:18 21,3 C 23,9 C 17,8 C 16,1 C 15,0 C 47 % 87 cb 57 cb 34 cb 1016,6 hPa 0,0 l/m 12,9 km/h (3 Bft) SO 135 1 min 0,000 mm 3,1 UV-I 670 W/m 9,5 C 19,3 C 16,1 km/h (3 Bft) 91,30 %
03.06.2023 16:17 21,3 C 23,9 C 17,8 C 16,1 C 15,0 C 47 % 87 cb 57 cb 34 cb 1016,5 hPa 0,0 l/m 17,7 km/h (3 Bft) SO 135 1 min 0,000 mm 3,1 UV-I 679 W/m 9,5 C 18,3 C 20,9 km/h (4 Bft) 95,65 %
03.06.2023 16:16 21,3 C 23,9 C 17,8 C 16,1 C 15,0 C 49 % 87 cb 57 cb 34 cb 1016,5 hPa 0,0 l/m 14,5 km/h (3 Bft) SO 135 1 min 0,000 mm 3,1 UV-I 679 W/m 10,1 C 18,9 C 19,3 km/h (3 Bft) 95,65 %
03.06.2023 16:15 21,2 C 23,9 C 17,8 C 16,1 C 15,0 C 49 % 87 cb 57 cb 34 cb 1016,6 hPa 0,0 l/m 16,1 km/h (3 Bft) SO 135 1 min 0,000 mm 3,1 UV-I 682 W/m 10,1 C 18,5 C 19,3 km/h (3 Bft) 91,30 %
03.06.2023 16:14 21,1 C 23,9 C 17,8 C 16,1 C 15,0 C 48 % 87 cb 57 cb 34 cb 1016,6 hPa 0,0 l/m 17,7 km/h (3 Bft) SO 135 1 min 0,000 mm 3,2 UV-I 682 W/m 9,7 C 18,0 C 22,5 km/h (4 Bft) 91,30 %
03.06.2023 16:13 21,1 C 23,9 C 17,8 C 16,1 C 15,0 C 48 % 87 cb 57 cb 34 cb 1016,7 hPa 0,0 l/m 16,1 km/h (3 Bft) SO 135 1 min 0,000 mm 3,2 UV-I 684 W/m 9,7 C 18,4 C 20,9 km/h (4 Bft) 100,00 %
03.06.2023 16:12 21,1 C 23,9 C 17,8 C 16,1 C 15,0 C 48 % 87 cb 57 cb 34 cb 1016,5 hPa 0,0 l/m 16,1 km/h (3 Bft) SO 135 1 min 0,000 mm 3,2 UV-I 686 W/m 9,7 C 18,4 C 24,1 km/h (4 Bft) 86,96 %
03.06.2023 16:11 21,1 C 23,9 C 17,8 C 16,1 C 15,0 C 51 % 87 cb 57 cb 34 cb 1016,6 hPa 0,0 l/m 11,3 km/h (2 Bft) O-SO 112 1 min 0,000 mm 3,2 UV-I 689 W/m 10,6 C 19,5 C 14,5 km/h (3 Bft) 91,30 %
03.06.2023 16:10 21,1 C 23,9 C 17,8 C 16,1 C 15,0 C 48 % 87 cb 57 cb 34 cb 1016,6 hPa 0,0 l/m 12,9 km/h (3 Bft) SO 135 1 min 0,000 mm 3,3 UV-I 693 W/m 9,7 C 19,1 C 17,7 km/h (3 Bft) 95,65 %
03.06.2023 16:09 21,1 C 23,9 C 17,8 C 16,1 C 15,0 C 48 % 87 cb 57 cb 34 cb 1016,6 hPa 0,0 l/m 17,7 km/h (3 Bft) O 90 1 min 0,000 mm 3,3 UV-I 696 W/m 9,7 C 18,0 C 25,7 km/h (4 Bft) 91,30 %
03.06.2023 16:08 21,0 C 23,9 C 17,8 C 16,1 C 15,0 C 49 % 87 cb 57 cb 34 cb 1016,6 hPa 0,0 l/m 14,5 km/h (3 Bft) O-SO 112 1 min 0,000 mm 3,3 UV-I 698 W/m 9,9 C 18,6 C 25,7 km/h (4 Bft) 95,65 %
03.06.2023 16:07 21,1 C 23,9 C 17,8 C 16,1 C 15,0 C 47 % 87 cb 57 cb 34 cb 1016,6 hPa 0,0 l/m 16,1 km/h (3 Bft) O-SO 112 1 min 0,000 mm 3,3 UV-I 700 W/m 9,3 C 18,4 C 19,3 km/h (3 Bft) 91,30 %
03.06.2023 16:06 21,1 C 23,9 C 17,8 C 16,1 C 15,0 C 47 % 87 cb 57 cb 34 cb 1016,5 hPa 0,0 l/m 20,9 km/h (4 Bft) SO 135 1 min 0,000 mm 3,4 UV-I 703 W/m 9,3 C 17,5 C 24,1 km/h (4 Bft) 95,65 %
03.06.2023 16:05 21,1 C 23,9 C 17,8 C 16,1 C 15,0 C 47 % 87 cb 57 cb 34 cb 1016,5 hPa 0,0 l/m 19,3 km/h (3 Bft) O-SO 112 1 min 0,000 mm 3,4 UV-I 703 W/m 9,3 C 17,7 C 24,1 km/h (4 Bft) 91,30 %
03.06.2023 16:04 21,1 C 24,4 C 17,8 C 16,1 C 15,0 C 48 % 87 cb 57 cb 34 cb 1016,6 hPa 0,0 l/m 20,9 km/h (4 Bft) O-SO 112 1 min 0,000 mm 3,4 UV-I 707 W/m 9,7 C 17,5 C 24,1 km/h (4 Bft) 100,00 %
03.06.2023 16:03 21,1 C 24,4 C 17,8 C 16,1 C 15,0 C 48 % 87 cb 57 cb 34 cb 1016,5 hPa 0,0 l/m 17,7 km/h (3 Bft) SO 135 1 min 0,000 mm 3,4 UV-I 708 W/m 9,7 C 18,0 C 24,1 km/h (4 Bft) 91,30 %
03.06.2023 16:02 21,1 C 24,4 C 17,8 C 16,1 C 15,0 C 47 % 87 cb 57 cb 34 cb 1016,6 hPa 0,0 l/m 22,5 km/h (4 Bft) O-SO 112 1 min 0,000 mm 3,4 UV-I 708 W/m 9,3 C 17,2 C 30,6 km/h (5 Bft) 95,65 %
03.06.2023 16:01 21,1 C 25,0 C 17,8 C 16,1 C 15,0 C 49 % 87 cb 57 cb 34 cb 1016,7 hPa 0,0 l/m 16,1 km/h (3 Bft) SO 135 1 min 0,000 mm 3,5 UV-I 707 W/m 10,0 C 18,4 C 24,1 km/h (4 Bft) 100,00 %
03.06.2023 16:00 21,1 C 25,0 C 17,8 C 16,1 C 15,0 C 50 % 87 cb 57 cb 34 cb 1016,6 hPa 0,0 l/m 20,9 km/h (4 Bft) SO 135 1 min 0,559 mm 3,5 UV-I 714 W/m 10,3 C 17,5 C 25,7 km/h (4 Bft) 91,30 %
03.06.2023 15:59 21,0 C 25,0 C 17,8 C 16,1 C 15,0 C 49 % 87 cb 57 cb 34 cb 1016,6 hPa 0,0 l/m 16,1 km/h (3 Bft) SO 135 1 min 0,000 mm 3,5 UV-I 715 W/m 9,9 C 18,2 C 25,7 km/h (4 Bft) 95,65 %
03.06.2023 15:58 20,9 C 25,6 C 17,8 C 16,1 C 15,0 C 51 % 87 cb 57 cb 34 cb 1016,6 hPa 0,0 l/m 14,5 km/h (3 Bft) O-SO 112 1 min 0,000 mm 3,5 UV-I 717 W/m 10,4 C 18,5 C 19,3 km/h (3 Bft) 95,65 %
03.06.2023 15:57 20,8 C 25,6 C 17,8 C 16,1 C 15,0 C 51 % 87 cb 57 cb 34 cb 1016,6 hPa 0,0 l/m 14,5 km/h (3 Bft) O-SO 112 1 min 0,000 mm 3,5 UV-I 719 W/m 10,3 C 18,3 C 20,9 km/h (4 Bft) 95,65 %
03.06.2023 15:56 20,8 C 25,6 C 17,8 C 16,1 C 15,0 C 51 % 87 cb 57 cb 34 cb 1016,7 hPa 0,0 l/m 8,0 km/h (2 Bft) SO 135 1 min 0,000 mm 3,6 UV-I 719 W/m 10,3 C 20,2 C 12,9 km/h (3 Bft) 91,30 %
03.06.2023 15:55 20,7 C 25,0 C 17,8 C 16,1 C 15,0 C 50 % 87 cb 57 cb 34 cb 1016,6 hPa 0,0 l/m 9,7 km/h (2 Bft) O-SO 112 1 min 0,000 mm 3,6 UV-I 722 W/m 9,9 C 19,5 C 14,5 km/h (3 Bft) 95,65 %
03.06.2023 15:54 20,7 C 25,0 C 17,8 C 16,1 C 15,0 C 50 % 87 cb 57 cb 34 cb 1016,7 hPa 0,0 l/m 12,9 km/h (3 Bft) O-SO 112 1 min 0,000 mm 3,6 UV-I 724 W/m 9,9 C 18,6 C 19,3 km/h (3 Bft) 95,65 %
03.06.2023 15:53 20,7 C 25,0 C 17,8 C 16,1 C 15,0 C 51 % 87 cb 57 cb 34 cb 1016,7 hPa 0,0 l/m 12,9 km/h (3 Bft) O-SO 112 1 min 0,000 mm 3,6 UV-I 724 W/m 10,2 C 18,6 C 19,3 km/h (3 Bft) 91,30 %
03.06.2023 15:52 20,7 C 25,0 C 17,8 C 16,1 C 15,0 C 47 % 87 cb 57 cb 34 cb 1016,6 hPa 0,0 l/m 9,7 km/h (2 Bft) O 90 1 min 0,000 mm 3,6 UV-I 728 W/m 9,0 C 19,5 C 14,5 km/h (3 Bft) 91,30 %
03.06.2023 15:51 20,8 C 25,0 C 17,8 C 16,1 C 15,0 C 48 % 87 cb 57 cb 34 cb 1016,7 hPa 0,0 l/m 12,9 km/h (3 Bft) O-NO 67 1 min 0,000 mm 3,6 UV-I 729 W/m 9,4 C 18,7 C 20,9 km/h (4 Bft) 100,00 %
03.06.2023 15:50 20,8 C 25,0 C 17,8 C 16,1 C 15,0 C 47 % 87 cb 57 cb 34 cb 1016,7 hPa 0,0 l/m 12,9 km/h (3 Bft) NO 45 1 min 0,000 mm 3,7 UV-I 731 W/m 9,1 C 18,7 C 24,1 km/h (4 Bft) 91,30 %
03.06.2023 15:49 20,9 C 25,0 C 17,8 C 16,1 C 15,0 C 49 % 87 cb 57 cb 34 cb 1016,7 hPa 0,0 l/m 11,3 km/h (2 Bft) O-SO 112 1 min 0,000 mm 3,7 UV-I 735 W/m 9,8 C 19,3 C 25,7 km/h (4 Bft) 91,30 %
03.06.2023 15:48 20,9 C 24,4 C 17,8 C 16,1 C 15,0 C 50 % 87 cb 57 cb 34 cb 1016,8 hPa 0,0 l/m 12,9 km/h (3 Bft) O-SO 112 1 min 0,000 mm 3,7 UV-I 737 W/m 10,1 C 18,8 C 19,3 km/h (3 Bft) 95,65 %
03.06.2023 15:47 20,9 C 24,4 C 17,8 C 16,1 C 15,0 C 49 % 87 cb 57 cb 34 cb 1016,6 hPa 0,0 l/m 20,9 km/h (4 Bft) SO 135 1 min 0,000 mm 3,7 UV-I 738 W/m 9,8 C 17,2 C 27,4 km/h (4 Bft) 91,30 %
03.06.2023 15:46 20,9 C 24,4 C 17,8 C 16,1 C 15,0 C 49 % 87 cb 57 cb 34 cb 1016,7 hPa 0,0 l/m 19,3 km/h (3 Bft) SO 135 1 min 0,000 mm 3,8 UV-I 740 W/m 9,8 C 17,5 C 32,2 km/h (5 Bft) 95,65 %
03.06.2023 15:45 20,9 C 24,4 C 17,8 C 16,1 C 15,0 C 48 % 87 cb 57 cb 34 cb 1016,7 hPa 0,0 l/m 16,1 km/h (3 Bft) O-SO 112 1 min 0,000 mm 3,8 UV-I 744 W/m 9,5 C 18,1 C 19,3 km/h (3 Bft) 91,30 %
03.06.2023 15:44 21,1 C 24,4 C 17,8 C 16,1 C 15,0 C 49 % 87 cb 57 cb 34 cb 1016,7 hPa 0,0 l/m 14,5 km/h (3 Bft) O 90 1 min 0,000 mm 3,8 UV-I 745 W/m 10,0 C 18,7 C 20,9 km/h (4 Bft) 95,65 %
03.06.2023 15:43 21,1 C 24,4 C 17,8 C 16,1 C 15,0 C 48 % 87 cb 57 cb 34 cb 1016,7 hPa 0,0 l/m 17,7 km/h (3 Bft) O-SO 112 1 min 0,000 mm 3,8 UV-I 745 W/m 9,7 C 18,0 C 24,1 km/h (4 Bft) 91,30 %
03.06.2023 15:42 21,1 C 24,4 C 17,8 C 16,1 C 15,0 C 49 % 87 cb 57 cb 34 cb 1016,8 hPa 0,0 l/m 20,9 km/h (4 Bft) SO 135 1 min 0,000 mm 3,9 UV-I 749 W/m 10,0 C 17,5 C 24,1 km/h (4 Bft) 100,00 %
03.06.2023 15:41 21,1 C 24,4 C 17,8 C 16,1 C 15,0 C 49 % 87 cb 57 cb 34 cb 1016,7 hPa 0,0 l/m 12,9 km/h (3 Bft) SO 135 1 min 0,000 mm 3,9 UV-I 752 W/m 10,0 C 19,1 C 20,9 km/h (4 Bft) 91,30 %
03.06.2023 15:40 21,2 C 24,4 C 17,8 C 16,1 C 15,0 C 49 % 87 cb 57 cb 34 cb 1016,8 hPa 0,0 l/m 12,9 km/h (3 Bft) O 90 1 min 0,000 mm 3,9 UV-I 752 W/m 10,1 C 19,2 C 17,7 km/h (3 Bft) 95,65 %
03.06.2023 15:39 21,2 C 24,4 C 17,8 C 16,1 C 15,0 C 51 % 87 cb 57 cb 34 cb 1016,9 hPa 0,0 l/m 14,5 km/h (3 Bft) O-SO 112 1 min 0,000 mm 3,9 UV-I 754 W/m 10,7 C 18,8 C 22,5 km/h (4 Bft) 95,65 %
03.06.2023 15:38 21,1 C 24,4 C 17,8 C 16,1 C 15,0 C 49 % 87 cb 57 cb 34 cb 1016,8 hPa 0,0 l/m 16,1 km/h (3 Bft) SO 135 1 min 0,000 mm 3,9 UV-I 758 W/m 10,0 C 18,4 C 19,3 km/h (3 Bft) 95,65 %
03.06.2023 15:37 21,1 C 24,4 C 17,8 C 16,1 C 15,0 C 49 % 87 cb 57 cb 33 cb 1016,9 hPa 0,0 l/m 16,1 km/h (3 Bft) SO 135 1 min 0,000 mm 4,0 UV-I 754 W/m 10,0 C 18,4 C 19,3 km/h (3 Bft) 91,30 %
03.06.2023 15:36 21,1 C 24,4 C 17,8 C 16,1 C 15,0 C 49 % 87 cb 57 cb 33 cb 1016,9 hPa 0,0 l/m 9,7 km/h (2 Bft) O-SO 112 1 min 0,000 mm 4,0 UV-I 758 W/m 10,0 C 19,9 C 17,7 km/h (3 Bft) 91,30 %
03.06.2023 15:35 21,1 C 24,4 C 17,8 C 16,1 C 15,0 C 48 % 87 cb 57 cb 33 cb 1016,8 hPa 0,0 l/m 14,5 km/h (3 Bft) O-SO 112 1 min 0,000 mm 4,0 UV-I 759 W/m 9,7 C 18,7 C 20,9 km/h (4 Bft) 91,30 %
03.06.2023 15:34 21,1 C 24,4 C 17,8 C 16,1 C 15,0 C 48 % 87 cb 57 cb 33 cb 1016,8 hPa 0,0 l/m 17,7 km/h (3 Bft) SO 135 1 min 0,000 mm 4,0 UV-I 763 W/m 9,7 C 18,0 C 24,1 km/h (4 Bft) 91,30 %
03.06.2023 15:33 21,1 C 24,4 C 17,8 C 16,1 C 15,0 C 48 % 87 cb 57 cb 33 cb 1016,9 hPa 0,0 l/m 16,1 km/h (3 Bft) SO 135 1 min 0,000 mm 4,0 UV-I 763 W/m 9,7 C 18,4 C 20,9 km/h (4 Bft) 100,00 %
03.06.2023 15:32 21,1 C 24,4 C 17,8 C 16,1 C 15,0 C 50 % 87 cb 57 cb 33 cb 1017,0 hPa 0,0 l/m 16,1 km/h (3 Bft) O-SO 112 1 min 0,000 mm 4,0 UV-I 765 W/m 10,3 C 18,4 C 20,9 km/h (4 Bft) 91,30 %
03.06.2023 15:31 20,9 C 24,4 C 17,8 C 16,1 C 15,0 C 51 % 87 cb 57 cb 33 cb 1017,0 hPa 0,0 l/m 14,5 km/h (3 Bft) SO 135 1 min 0,000 mm 4,1 UV-I 766 W/m 10,4 C 18,5 C 19,3 km/h (3 Bft) 91,30 %
03.06.2023 15:30 20,9 C 23,9 C 17,8 C 16,1 C 15,0 C 51 % 87 cb 57 cb 33 cb 1016,9 hPa 0,0 l/m 12,9 km/h (3 Bft) SO 135 1 min 0,000 mm 4,1 UV-I 770 W/m 10,4 C 18,8 C 20,9 km/h (4 Bft) 95,65 %
03.06.2023 15:29 20,8 C 23,9 C 17,8 C 16,1 C 15,0 C 48 % 87 cb 57 cb 33 cb 1017,0 hPa 0,0 l/m 17,7 km/h (3 Bft) SO 135 1 min 0,000 mm 4,1 UV-I 772 W/m 9,4 C 17,7 C 24,1 km/h (4 Bft) 95,65 %
03.06.2023 15:28 20,8 C 23,9 C 17,8 C 16,1 C 15,0 C 50 % 87 cb 57 cb 33 cb 1016,9 hPa 0,0 l/m 19,3 km/h (3 Bft) SO 135 1 min 0,000 mm 4,1 UV-I 773 W/m 10,0 C 17,4 C 25,7 km/h (4 Bft) 91,30 %
03.06.2023 15:27 20,7 C 23,9 C 17,8 C 16,1 C 15,0 C 47 % 87 cb 57 cb 33 cb 1017,0 hPa 0,0 l/m 24,1 km/h (4 Bft) SO 135 1 min 0,000 mm 4,1 UV-I 775 W/m 9,0 C 16,5 C 32,2 km/h (5 Bft) 95,65 %
03.06.2023 15:26 20,7 C 23,9 C 17,8 C 16,1 C 15,0 C 49 % 87 cb 57 cb 33 cb 1017,0 hPa 0,0 l/m 20,9 km/h (4 Bft) SO 135 1 min 0,000 mm 4,2 UV-I 775 W/m 9,6 C 17,0 C 29,0 km/h (5 Bft) 86,96 %
03.06.2023 15:25 20,6 C 23,9 C 17,8 C 16,1 C 15,0 C 51 % 87 cb 57 cb 33 cb 1017,0 hPa 0,0 l/m 22,5 km/h (4 Bft) O-SO 112 1 min 0,000 mm 4,2 UV-I 777 W/m 10,1 C 16,6 C 27,4 km/h (4 Bft) 91,30 %
03.06.2023 15:24 20,6 C 24,4 C 17,8 C 16,1 C 15,0 C 49 % 87 cb 57 cb 33 cb 1017,0 hPa 0,0 l/m 19,3 km/h (3 Bft) SO 135 1 min 0,000 mm 4,2 UV-I 780 W/m 9,5 C 17,1 C 24,1 km/h (4 Bft) 91,30 %
03.06.2023 15:23 20,6 C 24,4 C 17,8 C 16,1 C 15,0 C 48 % 87 cb 57 cb 33 cb 1017,2 hPa 0,0 l/m 19,3 km/h (3 Bft) SO 135 1 min 0,000 mm 4,2 UV-I 784 W/m 9,2 C 17,1 C 22,5 km/h (4 Bft) 91,30 %
03.06.2023 15:22 20,6 C 24,4 C 17,8 C 16,1 C 15,0 C 49 % 87 cb 57 cb 33 cb 1017,0 hPa 0,0 l/m 19,3 km/h (3 Bft) SO 135 1 min 0,000 mm 4,2 UV-I 784 W/m 9,5 C 17,1 C 24,1 km/h (4 Bft) 82,61 %
03.06.2023 15:21 20,6 C 24,4 C 17,8 C 16,1 C 15,0 C 50 % 87 cb 57 cb 33 cb 1017,0 hPa 0,0 l/m 20,9 km/h (4 Bft) SO 135 1 min 0,000 mm 4,3 UV-I 789 W/m 9,8 C 16,8 C 25,7 km/h (4 Bft) 91,30 %
03.06.2023 15:20 20,3 C 24,4 C 17,8 C 16,1 C 15,0 C 50 % 87 cb 57 cb 33 cb 1017,1 hPa 0,0 l/m 17,7 km/h (3 Bft) SO 135 1 min 0,000 mm 4,3 UV-I 789 W/m 9,5 C 17,0 C 20,9 km/h (4 Bft) 86,96 %
03.06.2023 15:19 20,3 C 24,4 C 17,8 C 16,1 C 15,0 C 52 % 87 cb 57 cb 33 cb 1017,1 hPa 0,0 l/m 17,7 km/h (3 Bft) SO 135 1 min 0,000 mm 4,3 UV-I 789 W/m 10,1 C 17,0 C 27,4 km/h (4 Bft) 91,30 %
03.06.2023 15:18 20,2 C 25,0 C 17,8 C 16,1 C 15,0 C 51 % 87 cb 57 cb 33 cb 1017,1 hPa 0,0 l/m 19,3 km/h (3 Bft) O-SO 112 1 min 0,000 mm 4,3 UV-I 793 W/m 9,7 C 16,6 C 24,1 km/h (4 Bft) 95,65 %
03.06.2023 15:17 20,1 C 25,0 C 17,8 C 16,1 C 15,0 C 51 % 87 cb 57 cb 33 cb 1017,1 hPa 0,0 l/m 12,9 km/h (3 Bft) SO 135 1 min 0,000 mm 4,3 UV-I 793 W/m 9,6 C 17,9 C 17,7 km/h (3 Bft) 86,96 %
03.06.2023 15:16 20,1 C 24,4 C 17,8 C 16,1 C 15,0 C 50 % 87 cb 57 cb 33 cb 1017,1 hPa 0,0 l/m 9,7 km/h (2 Bft) O 90 1 min 0,000 mm 4,3 UV-I 793 W/m 9,3 C 18,8 C 14,5 km/h (3 Bft) 91,30 %
03.06.2023 15:15 20,2 C 24,4 C 17,8 C 16,1 C 15,0 C 47 % 87 cb 57 cb 33 cb 1017,2 hPa 0,0 l/m 8,0 km/h (2 Bft) O-NO 67 1 min 0,000 mm 4,4 UV-I 795 W/m 8,5 C 19,6 C 12,9 km/h (3 Bft) 91,30 %
03.06.2023 15:14 20,2 C 24,4 C 17,8 C 16,1 C 15,0 C 47 % 87 cb 57 cb 33 cb 1017,1 hPa 0,0 l/m 16,1 km/h (3 Bft) O 90 1 min 0,000 mm 4,4 UV-I 796 W/m 8,5 C 17,2 C 19,3 km/h (3 Bft) 78,26 %
03.06.2023 15:13 20,3 C 24,4 C 17,8 C 16,1 C 15,0 C 49 % 87 cb 57 cb 33 cb 1017,2 hPa 0,0 l/m 17,7 km/h (3 Bft) O 90 1 min 0,000 mm 4,4 UV-I 800 W/m 9,2 C 17,0 C 22,5 km/h (4 Bft) 91,30 %
03.06.2023 15:12 20,3 C 24,4 C 17,8 C 16,1 C 15,0 C 50 % 87 cb 57 cb 33 cb 1017,2 hPa 0,0 l/m 17,7 km/h (3 Bft) O-SO 112 1 min 0,000 mm 4,4 UV-I 798 W/m 9,5 C 17,0 C 22,5 km/h (4 Bft) 91,30 %
03.06.2023 15:11 20,3 C 24,4 C 17,2 C 16,1 C 15,0 C 50 % 87 cb 57 cb 33 cb 1017,2 hPa 0,0 l/m 17,7 km/h (3 Bft) O-SO 112 1 min 0,000 mm 4,4 UV-I 800 W/m 9,5 C 17,0 C 24,1 km/h (4 Bft) 91,30 %
03.06.2023 15:10 20,2 C 24,4 C 17,2 C 16,1 C 15,0 C 52 % 87 cb 57 cb 33 cb 1017,2 hPa 0,0 l/m 14,5 km/h (3 Bft) SO 135 1 min 0,000 mm 4,5 UV-I 802 W/m 10,0 C 17,6 C 22,5 km/h (4 Bft) 82,61 %
03.06.2023 15:09 20,1 C 24,4 C 17,2 C 16,1 C 15,0 C 51 % 87 cb 57 cb 33 cb 1017,2 hPa 0,0 l/m 11,3 km/h (2 Bft) SO 135 1 min 0,000 mm 4,5 UV-I 802 W/m 9,6 C 18,3 C 24,1 km/h (4 Bft) 95,65 %
03.06.2023 15:08 20,1 C 24,4 C 17,2 C 16,1 C 15,0 C 50 % 87 cb 57 cb 33 cb 1017,3 hPa 0,0 l/m 6,4 km/h (2 Bft) O 90 1 min 0,000 mm 4,5 UV-I 803 W/m 9,3 C 20,1 C 11,3 km/h (2 Bft) 86,96 %
03.06.2023 15:07 20,1 C 23,9 C 17,2 C 16,1 C 15,0 C 49 % 87 cb 57 cb 33 cb 1017,3 hPa 0,0 l/m 12,9 km/h (3 Bft) O-NO 67 1 min 0,000 mm 4,5 UV-I 807 W/m 9,0 C 17,9 C 19,3 km/h (3 Bft) 91,30 %
03.06.2023 15:06 20,1 C 23,9 C 17,2 C 16,1 C 15,0 C 48 % 87 cb 57 cb 33 cb 1017,3 hPa 0,0 l/m 12,9 km/h (3 Bft) O-SO 112 1 min 0,000 mm 4,5 UV-I 807 W/m 8,7 C 17,9 C 19,3 km/h (3 Bft) 91,30 %
03.06.2023 15:05 20,2 C 23,9 C 17,2 C 16,1 C 15,0 C 48 % 87 cb 57 cb 33 cb 1017,3 hPa 0,0 l/m 19,3 km/h (3 Bft) O-SO 112 1 min 0,000 mm 4,5 UV-I 810 W/m 8,8 C 16,6 C 24,1 km/h (4 Bft) 95,65 %
03.06.2023 15:04 20,2 C 24,4 C 17,2 C 16,1 C 15,0 C 48 % 87 cb 57 cb 33 cb 1017,3 hPa 0,0 l/m 20,9 km/h (4 Bft) O-SO 112 1 min 0,000 mm 4,6 UV-I 810 W/m 8,8 C 16,3 C 29,0 km/h (5 Bft) 91,30 %
03.06.2023 15:03 20,2 C 24,4 C 17,2 C 16,1 C 15,0 C 51 % 87 cb 57 cb 33 cb 1017,3 hPa 0,0 l/m 17,7 km/h (3 Bft) O-SO 112 1 min 0,000 mm 4,6 UV-I 810 W/m 9,7 C 16,9 C 22,5 km/h (4 Bft) 86,96 %
03.06.2023 15:02 20,1 C 24,4 C 17,2 C 16,1 C 15,0 C 51 % 87 cb 57 cb 33 cb 1017,3 hPa 0,0 l/m 12,9 km/h (3 Bft) SO 135 1 min 0,000 mm 4,6 UV-I 812 W/m 9,6 C 17,9 C 17,7 km/h (3 Bft) 100,00 %
03.06.2023 15:01 20,1 C 24,4 C 17,2 C 16,1 C 15,0 C 50 % 87 cb 57 cb 33 cb 1017,2 hPa 0,0 l/m 17,7 km/h (3 Bft) SO 135 1 min 0,000 mm 4,6 UV-I 817 W/m 9,3 C 16,8 C 22,5 km/h (4 Bft) 82,61 %
03.06.2023 15:00 19,9 C 24,4 C 17,2 C 16,1 C 15,0 C 48 % 87 cb 57 cb 33 cb 1017,4 hPa 0,0 l/m 9,7 km/h (2 Bft) O 90 1 min 0,584 mm 4,7 UV-I 817 W/m 8,6 C 18,6 C 20,9 km/h (4 Bft) 91,30 %
03.06.2023 14:59 20,0 C 24,4 C 17,2 C 16,1 C 15,0 C 47 % 87 cb 57 cb 33 cb 1017,4 hPa 0,0 l/m 14,5 km/h (3 Bft) O-NO 67 1 min 0,000 mm 4,7 UV-I 819 W/m 8,3 C 17,4 C 22,5 km/h (4 Bft) 86,96 %
03.06.2023 14:58 20,1 C 24,4 C 17,2 C 16,1 C 15,0 C 49 % 87 cb 57 cb 33 cb 1017,4 hPa 0,0 l/m 14,5 km/h (3 Bft) O-SO 112 1 min 0,000 mm 4,7 UV-I 821 W/m 9,0 C 17,5 C 22,5 km/h (4 Bft) 95,65 %
03.06.2023 14:57 20,1 C 24,4 C 17,2 C 16,1 C 15,0 C 47 % 87 cb 57 cb 33 cb 1017,3 hPa 0,0 l/m 12,9 km/h (3 Bft) O-SO 112 1 min 0,000 mm 4,7 UV-I 823 W/m 8,4 C 17,9 C 22,5 km/h (4 Bft) 86,96 %
03.06.2023 14:56 20,1 C 24,4 C 17,2 C 16,1 C 15,0 C 49 % 87 cb 57 cb 33 cb 1017,3 hPa 0,0 l/m 11,3 km/h (2 Bft) O 90 1 min 0,000 mm 4,7 UV-I 823 W/m 9,0 C 18,3 C 16,1 km/h (3 Bft) 95,65 %
03.06.2023 14:55 20,1 C 24,4 C 17,2 C 16,1 C 15,0 C 48 % 87 cb 57 cb 33 cb 1017,4 hPa 0,0 l/m 9,7 km/h (2 Bft) O-NO 67 1 min 0,000 mm 4,8 UV-I 826 W/m 8,7 C 18,8 C 14,5 km/h (3 Bft) 86,96 %
03.06.2023 14:54 20,2 C 24,4 C 17,2 C 16,1 C 15,0 C 49 % 87 cb 57 cb 33 cb 1017,4 hPa 0,0 l/m 11,3 km/h (2 Bft) O-SO 112 1 min 0,000 mm 4,8 UV-I 826 W/m 9,1 C 18,5 C 14,5 km/h (3 Bft) 91,30 %
03.06.2023 14:53 20,3 C 24,4 C 17,2 C 16,1 C 15,0 C 49 % 87 cb 57 cb 33 cb 1017,4 hPa 0,0 l/m 12,9 km/h (3 Bft) O-SO 112 1 min 0,000 mm 4,8 UV-I 826 W/m 9,2 C 18,1 C 19,3 km/h (3 Bft) 95,65 %
03.06.2023 14:52 20,4 C 24,4 C 17,2 C 16,1 C 15,0 C 47 % 87 cb 57 cb 33 cb 1017,5 hPa 0,0 l/m 16,1 km/h (3 Bft) O-SO 112 1 min 0,000 mm 4,8 UV-I 824 W/m 8,7 C 17,5 C 20,9 km/h (4 Bft) 86,96 %
03.06.2023 14:51 20,5 C 24,4 C 17,2 C 16,1 C 15,0 C 48 % 87 cb 57 cb 33 cb 1017,5 hPa 0,0 l/m 17,7 km/h (3 Bft) O-SO 112 1 min 0,000 mm 4,8 UV-I 828 W/m 9,1 C 17,3 C 25,7 km/h (4 Bft) 91,30 %
03.06.2023 14:50 20,6 C 24,4 C 17,2 C 16,1 C 15,0 C 49 % 87 cb 57 cb 33 cb 1017,4 hPa 0,0 l/m 16,1 km/h (3 Bft) O-SO 112 1 min 0,000 mm 4,9 UV-I 830 W/m 9,5 C 17,7 C 22,5 km/h (4 Bft) 91,30 %
03.06.2023 14:49 20,6 C 24,4 C 17,2 C 16,1 C 15,0 C 51 % 87 cb 57 cb 33 cb 1017,4 hPa 0,0 l/m 8,0 km/h (2 Bft) O-NO 67 1 min 0,000 mm 4,9 UV-I 831 W/m 10,1 C 20,0 C 14,5 km/h (3 Bft) 95,65 %
03.06.2023 14:48 20,4 C 24,4 C 17,2 C 16,1 C 15,0 C 49 % 87 cb 57 cb 33 cb 1017,5 hPa 0,0 l/m 14,5 km/h (3 Bft) SO 135 1 min 0,000 mm 4,9 UV-I 833 W/m 9,3 C 17,9 C 17,7 km/h (3 Bft) 82,61 %
03.06.2023 14:47 20,4 C 24,4 C 17,2 C 16,1 C 15,0 C 51 % 87 cb 57 cb 33 cb 1017,6 hPa 0,0 l/m 16,1 km/h (3 Bft) O-SO 112 1 min 0,000 mm 4,9 UV-I 837 W/m 9,9 C 17,5 C 22,5 km/h (4 Bft) 100,00 %
03.06.2023 14:46 20,4 C 24,4 C 17,2 C 16,1 C 15,0 C 50 % 87 cb 57 cb 33 cb 1017,6 hPa 0,0 l/m 17,7 km/h (3 Bft) O-SO 112 1 min 0,000 mm 4,9 UV-I 837 W/m 9,6 C 17,2 C 20,9 km/h (4 Bft) 82,61 %
03.06.2023 14:45 20,4 C 24,4 C 17,2 C 16,1 C 15,0 C 50 % 87 cb 57 cb 33 cb 1017,5 hPa 0,0 l/m 12,9 km/h (3 Bft) O-SO 112 1 min 0,000 mm 4,9 UV-I 835 W/m 9,6 C 18,2 C 17,7 km/h (3 Bft) 86,96 %
03.06.2023 14:44 20,3 C 24,4 C 17,2 C 16,1 C 15,0 C 50 % 87 cb 57 cb 33 cb 1017,6 hPa 0,0 l/m 12,9 km/h (3 Bft) O-SO 112 1 min 0,000 mm 4,9 UV-I 835 W/m 9,5 C 18,1 C 17,7 km/h (3 Bft) 91,30 %
03.06.2023 14:43 20,3 C 24,4 C 17,2 C 16,1 C 15,0 C 48 % 87 cb 57 cb 33 cb 1017,6 hPa 0,0 l/m 17,7 km/h (3 Bft) SO 135 1 min 0,000 mm 4,9 UV-I 842 W/m 8,9 C 17,0 C 27,4 km/h (4 Bft) 95,65 %
03.06.2023 14:42 20,3 C 24,4 C 17,2 C 16,1 C 15,0 C 49 % 87 cb 57 cb 33 cb 1017,6 hPa 0,0 l/m 11,3 km/h (2 Bft) SO 135 1 min 0,000 mm 4,9 UV-I 842 W/m 9,2 C 18,6 C 14,5 km/h (3 Bft) 86,96 %
03.06.2023 14:41 20,4 C 24,4 C 17,2 C 16,1 C 15,0 C 47 % 87 cb 57 cb 33 cb 1017,6 hPa 0,0 l/m 17,7 km/h (3 Bft) O-SO 112 1 min 0,000 mm 5,0 UV-I 846 W/m 8,7 C 17,2 C 24,1 km/h (4 Bft) 95,65 %
03.06.2023 14:40 20,6 C 24,4 C 17,2 C 16,1 C 15,0 C 49 % 87 cb 57 cb 33 cb 1017,6 hPa 0,0 l/m 19,3 km/h (3 Bft) O-SO 112 1 min 0,000 mm 5,0 UV-I 844 W/m 9,5 C 17,1 C 27,4 km/h (4 Bft) 86,96 %
03.06.2023 14:39 20,6 C 25,0 C 17,2 C 16,1 C 15,0 C 49 % 87 cb 57 cb 33 cb 1017,6 hPa 0,0 l/m 17,7 km/h (3 Bft) SO 135 1 min 0,000 mm 5,0 UV-I 844 W/m 9,5 C 17,4 C 22,5 km/h (4 Bft) 86,96 %
03.06.2023 14:38 20,5 C 25,0 C 17,2 C 16,1 C 15,0 C 49 % 87 cb 57 cb 33 cb 1017,5 hPa 0,0 l/m 17,7 km/h (3 Bft) SO 135 1 min 0,000 mm 5,0 UV-I 844 W/m 9,4 C 17,3 C 20,9 km/h (4 Bft) 95,65 %
03.06.2023 14:37 20,4 C 24,4 C 17,2 C 16,1 C 15,0 C 50 % 87 cb 57 cb 33 cb 1017,6 hPa 0,0 l/m 19,3 km/h (3 Bft) SO 135 1 min 0,000 mm 5,0 UV-I 849 W/m 9,6 C 16,8 C 25,7 km/h (4 Bft) 86,96 %
03.06.2023 14:36 20,3 C 25,0 C 17,2 C 16,1 C 15,0 C 50 % 87 cb 57 cb 33 cb 1017,5 hPa 0,0 l/m 17,7 km/h (3 Bft) SO 135 1 min 0,000 mm 5,1 UV-I 849 W/m 9,5 C 17,0 C 22,5 km/h (4 Bft) 95,65 %
03.06.2023 14:35 20,3 C 25,0 C 17,2 C 16,1 C 15,0 C 50 % 87 cb 57 cb 33 cb 1017,5 hPa 0,0 l/m 14,5 km/h (3 Bft) O-SO 112 1 min 0,000 mm 2,5 UV-I 854 W/m 9,5 C 17,7 C 22,5 km/h (4 Bft) 91,30 %
03.06.2023 14:34 20,3 C 25,0 C 17,2 C 16,1 C 15,0 C 50 % 87 cb 57 cb 33 cb 1017,7 hPa 0,0 l/m 9,7 km/h (2 Bft) O-SO 112 1 min 0,000 mm 5,1 UV-I 854 W/m 9,5 C 19,1 C 14,5 km/h (3 Bft) 91,30 %
03.06.2023 14:33 20,3 C 24,4 C 17,2 C 16,1 C 15,0 C 51 % 87 cb 57 cb 33 cb 1017,5 hPa 0,0 l/m 9,7 km/h (2 Bft) O 90 1 min 0,000 mm 5,1 UV-I 854 W/m 9,8 C 19,1 C 12,9 km/h (3 Bft) 86,96 %
03.06.2023 14:32 20,3 C 24,4 C 17,2 C 16,1 C 15,0 C 49 % 87 cb 57 cb 33 cb 1017,6 hPa 0,0 l/m 14,5 km/h (3 Bft) O 90 1 min 0,000 mm 5,1 UV-I 853 W/m 9,2 C 17,7 C 20,9 km/h (4 Bft) 100,00 %
03.06.2023 14:31 20,3 C 24,4 C 17,2 C 16,1 C 15,0 C 50 % 87 cb 57 cb 33 cb 1017,5 hPa 0,0 l/m 14,5 km/h (3 Bft) O-SO 112 1 min 0,000 mm 5,1 UV-I 856 W/m 9,5 C 17,7 C 20,9 km/h (4 Bft) 86,96 %
03.06.2023 14:30 20,3 C 24,4 C 17,2 C 16,1 C 15,0 C 51 % 87 cb 57 cb 33 cb 1017,5 hPa 0,0 l/m 16,1 km/h (3 Bft) SO 135 1 min 0,000 mm 5,1 UV-I 856 W/m 9,8 C 17,4 C 20,9 km/h (4 Bft) 91,30 %
03.06.2023 14:29 20,3 C 24,4 C 17,2 C 16,1 C 15,0 C 50 % 87 cb 57 cb 33 cb 1017,6 hPa 0,0 l/m 12,9 km/h (3 Bft) O-SO 112 1 min 0,000 mm 5,2 UV-I 858 W/m 9,5 C 18,1 C 19,3 km/h (3 Bft) 91,30 %
03.06.2023 14:28 20,3 C 24,4 C 17,2 C 16,1 C 15,0 C 50 % 87 cb 57 cb 33 cb 1017,5 hPa 0,0 l/m 17,7 km/h (3 Bft) SO 135 1 min 0,000 mm 5,2 UV-I 860 W/m 9,5 C 17,0 C 22,5 km/h (4 Bft) 91,30 %
03.06.2023 14:27 20,3 C 25,0 C 17,2 C 16,1 C 15,0 C 49 % 87 cb 57 cb 33 cb 1017,6 hPa 0,0 l/m 20,9 km/h (4 Bft) SO 135 1 min 0,000 mm 5,2 UV-I 860 W/m 9,2 C 16,4 C 24,1 km/h (4 Bft) 86,96 %
03.06.2023 14:26 20,3 C 25,0 C 17,2 C 16,1 C 15,0 C 51 % 87 cb 57 cb 33 cb 1017,6 hPa 0,0 l/m 11,3 km/h (2 Bft) O-SO 112 1 min 0,000 mm 5,2 UV-I 863 W/m 9,8 C 18,6 C 19,3 km/h (3 Bft) 91,30 %
03.06.2023 14:25 20,2 C 25,0 C 17,2 C 16,1 C 15,0 C 51 % 87 cb 57 cb 33 cb 1017,7 hPa 0,0 l/m 12,9 km/h (3 Bft) SO 135 1 min 0,000 mm 5,2 UV-I 861 W/m 9,7 C 18,0 C 16,1 km/h (3 Bft) 91,30 %
03.06.2023 14:24 20,2 C 25,0 C 17,2 C 16,1 C 15,0 C 50 % 87 cb 57 cb 33 cb 1017,7 hPa 0,0 l/m 9,7 km/h (2 Bft) O-SO 112 1 min 0,000 mm 5,3 UV-I 865 W/m 9,4 C 19,0 C 14,5 km/h (3 Bft) 82,61 %
03.06.2023 14:23 20,2 C 24,4 C 17,2 C 16,1 C 15,0 C 49 % 87 cb 57 cb 33 cb 1017,6 hPa 0,0 l/m 12,9 km/h (3 Bft) O 90 1 min 0,000 mm 5,2 UV-I 863 W/m 9,1 C 18,0 C 19,3 km/h (3 Bft) 100,00 %
03.06.2023 14:22 20,2 C 25,0 C 17,2 C 16,1 C 15,0 C 51 % 87 cb 57 cb 33 cb 1017,6 hPa 0,0 l/m 19,3 km/h (3 Bft) O-SO 112 1 min 0,000 mm 5,3 UV-I 868 W/m 9,7 C 16,6 C 25,7 km/h (4 Bft) 86,96 %
03.06.2023 14:21 20,1 C 25,0 C 17,2 C 16,1 C 15,0 C 52 % 87 cb 57 cb 33 cb 1017,6 hPa 0,0 l/m 22,5 km/h (4 Bft) SO 135 1 min 0,000 mm 5,3 UV-I 867 W/m 9,9 C 15,9 C 27,4 km/h (4 Bft) 95,65 %
03.06.2023 14:20 19,9 C 25,0 C 17,2 C 16,1 C 15,0 C 52 % 87 cb 57 cb 33 cb 1017,6 hPa 0,0 l/m 20,9 km/h (4 Bft) O-SO 112 1 min 0,000 mm 5,3 UV-I 868 W/m 9,7 C 15,9 C 27,4 km/h (4 Bft) 91,30 %
03.06.2023 14:19 19,8 C 25,0 C 17,2 C 16,1 C 15,0 C 50 % 87 cb 57 cb 33 cb 1017,8 hPa 0,0 l/m 17,7 km/h (3 Bft) SO 135 1 min 0,000 mm 5,3 UV-I 868 W/m 9,1 C 16,4 C 25,7 km/h (4 Bft) 91,30 %
03.06.2023 14:18 19,7 C 25,0 C 17,2 C 16,1 C 15,0 C 51 % 87 cb 57 cb 33 cb 1017,7 hPa 0,0 l/m 11,3 km/h (2 Bft) SO 135 1 min 0,000 mm 5,3 UV-I 872 W/m 9,3 C 17,9 C 16,1 km/h (3 Bft) 86,96 %
03.06.2023 14:17 19,6 C 24,4 C 17,2 C 16,1 C 15,0 C 51 % 87 cb 57 cb 33 cb 1017,7 hPa 0,0 l/m 14,5 km/h (3 Bft) SO 135 1 min 0,000 mm 5,3 UV-I 870 W/m 9,2 C 16,9 C 20,9 km/h (4 Bft) 91,30 %
03.06.2023 14:16 19,6 C 24,4 C 17,2 C 16,1 C 15,0 C 49 % 87 cb 57 cb 33 cb 1017,7 hPa 0,0 l/m 14,5 km/h (3 Bft) O-NO 67 1 min 0,000 mm 5,3 UV-I 870 W/m 8,6 C 16,9 C 17,7 km/h (3 Bft) 95,65 %
03.06.2023 14:15 19,6 C 25,0 C 17,2 C 16,1 C 15,0 C 49 % 87 cb 57 cb 33 cb 1017,7 hPa 0,0 l/m 16,1 km/h (3 Bft) O-NO 67 1 min 0,000 mm 5,4 UV-I 872 W/m 8,6 C 16,5 C 27,4 km/h (4 Bft) 86,96 %
03.06.2023 14:14 19,7 C 25,0 C 17,2 C 16,1 C 15,0 C 50 % 87 cb 57 cb 33 cb 1017,7 hPa 0,0 l/m 16,1 km/h (3 Bft) O-NO 67 1 min 0,000 mm 5,4 UV-I 875 W/m 9,0 C 16,6 C 29,0 km/h (5 Bft) 91,30 %
03.06.2023 14:13 19,7 C 25,6 C 17,2 C 16,1 C 15,0 C 51 % 87 cb 57 cb 33 cb 1017,8 hPa 0,0 l/m 16,1 km/h (3 Bft) O-NO 67 1 min 0,000 mm 5,4 UV-I 875 W/m 9,3 C 16,6 C 20,9 km/h (4 Bft) 95,65 %
03.06.2023 14:12 19,6 C 25,6 C 17,2 C 16,1 C 15,0 C 53 % 87 cb 57 cb 33 cb 1017,8 hPa 0,0 l/m 12,9 km/h (3 Bft) O-SO 112 1 min 0,000 mm 5,4 UV-I 874 W/m 9,8 C 17,3 C 20,9 km/h (4 Bft) 91,30 %
03.06.2023 14:11 19,6 C 25,6 C 17,2 C 16,1 C 15,0 C 54 % 87 cb 57 cb 33 cb 1017,8 hPa 0,0 l/m 12,9 km/h (3 Bft) SO 135 1 min 0,000 mm 5,4 UV-I 877 W/m 10,0 C 17,3 C 20,9 km/h (4 Bft) 91,30 %
03.06.2023 14:10 19,4 C 25,6 C 17,2 C 16,1 C 15,0 C 51 % 87 cb 57 cb 33 cb 1017,8 hPa 0,0 l/m 8,0 km/h (2 Bft) O 90 1 min 0,000 mm 5,4 UV-I 875 W/m 9,0 C 18,7 C 14,5 km/h (3 Bft) 95,65 %
03.06.2023 14:09 19,4 C 25,0 C 17,2 C 16,1 C 15,0 C 52 % 87 cb 57 cb 33 cb 1017,8 hPa 0,0 l/m 11,3 km/h (2 Bft) O-SO 112 1 min 0,000 mm 5,4 UV-I 875 W/m 9,3 C 17,6 C 14,5 km/h (3 Bft) 86,96 %
03.06.2023 14:08 19,3 C 25,0 C 17,2 C 16,1 C 15,0 C 54 % 87 cb 57 cb 33 cb 1017,8 hPa 0,0 l/m 11,3 km/h (2 Bft) O-SO 112 1 min 0,000 mm 5,4 UV-I 877 W/m 9,8 C 17,4 C 17,7 km/h (3 Bft) 91,30 %
03.06.2023 14:07 19,2 C 25,0 C 17,2 C 16,1 C 15,0 C 53 % 87 cb 57 cb 33 cb 1017,9 hPa 0,0 l/m 12,9 km/h (3 Bft) O-SO 112 1 min 0,000 mm 5,4 UV-I 874 W/m 9,4 C 16,8 C 17,7 km/h (3 Bft) 91,30 %
03.06.2023 14:06 19,2 C 24,4 C 17,2 C 16,1 C 15,0 C 50 % 87 cb 57 cb 33 cb 1017,9 hPa 0,0 l/m 8,0 km/h (2 Bft) O-SO 112 1 min 0,000 mm 5,5 UV-I 879 W/m 8,5 C 18,5 C 16,1 km/h (3 Bft) 86,96 %
03.06.2023 14:05 19,3 C 24,4 C 17,2 C 16,1 C 15,0 C 50 % 87 cb 57 cb 33 cb 1017,9 hPa 0,0 l/m 16,1 km/h (3 Bft) O 90 1 min 0,000 mm 5,5 UV-I 879 W/m 8,6 C 16,1 C 24,1 km/h (4 Bft) 91,30 %
03.06.2023 14:04 19,3 C 25,0 C 17,2 C 16,1 C 15,0 C 50 % 87 cb 57 cb 33 cb 1017,9 hPa 0,0 l/m 14,5 km/h (3 Bft) O 90 1 min 0,000 mm 5,5 UV-I 881 W/m 8,6 C 16,5 C 19,3 km/h (3 Bft) 95,65 %
03.06.2023 14:03 19,3 C 25,0 C 17,2 C 16,1 C 15,0 C 52 % 87 cb 57 cb 33 cb 1017,8 hPa 0,0 l/m 16,1 km/h (3 Bft) O-SO 112 1 min 0,000 mm 5,5 UV-I 879 W/m 9,2 C 16,1 C 22,5 km/h (4 Bft) 91,30 %
03.06.2023 14:02 19,3 C 25,0 C 17,2 C 16,1 C 15,0 C 50 % 87 cb 57 cb 33 cb 1017,9 hPa 0,0 l/m 19,3 km/h (3 Bft) O-SO 112 1 min 0,000 mm 5,5 UV-I 882 W/m 8,6 C 15,4 C 24,1 km/h (4 Bft) 86,96 %
03.06.2023 14:01 19,3 C 25,0 C 17,2 C 16,1 C 15,0 C 50 % 87 cb 57 cb 33 cb 1017,9 hPa 0,0 l/m 17,7 km/h (3 Bft) O-SO 112 1 min 0,000 mm 5,5 UV-I 879 W/m 8,6 C 15,8 C 22,5 km/h (4 Bft) 91,30 %
03.06.2023 14:00 19,4 C 24,4 C 17,2 C 16,1 C 15,0 C 52 % 87 cb 57 cb 33 cb 1017,9 hPa 0,0 l/m 12,9 km/h (3 Bft) O-SO 112 1 min 0,610 mm 5,5 UV-I 882 W/m 9,3 C 17,1 C 19,3 km/h (3 Bft) 91,30 %
03.06.2023 13:59 19,3 C 24,4 C 17,2 C 16,1 C 15,0 C 51 % 87 cb 57 cb 33 cb 1017,9 hPa 0,0 l/m 12,9 km/h (3 Bft) O-SO 112 1 min 0,000 mm 5,5 UV-I 884 W/m 8,9 C 17,0 C 16,1 km/h (3 Bft) 91,30 %
03.06.2023 13:58 19,4 C 23,9 C 17,2 C 16,1 C 15,0 C 50 % 87 cb 57 cb 33 cb 1017,9 hPa 0,0 l/m 11,3 km/h (2 Bft) O 90 1 min 0,000 mm 5,6 UV-I 884 W/m 8,7 C 17,6 C 17,7 km/h (3 Bft) 95,65 %
03.06.2023 13:57 19,4 C 23,9 C 17,2 C 16,1 C 15,0 C 51 % 87 cb 57 cb 33 cb 1018,0 hPa 0,0 l/m 16,1 km/h (3 Bft) O 90 1 min 0,000 mm 5,6 UV-I 888 W/m 9,0 C 16,3 C 24,1 km/h (4 Bft) 91,30 %
03.06.2023 13:56 19,4 C 23,9 C 17,2 C 16,1 C 15,0 C 52 % 87 cb 57 cb 33 cb 1018,0 hPa 0,0 l/m 17,7 km/h (3 Bft) O-SO 112 1 min 0,000 mm 5,6 UV-I 888 W/m 9,3 C 15,9 C 24,1 km/h (4 Bft) 91,30 %
03.06.2023 13:55 19,3 C 23,9 C 17,2 C 16,1 C 15,0 C 53 % 87 cb 57 cb 33 cb 1017,9 hPa 0,0 l/m 19,3 km/h (3 Bft) O-SO 112 1 min 0,000 mm 5,6 UV-I 888 W/m 9,5 C 15,4 C 25,7 km/h (4 Bft) 86,96 %
03.06.2023 13:54 19,3 C 23,9 C 17,2 C 16,1 C 15,0 C 53 % 87 cb 57 cb 33 cb 1017,9 hPa 0,0 l/m 12,9 km/h (3 Bft) O-SO 112 1 min 0,000 mm 5,6 UV-I 888 W/m 9,5 C 17,0 C 17,7 km/h (3 Bft) 95,65 %
03.06.2023 13:53 19,3 C 23,9 C 17,2 C 16,1 C 15,0 C 52 % 87 cb 57 cb 33 cb 1017,9 hPa 0,0 l/m 14,5 km/h (3 Bft) O-SO 112 1 min 0,000 mm 5,6 UV-I 888 W/m 9,2 C 16,5 C 19,3 km/h (3 Bft) 91,30 %
03.06.2023 13:52 19,3 C 23,9 C 17,2 C 16,1 C 15,0 C 50 % 87 cb 57 cb 33 cb 1018,0 hPa 0,0 l/m 16,1 km/h (3 Bft) O 90 1 min 0,000 mm 5,6 UV-I 889 W/m 8,6 C 16,1 C 20,9 km/h (4 Bft) 95,65 %
03.06.2023 13:51 19,3 C 23,9 C 17,2 C 16,1 C 15,0 C 52 % 87 cb 57 cb 33 cb 1018,0 hPa 0,0 l/m 16,1 km/h (3 Bft) O-SO 112 1 min 0,000 mm 5,6 UV-I 888 W/m 9,2 C 16,1 C 20,9 km/h (4 Bft) 95,65 %
03.06.2023 13:50 19,4 C 23,9 C 17,2 C 16,1 C 15,0 C 50 % 87 cb 57 cb 33 cb 1018,0 hPa 0,0 l/m 12,9 km/h (3 Bft) O-SO 112 1 min 0,000 mm 5,6 UV-I 889 W/m 8,7 C 17,1 C 16,1 km/h (3 Bft) 91,30 %
03.06.2023 13:49 19,4 C 23,9 C 17,2 C 16,1 C 15,0 C 51 % 87 cb 57 cb 33 cb 1018,0 hPa 0,0 l/m 17,7 km/h (3 Bft) O 90 1 min 0,000 mm 5,6 UV-I 891 W/m 9,0 C 15,9 C 22,5 km/h (4 Bft) 100,00 %
03.06.2023 13:48 19,4 C 23,9 C 17,2 C 16,1 C 15,0 C 52 % 87 cb 57 cb 33 cb 1017,9 hPa 0,0 l/m 12,9 km/h (3 Bft) NO 45 1 min 0,000 mm 5,6 UV-I 891 W/m 9,3 C 17,1 C 22,5 km/h (4 Bft) 91,30 %
03.06.2023 13:47 19,4 C 23,9 C 17,2 C 16,1 C 15,0 C 54 % 87 cb 57 cb 33 cb 1018,0 hPa 0,0 l/m 12,9 km/h (3 Bft) O 90 1 min 0,000 mm 5,7 UV-I 895 W/m 9,8 C 17,1 C 20,9 km/h (4 Bft) 91,30 %
03.06.2023 13:46 19,4 C 23,9 C 17,2 C 16,1 C 15,0 C 55 % 87 cb 57 cb 33 cb 1018,0 hPa 0,0 l/m 16,1 km/h (3 Bft) O-SO 112 1 min 0,000 mm 5,7 UV-I 895 W/m 10,1 C 16,3 C 19,3 km/h (3 Bft) 95,65 %
03.06.2023 13:45 19,3 C 23,9 C 17,2 C 16,1 C 15,0 C 54 % 87 cb 57 cb 33 cb 1018,0 hPa 0,0 l/m 14,5 km/h (3 Bft) O-SO 112 1 min 0,000 mm 5,7 UV-I 893 W/m 9,8 C 16,5 C 20,9 km/h (4 Bft) 91,30 %
03.06.2023 13:44 19,3 C 23,9 C 17,2 C 16,1 C 15,0 C 54 % 87 cb 57 cb 33 cb 1018,0 hPa 0,0 l/m 19,3 km/h (3 Bft) SO 135 1 min 0,000 mm 5,7 UV-I 893 W/m 9,8 C 15,4 C 25,7 km/h (4 Bft) 86,96 %
03.06.2023 13:43 19,2 C 23,9 C 17,2 C 16,1 C 15,0 C 52 % 87 cb 57 cb 33 cb 1018,0 hPa 0,0 l/m 19,3 km/h (3 Bft) O 90 1 min 0,000 mm 5,7 UV-I 891 W/m 9,1 C 15,3 C 24,1 km/h (4 Bft) 95,65 %
03.06.2023 13:42 19,3 C 23,9 C 17,2 C 16,1 C 15,0 C 52 % 87 cb 57 cb 33 cb 1018,0 hPa 0,0 l/m 12,9 km/h (3 Bft) O 90 1 min 0,000 mm 5,7 UV-I 891 W/m 9,2 C 17,0 C 19,3 km/h (3 Bft) 91,30 %
03.06.2023 13:41 19,3 C 23,9 C 17,2 C 16,1 C 15,0 C 53 % 87 cb 57 cb 33 cb 1018,0 hPa 0,0 l/m 9,7 km/h (2 Bft) O 90 1 min 0,000 mm 5,7 UV-I 895 W/m 9,5 C 18,0 C 16,1 km/h (3 Bft) 95,65 %
03.06.2023 13:40 19,3 C 23,9 C 17,2 C 16,1 C 15,0 C 52 % 87 cb 57 cb 33 cb 1018,0 hPa 0,0 l/m 11,3 km/h (2 Bft) O-SO 112 1 min 0,000 mm 5,7 UV-I 896 W/m 9,2 C 17,4 C 16,1 km/h (3 Bft) 95,65 %
03.06.2023 13:39 19,3 C 23,9 C 17,2 C 16,1 C 15,0 C 52 % 87 cb 57 cb 33 cb 1018,0 hPa 0,0 l/m 17,7 km/h (3 Bft) O-SO 112 1 min 0,000 mm 5,7 UV-I 896 W/m 9,2 C 15,8 C 22,5 km/h (4 Bft) 91,30 %
03.06.2023 13:38 19,2 C 23,9 C 17,2 C 16,1 C 15,0 C 53 % 87 cb 57 cb 33 cb 1018,0 hPa 0,0 l/m 19,3 km/h (3 Bft) O-SO 112 1 min 0,000 mm 5,7 UV-I 895 W/m 9,4 C 15,3 C 25,7 km/h (4 Bft) 91,30 %
03.06.2023 13:37 19,1 C 23,9 C 16,7 C 16,1 C 15,0 C 54 % 86 cb 57 cb 33 cb 1017,9 hPa 0,0 l/m 14,5 km/h (3 Bft) SO 135 1 min 0,000 mm 5,7 UV-I 896 W/m 9,6 C 16,3 C 17,7 km/h (3 Bft) 95,65 %
03.06.2023 13:36 19,0 C 23,9 C 16,7 C 16,1 C 15,0 C 54 % 86 cb 57 cb 33 cb 1018,0 hPa 0,0 l/m 20,9 km/h (4 Bft) SO 135 1 min 0,000 mm 5,7 UV-I 893 W/m 9,5 C 14,7 C 27,4 km/h (4 Bft) 86,96 %
03.06.2023 13:35 18,9 C 24,4 C 16,7 C 16,1 C 15,0 C 54 % 86 cb 57 cb 33 cb 1018,0 hPa 0,0 l/m 16,1 km/h (3 Bft) O-SO 112 1 min 0,000 mm 5,7 UV-I 893 W/m 9,4 C 15,6 C 27,4 km/h (4 Bft) 91,30 %
03.06.2023 13:34 18,8 C 23,9 C 16,7 C 16,1 C 15,0 C 53 % 86 cb 57 cb 33 cb 1018,2 hPa 0,0 l/m 12,9 km/h (3 Bft) O 90 1 min 0,000 mm 5,7 UV-I 893 W/m 9,0 C 16,4 C 17,7 km/h (3 Bft) 95,65 %
03.06.2023 13:33 18,9 C 23,9 C 16,7 C 16,1 C 15,0 C 52 % 86 cb 57 cb 33 cb 1018,1 hPa 0,0 l/m 14,5 km/h (3 Bft) O-SO 112 1 min 0,000 mm 5,7 UV-I 895 W/m 8,8 C 16,0 C 17,7 km/h (3 Bft) 91,30 %
03.06.2023 13:32 18,9 C 24,4 C 16,7 C 16,1 C 15,0 C 54 % 86 cb 57 cb 33 cb 1018,0 hPa 0,0 l/m 14,5 km/h (3 Bft) O 90 1 min 0,000 mm 5,7 UV-I 895 W/m 9,4 C 16,0 C 20,9 km/h (4 Bft) 91,30 %
03.06.2023 13:31 18,9 C 24,4 C 16,7 C 16,1 C 15,0 C 53 % 86 cb 57 cb 33 cb 1018,0 hPa 0,0 l/m 17,7 km/h (3 Bft) O-SO 112 1 min 0,000 mm 5,8 UV-I 896 W/m 9,1 C 15,3 C 20,9 km/h (4 Bft) 95,65 %
03.06.2023 13:30 18,9 C 24,4 C 16,7 C 16,1 C 15,0 C 53 % 86 cb 57 cb 33 cb 1018,1 hPa 0,0 l/m 16,1 km/h (3 Bft) O 90 1 min 0,000 mm 5,8 UV-I 896 W/m 9,1 C 15,6 C 22,5 km/h (4 Bft) 91,30 %
03.06.2023 13:29 18,9 C 24,4 C 16,7 C 16,1 C 15,0 C 53 % 86 cb 57 cb 33 cb 1018,1 hPa 0,0 l/m 14,5 km/h (3 Bft) O-SO 112 1 min 0,000 mm 5,8 UV-I 898 W/m 9,1 C 16,0 C 22,5 km/h (4 Bft) 82,61 %
03.06.2023 13:28 18,9 C 24,4 C 16,7 C 16,1 C 15,0 C 53 % 86 cb 57 cb 33 cb 1018,3 hPa 0,0 l/m 16,1 km/h (3 Bft) O 90 1 min 0,000 mm 5,8 UV-I 898 W/m 9,1 C 15,6 C 22,5 km/h (4 Bft) 95,65 %
03.06.2023 13:27 18,9 C 24,4 C 16,7 C 16,1 C 15,0 C 54 % 86 cb 57 cb 33 cb 1018,2 hPa 0,0 l/m 12,9 km/h (3 Bft) O-SO 112 1 min 0,000 mm 5,8 UV-I 896 W/m 9,4 C 16,5 C 20,9 km/h (4 Bft) 95,65 %
03.06.2023 13:26 18,9 C 24,4 C 16,7 C 16,1 C 15,0 C 54 % 86 cb 57 cb 33 cb 1018,1 hPa 0,0 l/m 17,7 km/h (3 Bft) O-SO 112 1 min 0,000 mm 5,8 UV-I 896 W/m 9,4 C 15,3 C 24,1 km/h (4 Bft) 91,30 %
03.06.2023 13:25 18,8 C 24,4 C 16,7 C 16,1 C 15,0 C 55 % 86 cb 57 cb 33 cb 1018,1 hPa 0,0 l/m 16,1 km/h (3 Bft) O-SO 112 1 min 0,000 mm 5,8 UV-I 896 W/m 9,6 C 15,5 C 22,5 km/h (4 Bft) 91,30 %
03.06.2023 13:24 18,8 C 24,4 C 16,7 C 16,1 C 15,0 C 53 % 86 cb 57 cb 33 cb 1018,3 hPa 0,0 l/m 11,3 km/h (2 Bft) O 90 1 min 0,000 mm 5,8 UV-I 896 W/m 9,0 C 16,9 C 17,7 km/h (3 Bft) 100,00 %
03.06.2023 13:23 18,9 C 23,9 C 16,7 C 16,1 C 15,0 C 53 % 86 cb 57 cb 33 cb 1018,2 hPa 0,0 l/m 9,7 km/h (2 Bft) O 90 1 min 0,000 mm 5,8 UV-I 900 W/m 9,1 C 17,5 C 17,7 km/h (3 Bft) 91,30 %
03.06.2023 13:22 18,9 C 23,9 C 16,7 C 16,1 C 15,0 C 52 % 86 cb 57 cb 33 cb 1018,3 hPa 0,0 l/m 9,7 km/h (2 Bft) O-NO 67 1 min 0,000 mm 5,8 UV-I 900 W/m 8,8 C 17,5 C 16,1 km/h (3 Bft) 95,65 %
03.06.2023 13:21 19,0 C 23,9 C 16,7 C 16,1 C 15,0 C 55 % 86 cb 57 cb 33 cb 1018,3 hPa 0,0 l/m 12,9 km/h (3 Bft) O-NO 67 1 min 0,000 mm 5,8 UV-I 898 W/m 9,8 C 16,6 C 17,7 km/h (3 Bft) 95,65 %
03.06.2023 13:20 19,1 C 23,9 C 16,7 C 16,1 C 15,0 C 53 % 86 cb 57 cb 33 cb 1018,2 hPa 0,0 l/m 16,1 km/h (3 Bft) O-SO 112 1 min 0,000 mm 5,8 UV-I 900 W/m 9,3 C 15,9 C 20,9 km/h (4 Bft) 91,30 %
03.06.2023 13:19 19,1 C 23,9 C 16,7 C 16,1 C 15,0 C 52 % 86 cb 57 cb 33 cb 1018,3 hPa 0,0 l/m 19,3 km/h (3 Bft) O-SO 112 1 min 0,000 mm 5,8 UV-I 904 W/m 9,0 C 15,2 C 25,7 km/h (4 Bft) 91,30 %
03.06.2023 13:18 19,2 C 23,9 C 16,7 C 16,1 C 15,0 C 53 % 86 cb 57 cb 33 cb 1018,3 hPa 0,0 l/m 17,7 km/h (3 Bft) O 90 1 min 0,000 mm 5,8 UV-I 902 W/m 9,4 C 15,6 C 22,5 km/h (4 Bft) 86,96 %
03.06.2023 13:17 19,3 C 23,9 C 16,7 C 16,1 C 15,0 C 53 % 86 cb 57 cb 33 cb 1018,2 hPa 0,0 l/m 14,5 km/h (3 Bft) O-SO 112 1 min 0,000 mm 5,8 UV-I 898 W/m 9,5 C 16,5 C 24,1 km/h (4 Bft) 95,65 %
03.06.2023 13:16 19,2 C 23,9 C 16,7 C 16,1 C 15,0 C 56 % 86 cb 57 cb 33 cb 1018,3 hPa 0,0 l/m 19,3 km/h (3 Bft) SO 135 1 min 0,000 mm 5,8 UV-I 902 W/m 10,2 C 15,3 C 24,1 km/h (4 Bft) 95,65 %
03.06.2023 13:15 19,1 C 23,9 C 16,7 C 16,1 C 15,0 C 57 % 86 cb 57 cb 33 cb 1018,4 hPa 0,0 l/m 12,9 km/h (3 Bft) SO 135 1 min 0,000 mm 5,8 UV-I 900 W/m 10,4 C 16,7 C 24,1 km/h (4 Bft) 95,65 %
03.06.2023 13:14 19,0 C 23,9 C 16,7 C 16,1 C 15,0 C 53 % 86 cb 57 cb 33 cb 1018,3 hPa 0,0 l/m 11,3 km/h (2 Bft) O-SO 112 1 min 0,000 mm 5,8 UV-I 898 W/m 9,2 C 17,1 C 16,1 km/h (3 Bft) 91,30 %
03.06.2023 13:13 19,1 C 23,9 C 16,7 C 16,1 C 15,0 C 54 % 86 cb 57 cb 33 cb 1018,3 hPa 0,0 l/m 19,3 km/h (3 Bft) O-SO 112 1 min 0,000 mm 5,8 UV-I 896 W/m 9,6 C 15,2 C 27,4 km/h (4 Bft) 95,65 %
03.06.2023 13:12 19,1 C 23,9 C 16,7 C 16,1 C 15,0 C 55 % 86 cb 57 cb 33 cb 1018,3 hPa 0,0 l/m 19,3 km/h (3 Bft) O-SO 112 1 min 0,000 mm 5,8 UV-I 900 W/m 9,8 C 15,2 C 25,7 km/h (4 Bft) 91,30 %
03.06.2023 13:11 19,0 C 23,9 C 16,7 C 16,1 C 15,0 C 57 % 87 cb 57 cb 33 cb 1018,3 hPa 0,0 l/m 20,9 km/h (4 Bft) SO 135 1 min 0,000 mm 5,8 UV-I 902 W/m 10,3 C 14,7 C 29,0 km/h (5 Bft) 91,30 %
03.06.2023 13:10 18,9 C 23,9 C 16,7 C 16,1 C 15,0 C 55 % 87 cb 57 cb 33 cb 1018,4 hPa 0,0 l/m 17,7 km/h (3 Bft) SO 135 1 min 0,000 mm 5,8 UV-I 904 W/m 9,7 C 15,3 C 20,9 km/h (4 Bft) 95,65 %
03.06.2023 13:09 18,9 C 23,9 C 16,7 C 16,1 C 15,0 C 53 % 87 cb 57 cb 33 cb 1018,4 hPa 0,0 l/m 11,3 km/h (2 Bft) O-SO 112 1 min 0,000 mm 5,8 UV-I 904 W/m 9,1 C 17,0 C 14,5 km/h (3 Bft) 95,65 %
03.06.2023 13:08 18,9 C 23,9 C 16,7 C 16,1 C 15,0 C 53 % 87 cb 57 cb 33 cb 1018,4 hPa 0,0 l/m 14,5 km/h (3 Bft) O-SO 112 1 min 0,000 mm 5,8 UV-I 904 W/m 9,1 C 16,0 C 19,3 km/h (3 Bft) 86,96 %
03.06.2023 13:07 18,9 C 23,9 C 16,7 C 16,1 C 15,0 C 54 % 87 cb 57 cb 33 cb 1018,4 hPa 0,0 l/m 16,1 km/h (3 Bft) O-NO 67 1 min 0,000 mm 5,8 UV-I 904 W/m 9,4 C 15,6 C 24,1 km/h (4 Bft) 95,65 %
03.06.2023 13:06 18,9 C 23,9 C 16,7 C 16,1 C 15,0 C 55 % 87 cb 57 cb 33 cb 1018,4 hPa 0,0 l/m 8,0 km/h (2 Bft) NO 45 1 min 0,000 mm 5,8 UV-I 902 W/m 9,7 C 18,2 C 11,3 km/h (2 Bft) 100,00 %
03.06.2023 13:05 18,9 C 23,9 C 16,7 C 16,1 C 15,0 C 56 % 87 cb 57 cb 33 cb 1018,3 hPa 0,0 l/m 9,7 km/h (2 Bft) O-SO 112 1 min 0,000 mm 5,8 UV-I 902 W/m 9,9 C 17,5 C 16,1 km/h (3 Bft) 95,65 %
03.06.2023 13:04 18,8 C 23,3 C 16,7 C 16,1 C 15,0 C 56 % 87 cb 57 cb 33 cb 1018,2 hPa 0,0 l/m 14,5 km/h (3 Bft) O-SO 112 1 min 0,000 mm 5,8 UV-I 902 W/m 9,8 C 15,9 C 19,3 km/h (3 Bft) 95,65 %
03.06.2023 13:03 18,8 C 23,3 C 16,7 C 16,1 C 15,0 C 55 % 87 cb 57 cb 33 cb 1018,4 hPa 0,0 l/m 16,1 km/h (3 Bft) O 90 1 min 0,000 mm 5,8 UV-I 904 W/m 9,6 C 15,5 C 22,5 km/h (4 Bft) 91,30 %
03.06.2023 13:02 18,8 C 23,3 C 16,7 C 16,1 C 15,0 C 55 % 87 cb 57 cb 33 cb 1018,3 hPa 0,0 l/m 12,9 km/h (3 Bft) O-SO 112 1 min 0,000 mm 5,8 UV-I 904 W/m 9,6 C 16,4 C 17,7 km/h (3 Bft) 95,65 %
03.06.2023 13:01 18,7 C 23,3 C 16,7 C 16,1 C 15,0 C 55 % 87 cb 57 cb 33 cb 1018,4 hPa 0,0 l/m 12,9 km/h (3 Bft) O 90 1 min 0,000 mm 5,8 UV-I 904 W/m 9,5 C 16,3 C 19,3 km/h (3 Bft) 86,96 %
03.06.2023 13:00 18,7 C 23,3 C 16,7 C 16,1 C 15,0 C 57 % 87 cb 57 cb 33 cb 1018,4 hPa 0,0 l/m 17,7 km/h (3 Bft) O-SO 112 1 min 0,584 mm 5,8 UV-I 902 W/m 10,0 C 15,0 C 22,5 km/h (4 Bft) 95,65 %
03.06.2023 12:59 18,6 C 23,3 C 16,7 C 16,1 C 15,0 C 56 % 87 cb 57 cb 33 cb 1018,3 hPa 0,0 l/m 19,3 km/h (3 Bft) SO 135 1 min 0,000 mm 5,8 UV-I 902 W/m 9,6 C 14,5 C 24,1 km/h (4 Bft) 86,96 %
03.06.2023 12:58 18,5 C 23,3 C 16,7 C 16,1 C 15,0 C 56 % 87 cb 57 cb 33 cb 1018,2 hPa 0,0 l/m 19,3 km/h (3 Bft) SO 135 1 min 0,000 mm 5,8 UV-I 902 W/m 9,6 C 14,4 C 25,7 km/h (4 Bft) 95,65 %
03.06.2023 12:57 18,5 C 23,9 C 16,7 C 16,1 C 15,0 C 54 % 87 cb 57 cb 33 cb 1018,3 hPa 0,0 l/m 20,9 km/h (4 Bft) O 90 1 min 0,000 mm 5,8 UV-I 902 W/m 9,0 C 14,1 C 29,0 km/h (5 Bft) 100,00 %
03.06.2023 12:56 18,5 C 23,9 C 16,7 C 16,1 C 15,0 C 56 % 87 cb 57 cb 33 cb 1018,4 hPa 0,0 l/m 16,1 km/h (3 Bft) O-SO 112 1 min 0,000 mm 5,9 UV-I 905 W/m 9,6 C 15,1 C 24,1 km/h (4 Bft) 95,65 %
03.06.2023 12:55 18,4 C 23,9 C 16,7 C 16,1 C 15,0 C 57 % 87 cb 57 cb 33 cb 1018,3 hPa 0,0 l/m 12,9 km/h (3 Bft) O-SO 112 1 min 0,000 mm 5,9 UV-I 905 W/m 9,7 C 15,9 C 20,9 km/h (4 Bft) 95,65 %
03.06.2023 12:54 18,3 C 23,9 C 16,7 C 16,1 C 15,0 C 57 % 87 cb 57 cb 33 cb 1018,2 hPa 0,0 l/m 12,9 km/h (3 Bft) O-SO 112 1 min 0,000 mm 5,9 UV-I 905 W/m 9,6 C 15,8 C 17,7 km/h (3 Bft) 100,00 %
03.06.2023 12:53 18,3 C 23,9 C 16,7 C 16,1 C 15,0 C 58 % 87 cb 57 cb 33 cb 1018,3 hPa 0,0 l/m 12,9 km/h (3 Bft) SO 135 1 min 0,000 mm 5,8 UV-I 902 W/m 9,9 C 15,8 C 19,3 km/h (3 Bft) 91,30 %
03.06.2023 12:52 18,2 C 23,9 C 16,7 C 16,1 C 15,0 C 57 % 87 cb 57 cb 33 cb 1018,3 hPa 0,0 l/m 9,7 km/h (2 Bft) O-SO 112 1 min 0,000 mm 5,8 UV-I 902 W/m 9,5 C 16,8 C 12,9 km/h (3 Bft) 91,30 %
03.06.2023 12:51 18,2 C 23,3 C 16,7 C 16,1 C 15,0 C 55 % 87 cb 57 cb 33 cb 1018,3 hPa 0,0 l/m 8,0 km/h (2 Bft) O-NO 67 1 min 0,000 mm 5,8 UV-I 896 W/m 9,0 C 17,5 C 12,9 km/h (3 Bft) 100,00 %
03.06.2023 12:50 18,2 C 23,3 C 16,7 C 16,1 C 15,0 C 55 % 87 cb 57 cb 33 cb 1018,3 hPa 0,0 l/m 11,3 km/h (2 Bft) O-SO 112 1 min 0,000 mm 5,8 UV-I 896 W/m 9,0 C 16,2 C 14,5 km/h (3 Bft) 86,96 %
03.06.2023 12:49 18,2 C 23,3 C 16,7 C 16,1 C 15,0 C 55 % 87 cb 57 cb 33 cb 1018,3 hPa 0,0 l/m 12,9 km/h (3 Bft) O-SO 112 1 min 0,000 mm 5,8 UV-I 898 W/m 9,0 C 15,7 C 19,3 km/h (3 Bft) 91,30 %
03.06.2023 12:48 18,2 C 23,3 C 16,7 C 16,1 C 15,0 C 55 % 87 cb 57 cb 33 cb 1018,3 hPa 0,0 l/m 17,7 km/h (3 Bft) O-SO 112 1 min 0,000 mm 5,8 UV-I 898 W/m 9,0 C 14,4 C 24,1 km/h (4 Bft) 100,00 %
03.06.2023 12:47 18,2 C 23,3 C 16,7 C 16,1 C 15,0 C 55 % 87 cb 57 cb 33 cb 1018,3 hPa 0,0 l/m 20,9 km/h (4 Bft) O-SO 112 1 min 0,000 mm 5,8 UV-I 895 W/m 9,0 C 13,7 C 25,7 km/h (4 Bft) 91,30 %
03.06.2023 12:46 18,2 C 23,9 C 16,7 C 16,1 C 15,0 C 55 % 87 cb 57 cb 33 cb 1018,2 hPa 0,0 l/m 22,5 km/h (4 Bft) O-SO 112 1 min 0,000 mm 5,8 UV-I 900 W/m 9,0 C 13,4 C 29,0 km/h (5 Bft) 91,30 %
03.06.2023 12:45 18,2 C 23,9 C 16,7 C 16,1 C 15,0 C 56 % 87 cb 57 cb 33 cb 1018,4 hPa 0,0 l/m 19,3 km/h (3 Bft) SO 135 1 min 0,000 mm 5,8 UV-I 898 W/m 9,3 C 14,0 C 25,7 km/h (4 Bft) 100,00 %
03.06.2023 12:44 18,2 C 23,9 C 16,7 C 16,1 C 15,0 C 56 % 87 cb 57 cb 33 cb 1018,2 hPa 0,0 l/m 9,7 km/h (2 Bft) O 90 1 min 0,000 mm 5,8 UV-I 898 W/m 9,3 C 16,8 C 20,9 km/h (4 Bft) 91,30 %
03.06.2023 12:43 18,2 C 23,9 C 16,7 C 16,1 C 15,0 C 55 % 87 cb 57 cb 33 cb 1018,3 hPa 0,0 l/m 11,3 km/h (2 Bft) O-SO 112 1 min 0,000 mm 5,8 UV-I 896 W/m 9,0 C 16,2 C 17,7 km/h (3 Bft) 86,96 %
03.06.2023 12:42 18,2 C 23,9 C 16,7 C 16,1 C 15,0 C 56 % 87 cb 57 cb 33 cb 1018,3 hPa 0,0 l/m 11,3 km/h (2 Bft) O 90 1 min 0,000 mm 5,8 UV-I 895 W/m 9,3 C 16,2 C 17,7 km/h (3 Bft) 95,65 %
03.06.2023 12:41 18,2 C 23,3 C 16,7 C 16,1 C 15,0 C 56 % 87 cb 57 cb 33 cb 1018,3 hPa 0,0 l/m 12,9 km/h (3 Bft) O 90 1 min 0,000 mm 5,8 UV-I 898 W/m 9,3 C 15,7 C 20,9 km/h (4 Bft) 100,00 %
03.06.2023 12:40 18,2 C 23,3 C 16,7 C 16,1 C 15,0 C 56 % 87 cb 57 cb 33 cb 1018,2 hPa 0,0 l/m 17,7 km/h (3 Bft) SO 135 1 min 0,000 mm 5,8 UV-I 898 W/m 9,3 C 14,4 C 25,7 km/h (4 Bft) 91,30 %
03.06.2023 12:39 18,1 C 23,3 C 16,7 C 16,1 C 15,0 C 57 % 87 cb 57 cb 33 cb 1018,3 hPa 0,0 l/m 24,1 km/h (4 Bft) O-SO 112 1 min 0,000 mm 5,8 UV-I 896 W/m 9,4 C 13,0 C 29,0 km/h (5 Bft) 95,65 %
03.06.2023 12:38 18,1 C 23,9 C 16,7 C 16,1 C 15,0 C 56 % 87 cb 57 cb 33 cb 1018,3 hPa 0,0 l/m 19,3 km/h (3 Bft) O-SO 112 1 min 0,000 mm 5,8 UV-I 895 W/m 9,2 C 13,9 C 27,4 km/h (4 Bft) 100,00 %
03.06.2023 12:37 18,1 C 23,9 C 16,7 C 16,1 C 15,0 C 56 % 87 cb 57 cb 33 cb 1018,3 hPa 0,0 l/m 11,3 km/h (2 Bft) O-NO 67 1 min 0,000 mm 5,8 UV-I 896 W/m 9,2 C 16,1 C 17,7 km/h (3 Bft) 95,65 %
03.06.2023 12:36 18,1 C 23,3 C 16,7 C 16,1 C 15,0 C 55 % 87 cb 57 cb 33 cb 1018,4 hPa 0,0 l/m 14,5 km/h (3 Bft) O-NO 67 1 min 0,000 mm 5,8 UV-I 893 W/m 8,9 C 15,1 C 19,3 km/h (3 Bft) 91,30 %
03.06.2023 12:35 18,2 C 23,3 C 16,7 C 16,1 C 15,0 C 56 % 87 cb 57 cb 33 cb 1018,3 hPa 0,0 l/m 12,9 km/h (3 Bft) O-SO 112 1 min 0,000 mm 5,8 UV-I 895 W/m 9,3 C 15,7 C 19,3 km/h (3 Bft) 100,00 %
03.06.2023 12:34 18,1 C 23,3 C 16,7 C 16,1 C 15,0 C 56 % 87 cb 57 cb 33 cb 1018,3 hPa 0,0 l/m 11,3 km/h (2 Bft) O-SO 112 1 min 0,000 mm 5,8 UV-I 896 W/m 9,2 C 16,1 C 16,1 km/h (3 Bft) 91,30 %
03.06.2023 12:33 18,1 C 23,3 C 16,7 C 16,1 C 15,0 C 55 % 87 cb 57 cb 33 cb 1018,3 hPa 0,0 l/m 12,9 km/h (3 Bft) O-NO 67 1 min 0,000 mm 5,8 UV-I 896 W/m 8,9 C 15,6 C 19,3 km/h (3 Bft) 95,65 %
03.06.2023 12:32 18,1 C 23,3 C 16,7 C 16,1 C 15,0 C 55 % 87 cb 57 cb 33 cb 1018,3 hPa 0,0 l/m 11,3 km/h (2 Bft) O 90 1 min 0,000 mm 5,8 UV-I 895 W/m 8,9 C 16,1 C 19,3 km/h (3 Bft) 95,65 %
03.06.2023 12:31 18,1 C 23,3 C 16,7 C 16,1 C 15,0 C 56 % 87 cb 57 cb 33 cb 1018,3 hPa 0,0 l/m 12,9 km/h (3 Bft) O-SO 112 1 min 0,000 mm 5,8 UV-I 893 W/m 9,2 C 15,6 C 20,9 km/h (4 Bft) 86,96 %
03.06.2023 12:30 18,1 C 23,3 C 16,7 C 16,1 C 15,0 C 55 % 87 cb 57 cb 33 cb 1018,3 hPa 0,0 l/m 11,3 km/h (2 Bft) O-SO 112 1 min 0,000 mm 5,8 UV-I 891 W/m 8,9 C 16,1 C 19,3 km/h (3 Bft) 95,65 %
03.06.2023 12:29 18,1 C 23,3 C 16,7 C 16,1 C 15,0 C 55 % 87 cb 57 cb 33 cb 1018,3 hPa 0,0 l/m 17,7 km/h (3 Bft) O-SO 112 1 min 0,000 mm 5,7 UV-I 891 W/m 8,9 C 14,3 C 20,9 km/h (4 Bft) 100,00 %
03.06.2023 12:28 18,2 C 23,9 C 16,7 C 16,1 C 15,0 C 55 % 87 cb 57 cb 33 cb 1018,4 hPa 0,0 l/m 17,7 km/h (3 Bft) O 90 1 min 0,000 mm 5,7 UV-I 889 W/m 9,0 C 14,4 C 22,5 km/h (4 Bft) 95,65 %
03.06.2023 12:27 18,3 C 23,9 C 16,7 C 16,1 C 15,0 C 57 % 87 cb 57 cb 33 cb 1018,4 hPa 0,0 l/m 16,1 km/h (3 Bft) O-SO 112 1 min 0,000 mm 5,7 UV-I 886 W/m 9,6 C 14,9 C 24,1 km/h (4 Bft) 91,30 %
03.06.2023 12:26 18,3 C 24,4 C 16,7 C 16,1 C 15,0 C 54 % 87 cb 57 cb 32 cb 1018,4 hPa 0,0 l/m 14,5 km/h (3 Bft) O-SO 112 1 min 0,000 mm 5,7 UV-I 888 W/m 8,8 C 15,3 C 17,7 km/h (3 Bft) 100,00 %
03.06.2023 12:25 18,4 C 24,4 C 16,7 C 16,1 C 15,0 C 56 % 87 cb 57 cb 32 cb 1018,3 hPa 0,0 l/m 16,1 km/h (3 Bft) O-SO 112 1 min 0,000 mm 5,7 UV-I 889 W/m 9,5 C 15,0 C 20,9 km/h (4 Bft) 95,65 %
03.06.2023 12:24 18,4 C 25,0 C 16,7 C 16,1 C 15,0 C 55 % 87 cb 57 cb 32 cb 1018,4 hPa 0,0 l/m 20,9 km/h (4 Bft) O-SO 112 1 min 0,000 mm 5,8 UV-I 893 W/m 9,2 C 14,0 C 24,1 km/h (4 Bft) 95,65 %
03.06.2023 12:23 18,4 C 25,0 C 16,7 C 16,1 C 15,0 C 57 % 87 cb 57 cb 32 cb 1018,2 hPa 0,0 l/m 14,5 km/h (3 Bft) SO 135 1 min 0,000 mm 5,8 UV-I 893 W/m 9,7 C 15,4 C 20,9 km/h (4 Bft) 100,00 %
03.06.2023 12:22 18,4 C 25,0 C 16,7 C 16,1 C 15,0 C 58 % 87 cb 57 cb 32 cb 1018,2 hPa 0,0 l/m 19,3 km/h (3 Bft) SO 135 1 min 0,000 mm 5,7 UV-I 891 W/m 10,0 C 14,3 C 25,7 km/h (4 Bft) 95,65 %
03.06.2023 12:21 18,2 C 25,0 C 16,7 C 16,1 C 15,0 C 60 % 87 cb 57 cb 32 cb 1018,4 hPa 0,0 l/m 11,3 km/h (2 Bft) S-SO 157 1 min 0,000 mm 5,7 UV-I 889 W/m 10,3 C 16,2 C 20,9 km/h (4 Bft) 91,30 %
03.06.2023 12:20 18,2 C 25,0 C 16,7 C 16,1 C 15,0 C 60 % 87 cb 57 cb 32 cb 1018,4 hPa 0,0 l/m 4,8 km/h (1 Bft) O-NO 67 1 min 0,000 mm 5,7 UV-I 888 W/m 10,3 C 18,2 C 6,4 km/h (2 Bft) 100,00 %
03.06.2023 12:19 18,1 C 24,4 C 16,7 C 16,1 C 15,0 C 58 % 87 cb 57 cb 32 cb 1018,4 hPa 0,0 l/m 4,8 km/h (1 Bft) O 90 1 min 0,000 mm 5,7 UV-I 882 W/m 9,7 C 18,1 C 12,9 km/h (3 Bft) 95,65 %
03.06.2023 12:18 17,9 C 24,4 C 16,7 C 16,1 C 15,0 C 58 % 87 cb 57 cb 32 cb 1018,4 hPa 0,0 l/m 9,7 km/h (2 Bft) SO 135 1 min 0,000 mm 5,7 UV-I 882 W/m 9,5 C 16,4 C 12,9 km/h (3 Bft) 91,30 %
03.06.2023 12:17 17,9 C 23,9 C 16,7 C 16,1 C 15,0 C 56 % 87 cb 57 cb 32 cb 1018,4 hPa 0,0 l/m 12,9 km/h (3 Bft) SO 135 1 min 0,000 mm 5,6 UV-I 881 W/m 9,0 C 15,3 C 19,3 km/h (3 Bft) 91,30 %
03.06.2023 12:16 17,8 C 23,9 C 16,7 C 16,1 C 15,0 C 58 % 87 cb 57 cb 32 cb 1018,4 hPa 0,0 l/m 14,5 km/h (3 Bft) O 90 1 min 0,000 mm 5,6 UV-I 881 W/m 9,4 C 14,7 C 22,5 km/h (4 Bft) 95,65 %
03.06.2023 12:15 17,9 C 23,9 C 16,7 C 16,1 C 15,0 C 56 % 87 cb 57 cb 32 cb 1018,5 hPa 0,0 l/m 14,5 km/h (3 Bft) O-NO 67 1 min 0,000 mm 5,6 UV-I 882 W/m 9,0 C 14,8 C 20,9 km/h (4 Bft) 95,65 %
03.06.2023 12:14 17,8 C 23,9 C 16,1 C 16,1 C 15,0 C 59 % 86 cb 57 cb 32 cb 1018,4 hPa 0,0 l/m 12,9 km/h (3 Bft) O 90 1 min 0,000 mm 5,6 UV-I 882 W/m 9,7 C 15,2 C 19,3 km/h (3 Bft) 100,00 %
03.06.2023 12:13 17,8 C 23,9 C 16,1 C 16,1 C 15,0 C 58 % 86 cb 57 cb 32 cb 1018,5 hPa 0,0 l/m 12,9 km/h (3 Bft) SO 135 1 min 0,000 mm 5,6 UV-I 884 W/m 9,4 C 15,2 C 19,3 km/h (3 Bft) 91,30 %
03.06.2023 12:12 17,7 C 23,9 C 16,1 C 16,1 C 15,0 C 59 % 86 cb 57 cb 32 cb 1018,4 hPa 0,0 l/m 11,3 km/h (2 Bft) O-SO 112 1 min 0,000 mm 5,6 UV-I 882 W/m 9,6 C 15,6 C 16,1 km/h (3 Bft) 95,65 %
03.06.2023 12:11 17,7 C 23,3 C 16,1 C 16,1 C 15,0 C 57 % 86 cb 57 cb 32 cb 1018,4 hPa 0,0 l/m 9,7 km/h (2 Bft) O 90 1 min 0,000 mm 5,6 UV-I 879 W/m 9,1 C 16,2 C 12,9 km/h (3 Bft) 100,00 %
03.06.2023 12:10 17,7 C 23,3 C 16,1 C 16,1 C 15,0 C 55 % 86 cb 57 cb 32 cb 1018,4 hPa 0,0 l/m 12,9 km/h (3 Bft) O-NO 67 1 min 0,000 mm 5,6 UV-I 877 W/m 8,5 C 15,1 C 17,7 km/h (3 Bft) 95,65 %
03.06.2023 12:09 17,7 C 23,3 C 16,1 C 16,1 C 15,0 C 56 % 86 cb 57 cb 32 cb 1018,3 hPa 0,0 l/m 19,3 km/h (3 Bft) O 90 1 min 0,000 mm 5,6 UV-I 875 W/m 8,8 C 13,4 C 30,6 km/h (5 Bft) 95,65 %
03.06.2023 12:08 17,7 C 23,3 C 16,1 C 16,1 C 15,0 C 59 % 86 cb 57 cb 32 cb 1018,5 hPa 0,0 l/m 17,7 km/h (3 Bft) SO 135 1 min 0,000 mm 5,6 UV-I 877 W/m 9,6 C 13,8 C 27,4 km/h (4 Bft) 100,00 %
03.06.2023 12:07 17,6 C 23,3 C 16,1 C 16,1 C 15,0 C 58 % 86 cb 57 cb 32 cb 1018,3 hPa 0,0 l/m 20,9 km/h (4 Bft) O-SO 112 1 min 0,000 mm 5,6 UV-I 877 W/m 9,2 C 12,9 C 27,4 km/h (4 Bft) 86,96 %
03.06.2023 12:06 17,5 C 23,9 C 16,1 C 16,1 C 15,0 C 57 % 87 cb 57 cb 32 cb 1018,5 hPa 0,0 l/m 19,3 km/h (3 Bft) O-SO 112 1 min 0,000 mm 5,6 UV-I 877 W/m 8,9 C 13,1 C 25,7 km/h (4 Bft) 95,65 %
03.06.2023 12:05 17,4 C 23,9 C 16,1 C 16,1 C 15,0 C 57 % 87 cb 57 cb 32 cb 1018,5 hPa 0,0 l/m 14,5 km/h (3 Bft) O-SO 112 1 min 0,000 mm 5,6 UV-I 879 W/m 8,8 C 14,2 C 20,9 km/h (4 Bft) 95,65 %
03.06.2023 12:04 17,5 C 23,3 C 16,1 C 16,1 C 15,0 C 57 % 87 cb 57 cb 32 cb 1018,5 hPa 0,0 l/m 8,0 km/h (2 Bft) O 90 1 min 0,000 mm 5,5 UV-I 879 W/m 8,9 C 16,7 C 12,9 km/h (3 Bft) 95,65 %
03.06.2023 12:03 17,5 C 23,3 C 16,1 C 16,1 C 15,0 C 56 % 87 cb 57 cb 32 cb 1018,4 hPa 0,0 l/m 12,9 km/h (3 Bft) O 90 1 min 0,000 mm 5,6 UV-I 881 W/m 8,6 C 14,9 C 17,7 km/h (3 Bft) 95,65 %
03.06.2023 12:02 17,6 C 23,3 C 16,1 C 16,1 C 15,0 C 58 % 87 cb 57 cb 32 cb 1018,5 hPa 0,0 l/m 14,5 km/h (3 Bft) O-SO 112 1 min 0,000 mm 5,6 UV-I 881 W/m 9,2 C 14,5 C 19,3 km/h (3 Bft) 100,00 %
03.06.2023 12:01 17,6 C 23,3 C 16,1 C 16,1 C 15,0 C 57 % 87 cb 57 cb 32 cb 1018,5 hPa 0,0 l/m 11,3 km/h (2 Bft) O-SO 112 1 min 0,000 mm 5,5 UV-I 881 W/m 9,0 C 15,5 C 14,5 km/h (3 Bft) 95,65 %
03.06.2023 12:00 17,5 C 22,8 C 16,1 C 16,1 C 15,0 C 58 % 87 cb 57 cb 32 cb 1018,6 hPa 0,0 l/m 16,1 km/h (3 Bft) O-SO 112 1 min 0,533 mm 5,5 UV-I 886 W/m 9,1 C 13,9 C 20,9 km/h (4 Bft) 95,65 %
03.06.2023 11:59 17,4 C 23,3 C 16,1 C 16,1 C 15,0 C 59 % 87 cb 57 cb 32 cb 1018,6 hPa 0,0 l/m 19,3 km/h (3 Bft) O-SO 112 1 min 0,000 mm 5,5 UV-I 884 W/m 9,3 C 13,0 C 25,7 km/h (4 Bft) 95,65 %
03.06.2023 11:58 17,4 C 23,3 C 16,1 C 16,1 C 15,0 C 58 % 87 cb 57 cb 32 cb 1018,7 hPa 0,0 l/m 17,7 km/h (3 Bft) O-SO 112 1 min 0,000 mm 5,5 UV-I 881 W/m 9,1 C 13,4 C 24,1 km/h (4 Bft) 95,65 %
03.06.2023 11:57 17,3 C 23,9 C 16,1 C 16,1 C 15,0 C 57 % 87 cb 57 cb 32 cb 1018,6 hPa 0,0 l/m 17,7 km/h (3 Bft) O-SO 112 1 min 0,000 mm 5,5 UV-I 879 W/m 8,7 C 13,3 C 25,7 km/h (4 Bft) 91,30 %
03.06.2023 11:56 17,4 C 23,3 C 16,1 C 16,1 C 15,0 C 55 % 87 cb 57 cb 32 cb 1018,7 hPa 0,0 l/m 12,9 km/h (3 Bft) O 90 1 min 0,000 mm 5,5 UV-I 875 W/m 8,3 C 14,7 C 17,7 km/h (3 Bft) 100,00 %
03.06.2023 11:55 17,4 C 23,9 C 16,1 C 16,1 C 15,0 C 55 % 87 cb 57 cb 32 cb 1018,7 hPa 0,0 l/m 16,1 km/h (3 Bft) O-NO 67 1 min 0,000 mm 5,4 UV-I 872 W/m 8,3 C 13,8 C 20,9 km/h (4 Bft) 95,65 %
03.06.2023 11:54 17,6 C 23,9 C 16,1 C 16,1 C 15,0 C 55 % 87 cb 57 cb 32 cb 1018,7 hPa 0,0 l/m 16,1 km/h (3 Bft) O-NO 67 1 min 0,000 mm 5,4 UV-I 870 W/m 8,5 C 14,0 C 22,5 km/h (4 Bft) 95,65 %
03.06.2023 11:53 17,6 C 23,9 C 16,1 C 16,1 C 15,0 C 56 % 87 cb 57 cb 32 cb 1018,6 hPa 0,0 l/m 12,9 km/h (3 Bft) O-NO 67 1 min 0,000 mm 5,4 UV-I 870 W/m 8,7 C 15,0 C 19,3 km/h (3 Bft) 95,65 %
03.06.2023 11:52 17,6 C 23,9 C 16,1 C 16,1 C 15,0 C 57 % 87 cb 57 cb 32 cb 1018,5 hPa 0,0 l/m 16,1 km/h (3 Bft) SO 135 1 min 0,000 mm 5,4 UV-I 867 W/m 9,0 C 14,0 C 25,7 km/h (4 Bft) 100,00 %
03.06.2023 11:51 17,6 C 23,9 C 16,1 C 16,1 C 15,0 C 57 % 87 cb 57 cb 32 cb 1018,6 hPa 0,0 l/m 16,1 km/h (3 Bft) O-SO 112 1 min 0,000 mm 5,4 UV-I 863 W/m 9,0 C 14,0 C 27,4 km/h (4 Bft) 91,30 %
03.06.2023 11:50 17,5 C 23,9 C 16,1 C 16,1 C 15,0 C 57 % 87 cb 57 cb 32 cb 1018,7 hPa 0,0 l/m 9,7 km/h (2 Bft) SO 135 1 min 0,000 mm 5,4 UV-I 860 W/m 8,9 C 16,0 C 12,9 km/h (3 Bft) 95,65 %
03.06.2023 11:49 17,6 C 23,9 C 16,1 C 16,1 C 15,0 C 55 % 87 cb 57 cb 32 cb 1018,7 hPa 0,0 l/m 14,5 km/h (3 Bft) O 90 1 min 0,000 mm 5,3 UV-I 851 W/m 8,5 C 14,5 C 22,5 km/h (4 Bft) 95,65 %
03.06.2023 11:48 17,7 C 23,9 C 16,1 C 16,1 C 15,0 C 55 % 87 cb 57 cb 32 cb 1018,8 hPa 0,0 l/m 17,7 km/h (3 Bft) O-SO 112 1 min 0,000 mm 5,2 UV-I 823 W/m 8,5 C 13,8 C 22,5 km/h (4 Bft) 86,96 %
03.06.2023 11:47 17,8 C 23,9 C 16,1 C 16,1 C 15,0 C 56 % 87 cb 57 cb 32 cb 1018,6 hPa 0,0 l/m 17,7 km/h (3 Bft) O-SO 112 1 min 0,000 mm 5,3 UV-I 847 W/m 8,9 C 13,9 C 22,5 km/h (4 Bft) 95,65 %
03.06.2023 11:46 17,8 C 24,4 C 16,1 C 16,1 C 15,0 C 57 % 87 cb 57 cb 32 cb 1018,7 hPa 0,0 l/m 17,7 km/h (3 Bft) O-SO 112 1 min 0,000 mm 5,3 UV-I 853 W/m 9,2 C 13,9 C 24,1 km/h (4 Bft) 100,00 %
03.06.2023 11:45 17,8 C 24,4 C 16,1 C 16,1 C 15,0 C 57 % 87 cb 57 cb 32 cb 1018,8 hPa 0,0 l/m 16,1 km/h (3 Bft) O-SO 112 1 min 0,000 mm 5,3 UV-I 849 W/m 9,2 C 14,3 C 25,7 km/h (4 Bft) 95,65 %
03.06.2023 11:44 17,7 C 24,4 C 16,1 C 16,1 C 15,0 C 57 % 87 cb 57 cb 32 cb 1018,8 hPa 0,0 l/m 14,5 km/h (3 Bft) SO 135 1 min 0,000 mm 5,3 UV-I 849 W/m 9,1 C 14,6 C 17,7 km/h (3 Bft) 95,65 %
03.06.2023 11:43 17,7 C 23,9 C 16,1 C 16,1 C 15,0 C 59 % 87 cb 57 cb 32 cb 1018,8 hPa 0,0 l/m 14,5 km/h (3 Bft) SO 135 1 min 0,000 mm 5,3 UV-I 846 W/m 9,6 C 14,6 C 17,7 km/h (3 Bft) 100,00 %
03.06.2023 11:42 17,7 C 23,9 C 16,1 C 16,1 C 15,0 C 57 % 87 cb 57 cb 32 cb 1018,8 hPa 0,0 l/m 12,9 km/h (3 Bft) O-SO 112 1 min 0,000 mm 5,3 UV-I 858 W/m 9,1 C 15,1 C 16,1 km/h (3 Bft) 95,65 %
03.06.2023 11:41 17,7 C 23,9 C 16,1 C 16,1 C 15,0 C 56 % 87 cb 57 cb 32 cb 1018,7 hPa 0,0 l/m 11,3 km/h (2 Bft) O-SO 112 1 min 0,000 mm 5,2 UV-I 844 W/m 8,8 C 15,6 C 19,3 km/h (3 Bft) 95,65 %
03.06.2023 11:40 17,7 C 23,9 C 16,1 C 16,1 C 15,0 C 56 % 87 cb 57 cb 32 cb 1018,8 hPa 0,0 l/m 12,9 km/h (3 Bft) O 90 1 min 0,000 mm 5,2 UV-I 846 W/m 8,8 C 15,1 C 17,7 km/h (3 Bft) 95,65 %
03.06.2023 11:39 17,7 C 23,9 C 16,1 C 16,1 C 15,0 C 55 % 87 cb 57 cb 32 cb 1018,8 hPa 0,0 l/m 8,0 km/h (2 Bft) NO 45 1 min 0,000 mm 5,2 UV-I 847 W/m 8,5 C 16,9 C 16,1 km/h (3 Bft) 95,65 %
03.06.2023 11:38 17,7 C 23,9 C 16,1 C 16,1 C 15,0 C 56 % 87 cb 57 cb 32 cb 1018,8 hPa 0,0 l/m 11,3 km/h (2 Bft) O 90 1 min 0,000 mm 5,2 UV-I 846 W/m 8,8 C 15,6 C 14,5 km/h (3 Bft) 86,96 %
03.06.2023 11:37 17,8 C 23,3 C 16,1 C 16,1 C 15,0 C 58 % 87 cb 57 cb 32 cb 1018,8 hPa 0,0 l/m 11,3 km/h (2 Bft) O 90 1 min 0,000 mm 5,3 UV-I 853 W/m 9,4 C 15,7 C 16,1 km/h (3 Bft) 100,00 %
03.06.2023 11:36 17,8 C 23,9 C 16,1 C 16,1 C 15,0 C 58 % 87 cb 57 cb 32 cb 1018,7 hPa 0,0 l/m 14,5 km/h (3 Bft) SO 135 1 min 0,000 mm 5,2 UV-I 849 W/m 9,4 C 14,7 C 20,9 km/h (4 Bft) 95,65 %
03.06.2023 11:35 17,7 C 23,9 C 16,1 C 16,1 C 15,0 C 56 % 87 cb 57 cb 32 cb 1018,7 hPa 0,0 l/m 17,7 km/h (3 Bft) O-SO 112 1 min 0,000 mm 5,2 UV-I 840 W/m 8,8 C 13,8 C 24,1 km/h (4 Bft) 91,30 %
03.06.2023 11:34 17,7 C 23,9 C 16,1 C 16,1 C 15,0 C 59 % 87 cb 57 cb 32 cb 1018,7 hPa 0,0 l/m 11,3 km/h (2 Bft) SO 135 1 min 0,000 mm 5,1 UV-I 840 W/m 9,6 C 15,6 C 16,1 km/h (3 Bft) 100,00 %
03.06.2023 11:33 17,7 C 23,9 C 16,1 C 16,1 C 15,0 C 57 % 87 cb 57 cb 32 cb 1018,8 hPa 0,0 l/m 12,9 km/h (3 Bft) O 90 1 min 0,000 mm 5,1 UV-I 838 W/m 9,1 C 15,1 C 16,1 km/h (3 Bft) 95,65 %
03.06.2023 11:32 17,6 C 23,9 C 16,1 C 16,1 C 15,0 C 57 % 87 cb 57 cb 32 cb 1018,8 hPa 0,0 l/m 11,3 km/h (2 Bft) NO 45 1 min 0,000 mm 5,1 UV-I 842 W/m 9,0 C 15,5 C 16,1 km/h (3 Bft) 95,65 %
03.06.2023 11:31 17,6 C 23,9 C 16,1 C 16,1 C 15,0 C 58 % 87 cb 57 cb 32 cb 1018,7 hPa 0,0 l/m 16,1 km/h (3 Bft) O-SO 112 1 min 0,000 mm 5,1 UV-I 840 W/m 9,2 C 14,0 C 20,9 km/h (4 Bft) 100,00 %
03.06.2023 11:30 17,5 C 23,9 C 16,1 C 16,1 C 15,0 C 59 % 87 cb 57 cb 32 cb 1018,8 hPa 0,0 l/m 14,5 km/h (3 Bft) SO 135 1 min 0,000 mm 5,1 UV-I 844 W/m 9,4 C 14,4 C 17,7 km/h (3 Bft) 95,65 %
03.06.2023 11:29 17,4 C 24,4 C 16,1 C 16,1 C 15,0 C 59 % 87 cb 57 cb 32 cb 1018,8 hPa 0,0 l/m 16,1 km/h (3 Bft) SO 135 1 min 0,000 mm 5,1 UV-I 842 W/m 9,3 C 13,8 C 20,9 km/h (4 Bft) 95,65 %
03.06.2023 11:28 17,4 C 24,4 C 16,1 C 16,1 C 15,0 C 56 % 87 cb 57 cb 32 cb 1018,7 hPa 0,0 l/m 12,9 km/h (3 Bft) O 90 1 min 0,000 mm 5,1 UV-I 842 W/m 8,5 C 14,7 C 22,5 km/h (4 Bft) 100,00 %
03.06.2023 11:27 17,4 C 24,4 C 16,1 C 16,1 C 15,0 C 58 % 87 cb 57 cb 32 cb 1018,8 hPa 0,0 l/m 9,7 km/h (2 Bft) O 90 1 min 0,000 mm 5,1 UV-I 842 W/m 9,1 C 15,9 C 17,7 km/h (3 Bft) 91,30 %
03.06.2023 11:26 17,3 C 23,9 C 16,1 C 16,1 C 15,0 C 59 % 87 cb 57 cb 32 cb 1018,7 hPa 0,0 l/m 12,9 km/h (3 Bft) O-SO 112 1 min 0,000 mm 5,1 UV-I 838 W/m 9,2 C 14,6 C 16,1 km/h (3 Bft) 95,65 %
03.06.2023 11:25 17,3 C 23,9 C 16,1 C 16,1 C 15,0 C 57 % 87 cb 57 cb 32 cb 1018,8 hPa 0,0 l/m 16,1 km/h (3 Bft) SO 135 1 min 0,000 mm 5,0 UV-I 831 W/m 8,7 C 13,7 C 22,5 km/h (4 Bft) 100,00 %
03.06.2023 11:24 17,2 C 23,3 C 16,1 C 16,1 C 15,0 C 57 % 87 cb 57 cb 32 cb 1018,8 hPa 0,0 l/m 14,5 km/h (3 Bft) SO 135 1 min 0,000 mm 5,0 UV-I 828 W/m 8,6 C 14,0 C 19,3 km/h (3 Bft) 91,30 %
03.06.2023 11:23 17,1 C 22,8 C 16,1 C 16,1 C 15,0 C 58 % 87 cb 57 cb 32 cb 1018,7 hPa 0,0 l/m 8,0 km/h (2 Bft) SO 135 1 min 0,000 mm 5,0 UV-I 830 W/m 8,8 C 16,3 C 12,9 km/h (3 Bft) 95,65 %
03.06.2023 11:22 17,1 C 22,2 C 16,1 C 16,1 C 15,0 C 56 % 87 cb 57 cb 32 cb 1018,8 hPa 0,0 l/m 8,0 km/h (2 Bft) O-NO 67 1 min 0,000 mm 5,0 UV-I 830 W/m 8,3 C 16,3 C 12,9 km/h (3 Bft) 95,65 %
03.06.2023 11:21 17,1 C 22,2 C 16,1 C 16,1 C 15,0 C 55 % 87 cb 57 cb 32 cb 1018,8 hPa 0,0 l/m 14,5 km/h (3 Bft) O-SO 112 1 min 0,000 mm 4,9 UV-I 831 W/m 8,0 C 13,9 C 19,3 km/h (3 Bft) 95,65 %
03.06.2023 11:20 17,2 C 22,2 C 16,1 C 16,1 C 15,0 C 55 % 87 cb 57 cb 32 cb 1018,8 hPa 0,0 l/m 16,1 km/h (3 Bft) O-SO 112 1 min 0,000 mm 4,9 UV-I 833 W/m 8,1 C 13,5 C 22,5 km/h (4 Bft) 95,65 %
03.06.2023 11:19 17,2 C 22,2 C 16,1 C 16,1 C 15,0 C 55 % 87 cb 57 cb 32 cb 1018,8 hPa 0,0 l/m 20,9 km/h (4 Bft) O-SO 112 1 min 0,000 mm 4,9 UV-I 830 W/m 8,1 C 12,4 C 27,4 km/h (4 Bft) 100,00 %
03.06.2023 11:18 17,3 C 22,2 C 16,1 C 16,1 C 15,0 C 56 % 87 cb 57 cb 32 cb 1018,8 hPa 0,0 l/m 22,5 km/h (4 Bft) O-SO 112 1 min 0,000 mm 4,9 UV-I 823 W/m 8,4 C 12,2 C 27,4 km/h (4 Bft) 95,65 %
03.06.2023 11:17 17,3 C 22,2 C 16,1 C 16,1 C 15,0 C 58 % 87 cb 57 cb 32 cb 1018,8 hPa 0,0 l/m 17,7 km/h (3 Bft) O-SO 112 1 min 0,000 mm 4,9 UV-I 821 W/m 9,0 C 13,3 C 22,5 km/h (4 Bft) 95,65 %
03.06.2023 11:16 17,2 C 22,2 C 16,1 C 16,1 C 15,0 C 58 % 87 cb 57 cb 32 cb 1018,8 hPa 0,0 l/m 17,7 km/h (3 Bft) O-SO 112 1 min 0,000 mm 4,9 UV-I 824 W/m 8,9 C 13,1 C 22,5 km/h (4 Bft) 100,00 %
03.06.2023 11:15 17,2 C 22,8 C 16,1 C 16,1 C 15,0 C 58 % 87 cb 57 cb 32 cb 1018,7 hPa 0,0 l/m 16,1 km/h (3 Bft) O-SO 112 1 min 0,000 mm 4,8 UV-I 798 W/m 8,9 C 13,5 C 20,9 km/h (4 Bft) 95,65 %
03.06.2023 11:14 17,2 C 22,8 C 16,1 C 16,1 C 15,0 C 59 % 87 cb 57 cb 32 cb 1018,7 hPa 0,0 l/m 16,1 km/h (3 Bft) O-SO 112 1 min 0,000 mm 4,8 UV-I 812 W/m 9,1 C 13,5 C 24,1 km/h (4 Bft) 91,30 %
03.06.2023 11:13 17,1 C 22,8 C 16,1 C 16,1 C 15,0 C 57 % 87 cb 57 cb 32 cb 1018,8 hPa 0,0 l/m 17,7 km/h (3 Bft) SO 135 1 min 0,000 mm 4,8 UV-I 821 W/m 8,5 C 13,0 C 24,1 km/h (4 Bft) 100,00 %
03.06.2023 11:12 17,1 C 22,8 C 16,1 C 16,1 C 15,0 C 58 % 87 cb 57 cb 32 cb 1018,7 hPa 0,0 l/m 17,7 km/h (3 Bft) SO 135 1 min 0,000 mm 4,8 UV-I 826 W/m 8,8 C 13,0 C 24,1 km/h (4 Bft) 95,65 %
03.06.2023 11:11 17,1 C 22,8 C 16,1 C 16,1 C 15,0 C 58 % 87 cb 57 cb 32 cb 1018,8 hPa 0,0 l/m 20,9 km/h (4 Bft) O-SO 112 1 min 0,000 mm 4,8 UV-I 824 W/m 8,8 C 12,3 C 24,1 km/h (4 Bft) 91,30 %
03.06.2023 11:10 17,2 C 22,8 C 16,1 C 16,1 C 15,0 C 57 % 87 cb 57 cb 32 cb 1018,7 hPa 0,0 l/m 17,7 km/h (3 Bft) O-SO 112 1 min 0,000 mm 4,8 UV-I 828 W/m 8,6 C 13,1 C 27,4 km/h (4 Bft) 100,00 %
03.06.2023 11:09 17,2 C 23,3 C 16,1 C 16,1 C 15,0 C 56 % 87 cb 57 cb 32 cb 1018,8 hPa 0,0 l/m 12,9 km/h (3 Bft) SO 135 1 min 0,000 mm 4,8 UV-I 817 W/m 8,3 C 14,5 C 16,1 km/h (3 Bft) 95,65 %
03.06.2023 11:08 17,3 C 23,3 C 16,1 C 16,1 C 15,0 C 56 % 87 cb 57 cb 32 cb 1018,8 hPa 0,0 l/m 16,1 km/h (3 Bft) O-SO 112 1 min 0,000 mm 4,8 UV-I 819 W/m 8,4 C 13,7 C 22,5 km/h (4 Bft) 95,65 %
03.06.2023 11:07 17,3 C 23,3 C 16,1 C 16,1 C 15,0 C 56 % 87 cb 57 cb 32 cb 1018,7 hPa 0,0 l/m 12,9 km/h (3 Bft) O 90 1 min 0,000 mm 4,8 UV-I 823 W/m 8,4 C 14,6 C 19,3 km/h (3 Bft) 95,65 %
03.06.2023 11:06 17,4 C 23,9 C 16,1 C 16,1 C 15,0 C 57 % 87 cb 57 cb 32 cb 1018,7 hPa 0,0 l/m 20,9 km/h (4 Bft) O-SO 112 1 min 0,000 mm 4,7 UV-I 817 W/m 8,8 C 12,7 C 29,0 km/h (5 Bft) 100,00 %
03.06.2023 11:05 17,4 C 24,4 C 16,1 C 16,1 C 15,0 C 57 % 87 cb 57 cb 32 cb 1018,7 hPa 0,0 l/m 20,9 km/h (4 Bft) O-SO 112 1 min 0,000 mm 4,7 UV-I 817 W/m 8,8 C 12,7 C 27,4 km/h (4 Bft) 95,65 %
03.06.2023 11:04 17,3 C 24,4 C 16,1 C 16,1 C 15,0 C 60 % 87 cb 57 cb 32 cb 1018,6 hPa 0,0 l/m 19,3 km/h (3 Bft) SO 135 1 min 0,000 mm 4,7 UV-I 828 W/m 9,5 C 12,9 C 24,1 km/h (4 Bft) 95,65 %
03.06.2023 11:03 17,2 C 24,4 C 16,1 C 16,1 C 15,0 C 58 % 87 cb 57 cb 32 cb 1018,7 hPa 0,0 l/m 16,1 km/h (3 Bft) SO 135 1 min 0,000 mm 4,7 UV-I 830 W/m 8,9 C 13,5 C 22,5 km/h (4 Bft) 100,00 %
03.06.2023 11:02 17,2 C 24,4 C 16,1 C 16,1 C 15,0 C 60 % 87 cb 57 cb 32 cb 1018,7 hPa 0,0 l/m 14,5 km/h (3 Bft) O-SO 112 1 min 0,000 mm 4,7 UV-I 838 W/m 9,4 C 14,0 C 24,1 km/h (4 Bft) 91,30 %
03.06.2023 11:01 17,2 C 23,9 C 16,1 C 16,1 C 15,0 C 60 % 87 cb 57 cb 32 cb 1018,7 hPa 0,0 l/m 4,8 km/h (1 Bft) O-SO 112 1 min 0,000 mm 4,7 UV-I 849 W/m 9,4 C 17,2 C 11,3 km/h (2 Bft) 95,65 %
03.06.2023 11:00 17,0 C 23,3 C 16,1 C 16,1 C 15,0 C 62 % 87 cb 57 cb 32 cb 1018,7 hPa 0,0 l/m 11,3 km/h (2 Bft) O-SO 112 1 min 0,483 mm 4,7 UV-I 854 W/m 9,7 C 14,8 C 16,1 km/h (3 Bft) 100,00 %
03.06.2023 10:59 16,9 C 23,3 C 16,1 C 16,1 C 15,0 C 60 % 87 cb 57 cb 32 cb 1018,7 hPa 0,0 l/m 14,5 km/h (3 Bft) SO 135 1 min 0,000 mm 4,7 UV-I 860 W/m 9,1 C 13,6 C 22,5 km/h (4 Bft) 91,30 %
03.06.2023 10:58 16,9 C 23,3 C 16,1 C 16,1 C 15,0 C 59 % 87 cb 57 cb 32 cb 1018,7 hPa 0,0 l/m 20,9 km/h (4 Bft) O-SO 112 1 min 0,000 mm 4,7 UV-I 865 W/m 8,8 C 12,0 C 25,7 km/h (4 Bft) 91,30 %
03.06.2023 10:57 16,8 C 22,8 C 16,1 C 16,1 C 15,0 C 60 % 87 cb 57 cb 32 cb 1018,8 hPa 0,0 l/m 16,1 km/h (3 Bft) O-SO 112 1 min 0,000 mm 4,3 UV-I 865 W/m 9,0 C 13,1 C 22,5 km/h (4 Bft) 100,00 %
03.06.2023 10:56 16,8 C 23,3 C 16,1 C 16,1 C 15,0 C 59 % 87 cb 57 cb 32 cb 1018,7 hPa 0,0 l/m 19,3 km/h (3 Bft) O-SO 112 1 min 0,000 mm 4,6 UV-I 865 W/m 8,7 C 12,2 C 22,5 km/h (4 Bft) 91,30 %
03.06.2023 10:55 16,8 C 23,3 C 16,1 C 16,1 C 15,0 C 58 % 87 cb 57 cb 32 cb 1018,8 hPa 0,0 l/m 17,7 km/h (3 Bft) O-SO 112 1 min 0,000 mm 4,6 UV-I 849 W/m 8,5 C 12,6 C 24,1 km/h (4 Bft) 95,65 %
03.06.2023 10:54 16,8 C 23,3 C 16,1 C 16,1 C 15,0 C 60 % 87 cb 57 cb 32 cb 1018,7 hPa 0,0 l/m 17,7 km/h (3 Bft) O-SO 112 1 min 0,000 mm 4,5 UV-I 828 W/m 9,0 C 12,6 C 24,1 km/h (4 Bft) 100,00 %
03.06.2023 10:53 16,7 C 23,3 C 16,1 C 16,1 C 15,0 C 60 % 87 cb 57 cb 32 cb 1018,7 hPa 0,0 l/m 16,1 km/h (3 Bft) SO 135 1 min 0,000 mm 4,5 UV-I 817 W/m 8,9 C 12,9 C 22,5 km/h (4 Bft) 95,65 %
03.06.2023 10:52 16,7 C 23,3 C 16,1 C 16,1 C 15,0 C 58 % 87 cb 57 cb 32 cb 1018,8 hPa 0,0 l/m 16,1 km/h (3 Bft) SO 135 1 min 0,000 mm 4,5 UV-I 810 W/m 8,4 C 12,9 C 22,5 km/h (4 Bft) 91,30 %
03.06.2023 10:51 16,7 C 23,3 C 16,1 C 16,1 C 15,0 C 57 % 87 cb 57 cb 32 cb 1018,8 hPa 0,0 l/m 17,7 km/h (3 Bft) SO 135 1 min 0,000 mm 4,4 UV-I 805 W/m 8,1 C 12,5 C 27,4 km/h (4 Bft) 100,00 %
03.06.2023 10:50 16,8 C 23,3 C 16,1 C 16,1 C 15,0 C 56 % 87 cb 57 cb 32 cb 1018,7 hPa 0,0 l/m 16,1 km/h (3 Bft) O-SO 112 1 min 0,000 mm 4,4 UV-I 802 W/m 8,0 C 13,1 C 20,9 km/h (4 Bft) 95,65 %
03.06.2023 10:49 17,0 C 23,3 C 16,1 C 16,1 C 15,0 C 57 % 87 cb 57 cb 32 cb 1018,8 hPa 0,0 l/m 16,1 km/h (3 Bft) O 90 1 min 0,000 mm 4,4 UV-I 800 W/m 8,4 C 13,3 C 27,4 km/h (4 Bft) 95,65 %
03.06.2023 10:48 17,1 C 23,3 C 16,1 C 16,1 C 15,0 C 57 % 87 cb 57 cb 32 cb 1018,7 hPa 0,0 l/m 11,3 km/h (2 Bft) O-SO 112 1 min 0,000 mm 4,4 UV-I 796 W/m 8,5 C 14,9 C 14,5 km/h (3 Bft) 100,00 %
03.06.2023 10:47 17,1 C 23,3 C 16,1 C 16,1 C 15,0 C 58 % 87 cb 57 cb 32 cb 1018,7 hPa 0,0 l/m 12,9 km/h (3 Bft) SO 135 1 min 0,000 mm 4,4 UV-I 793 W/m 8,8 C 14,4 C 17,7 km/h (3 Bft) 95,65 %
03.06.2023 10:46 17,1 C 22,8 C 16,1 C 16,1 C 15,0 C 60 % 87 cb 57 cb 32 cb 1018,7 hPa 0,0 l/m 11,3 km/h (2 Bft) O 90 1 min 0,000 mm 4,4 UV-I 786 W/m 9,3 C 14,9 C 17,7 km/h (3 Bft) 91,30 %
03.06.2023 10:45 17,1 C 23,3 C 16,1 C 16,1 C 15,0 C 59 % 87 cb 57 cb 32 cb 1018,6 hPa 0,0 l/m 14,5 km/h (3 Bft) SO 135 1 min 0,000 mm 4,3 UV-I 780 W/m 9,0 C 13,9 C 24,1 km/h (4 Bft) 100,00 %
03.06.2023 10:44 17,1 C 23,3 C 16,1 C 16,1 C 15,0 C 59 % 87 cb 57 cb 32 cb 1018,7 hPa 0,0 l/m 19,3 km/h (3 Bft) SO 135 1 min 0,000 mm 4,3 UV-I 780 W/m 9,0 C 12,6 C 24,1 km/h (4 Bft) 91,30 %
03.06.2023 10:43 16,9 C 22,8 C 16,1 C 16,1 C 15,0 C 59 % 87 cb 57 cb 32 cb 1018,7 hPa 0,0 l/m 16,1 km/h (3 Bft) SO 135 1 min 0,000 mm 4,3 UV-I 777 W/m 8,8 C 13,2 C 20,9 km/h (4 Bft) 95,65 %
03.06.2023 10:42 16,8 C 22,8 C 16,1 C 16,1 C 15,0 C 59 % 87 cb 57 cb 32 cb 1018,6 hPa 0,0 l/m 12,9 km/h (3 Bft) S-SO 157 1 min 0,000 mm 4,2 UV-I 770 W/m 8,7 C 14,0 C 22,5 km/h (4 Bft) 95,65 %
03.06.2023 10:41 16,8 C 22,2 C 16,1 C 16,1 C 15,0 C 60 % 87 cb 57 cb 32 cb 1018,7 hPa 0,0 l/m 14,5 km/h (3 Bft) SO 135 1 min 0,000 mm 4,2 UV-I 766 W/m 9,0 C 13,5 C 19,3 km/h (3 Bft) 95,65 %
03.06.2023 10:40 16,7 C 22,8 C 16,1 C 16,1 C 15,0 C 58 % 87 cb 57 cb 32 cb 1018,7 hPa 0,0 l/m 19,3 km/h (3 Bft) SO 135 1 min 0,000 mm 4,2 UV-I 766 W/m 8,4 C 12,1 C 22,5 km/h (4 Bft) 95,65 %
03.06.2023 10:39 16,8 C 22,8 C 16,1 C 16,1 C 15,0 C 59 % 87 cb 57 cb 32 cb 1018,7 hPa 0,0 l/m 16,1 km/h (3 Bft) S-SO 157 1 min 0,000 mm 4,2 UV-I 768 W/m 8,7 C 13,1 C 22,5 km/h (4 Bft) 95,65 %
03.06.2023 10:38 16,7 C 22,2 C 16,1 C 16,1 C 15,0 C 61 % 87 cb 57 cb 32 cb 1018,8 hPa 0,0 l/m 14,5 km/h (3 Bft) SO 135 1 min 0,000 mm 4,1 UV-I 765 W/m 9,1 C 13,4 C 19,3 km/h (3 Bft) 95,65 %
03.06.2023 10:37 16,6 C 22,2 C 16,1 C 16,1 C 15,0 C 61 % 87 cb 57 cb 32 cb 1018,7 hPa 0,0 l/m 9,7 km/h (2 Bft) SO 135 1 min 0,000 mm 4,1 UV-I 766 W/m 9,0 C 15,0 C 12,9 km/h (3 Bft) 95,65 %
03.06.2023 10:36 16,6 C 22,2 C 16,1 C 16,1 C 15,0 C 61 % 87 cb 57 cb 32 cb 1018,8 hPa 0,0 l/m 14,5 km/h (3 Bft) SO 135 1 min 0,000 mm 4,1 UV-I 763 W/m 9,0 C 13,3 C 20,9 km/h (4 Bft) 100,00 %
03.06.2023 10:35 16,6 C 22,2 C 16,1 C 16,1 C 15,0 C 60 % 87 cb 57 cb 32 cb 1018,7 hPa 0,0 l/m 19,3 km/h (3 Bft) O-SO 112 1 min 0,000 mm 4,1 UV-I 759 W/m 8,8 C 12,0 C 24,1 km/h (4 Bft) 91,30 %
03.06.2023 10:34 16,6 C 22,2 C 16,1 C 16,1 C 15,0 C 58 % 87 cb 57 cb 32 cb 1018,8 hPa 0,0 l/m 16,1 km/h (3 Bft) O-SO 112 1 min 0,000 mm 4,1 UV-I 761 W/m 8,3 C 12,8 C 25,7 km/h (4 Bft) 95,65 %
03.06.2023 10:33 16,6 C 22,2 C 16,1 C 16,1 C 15,0 C 59 % 87 cb 57 cb 32 cb 1018,7 hPa 0,0 l/m 12,9 km/h (3 Bft) O-SO 112 1 min 0,000 mm 4,1 UV-I 759 W/m 8,6 C 13,8 C 16,1 km/h (3 Bft) 95,65 %
03.06.2023 10:32 16,6 C 22,2 C 16,1 C 16,1 C 15,0 C 58 % 87 cb 57 cb 32 cb 1018,6 hPa 0,0 l/m 14,5 km/h (3 Bft) O-SO 112 1 min 0,000 mm 4,0 UV-I 759 W/m 8,3 C 13,3 C 20,9 km/h (4 Bft) 95,65 %
03.06.2023 10:31 16,6 C 22,2 C 16,1 C 16,1 C 15,0 C 58 % 87 cb 57 cb 32 cb 1018,6 hPa 0,0 l/m 14,5 km/h (3 Bft) O-SO 112 1 min 0,000 mm 4,0 UV-I 758 W/m 8,3 C 13,3 C 20,9 km/h (4 Bft) 95,65 %
03.06.2023 10:30 16,6 C 22,2 C 16,1 C 16,1 C 15,0 C 58 % 87 cb 57 cb 32 cb 1018,7 hPa 0,0 l/m 17,7 km/h (3 Bft) O-SO 112 1 min 0,000 mm 4,0 UV-I 754 W/m 8,3 C 12,4 C 22,5 km/h (4 Bft) 100,00 %
03.06.2023 10:29 16,6 C 22,2 C 16,1 C 16,1 C 15,0 C 59 % 87 cb 57 cb 32 cb 1018,7 hPa 0,0 l/m 16,1 km/h (3 Bft) SO 135 1 min 0,000 mm 4,0 UV-I 749 W/m 8,6 C 12,8 C 25,7 km/h (4 Bft) 95,65 %
03.06.2023 10:28 16,6 C 22,2 C 16,1 C 16,1 C 15,0 C 58 % 87 cb 57 cb 32 cb 1018,6 hPa 0,0 l/m 14,5 km/h (3 Bft) O-SO 112 1 min 0,000 mm 4,0 UV-I 749 W/m 8,3 C 13,3 C 20,9 km/h (4 Bft) 91,30 %
03.06.2023 10:27 16,5 C 21,7 C 16,1 C 16,1 C 15,0 C 59 % 87 cb 57 cb 32 cb 1018,6 hPa 0,0 l/m 17,7 km/h (3 Bft) O-SO 112 1 min 0,000 mm 3,9 UV-I 747 W/m 8,5 C 12,3 C 24,1 km/h (4 Bft) 100,00 %
03.06.2023 10:26 16,5 C 22,2 C 16,1 C 16,1 C 15,0 C 59 % 87 cb 57 cb 32 cb 1018,5 hPa 0,0 l/m 19,3 km/h (3 Bft) O-SO 112 1 min 0,000 mm 3,9 UV-I 747 W/m 8,5 C 11,9 C 25,7 km/h (4 Bft) 86,96 %
03.06.2023 10:25 16,5 C 22,2 C 16,1 C 16,1 C 15,0 C 58 % 87 cb 57 cb 32 cb 1018,6 hPa 0,0 l/m 19,3 km/h (3 Bft) SO 135 1 min 0,000 mm 3,9 UV-I 745 W/m 8,2 C 11,9 C 24,1 km/h (4 Bft) 95,65 %
03.06.2023 10:24 16,5 C 22,2 C 16,1 C 16,1 C 15,0 C 57 % 87 cb 57 cb 32 cb 1018,6 hPa 0,0 l/m 19,3 km/h (3 Bft) SO 135 1 min 0,000 mm 3,9 UV-I 738 W/m 8,0 C 11,9 C 25,7 km/h (4 Bft) 100,00 %
03.06.2023 10:23 16,6 C 22,2 C 16,1 C 16,1 C 15,0 C 57 % 87 cb 57 cb 32 cb 1018,7 hPa 0,0 l/m 17,7 km/h (3 Bft) O-SO 112 1 min 0,000 mm 3,9 UV-I 733 W/m 8,0 C 12,4 C 22,5 km/h (4 Bft) 95,65 %
03.06.2023 10:22 16,6 C 22,2 C 16,1 C 16,1 C 15,0 C 59 % 87 cb 57 cb 32 cb 1018,6 hPa 0,0 l/m 16,1 km/h (3 Bft) SO 135 1 min 0,000 mm 3,8 UV-I 733 W/m 8,6 C 12,8 C 22,5 km/h (4 Bft) 95,65 %
03.06.2023 10:21 16,5 C 22,2 C 16,1 C 16,1 C 15,0 C 60 % 87 cb 57 cb 32 cb 1018,7 hPa 0,0 l/m 16,1 km/h (3 Bft) SO 135 1 min 0,000 mm 3,8 UV-I 731 W/m 8,7 C 12,7 C 22,5 km/h (4 Bft) 95,65 %
03.06.2023 10:20 16,4 C 22,2 C 16,1 C 16,1 C 15,0 C 59 % 87 cb 57 cb 32 cb 1018,7 hPa 0,0 l/m 12,9 km/h (3 Bft) SO 135 1 min 0,000 mm 3,8 UV-I 731 W/m 8,4 C 13,6 C 16,1 km/h (3 Bft) 95,65 %
03.06.2023 10:19 16,3 C 22,2 C 16,1 C 16,1 C 15,0 C 60 % 87 cb 57 cb 32 cb 1018,7 hPa 0,0 l/m 12,9 km/h (3 Bft) SO 135 1 min 0,000 mm 3,8 UV-I 728 W/m 8,5 C 13,4 C 16,1 km/h (3 Bft) 95,65 %
03.06.2023 10:18 16,3 C 22,2 C 16,1 C 16,1 C 15,0 C 60 % 87 cb 57 cb 32 cb 1018,7 hPa 0,0 l/m 16,1 km/h (3 Bft) O-SO 112 1 min 0,000 mm 3,7 UV-I 724 W/m 8,5 C 12,4 C 20,9 km/h (4 Bft) 95,65 %
03.06.2023 10:17 16,3 C 22,2 C 16,1 C 16,1 C 15,0 C 61 % 87 cb 57 cb 32 cb 1018,7 hPa 0,0 l/m 19,3 km/h (3 Bft) O-SO 112 1 min 0,000 mm 3,7 UV-I 722 W/m 8,8 C 11,6 C 24,1 km/h (4 Bft) 100,00 %
03.06.2023 10:16 16,2 C 22,2 C 16,1 C 16,1 C 15,0 C 60 % 87 cb 57 cb 32 cb 1018,7 hPa 0,0 l/m 14,5 km/h (3 Bft) SO 135 1 min 0,000 mm 3,7 UV-I 721 W/m 8,4 C 12,8 C 20,9 km/h (4 Bft) 91,30 %
03.06.2023 10:15 16,2 C 22,2 C 16,1 C 16,1 C 15,0 C 58 % 87 cb 57 cb 32 cb 1018,7 hPa 0,0 l/m 16,1 km/h (3 Bft) O-SO 112 1 min 0,000 mm 3,7 UV-I 719 W/m 7,9 C 12,3 C 20,9 km/h (4 Bft) 95,65 %
03.06.2023 10:14 16,2 C 22,2 C 16,1 C 16,1 C 15,0 C 58 % 87 cb 57 cb 32 cb 1018,7 hPa 0,0 l/m 17,7 km/h (3 Bft) O 90 1 min 0,000 mm 3,7 UV-I 715 W/m 7,9 C 11,9 C 22,5 km/h (4 Bft) 95,65 %
03.06.2023 10:13 16,2 C 22,2 C 16,1 C 16,1 C 15,0 C 59 % 87 cb 57 cb 32 cb 1018,7 hPa 0,0 l/m 11,3 km/h (2 Bft) O-SO 112 1 min 0,000 mm 3,6 UV-I 714 W/m 8,2 C 13,9 C 16,1 km/h (3 Bft) 91,30 %
03.06.2023 10:12 16,2 C 22,2 C 16,1 C 16,1 C 15,0 C 58 % 87 cb 57 cb 32 cb 1018,6 hPa 0,0 l/m 12,9 km/h (3 Bft) O-SO 112 1 min 0,000 mm 3,6 UV-I 708 W/m 7,9 C 13,3 C 19,3 km/h (3 Bft) 95,65 %
03.06.2023 10:11 16,2 C 21,7 C 16,1 C 16,1 C 15,0 C 58 % 87 cb 57 cb 32 cb 1018,8 hPa 0,0 l/m 12,9 km/h (3 Bft) O 90 1 min 0,000 mm 3,6 UV-I 707 W/m 7,9 C 13,3 C 17,7 km/h (3 Bft) 100,00 %
03.06.2023 10:10 16,2 C 21,7 C 16,1 C 16,1 C 15,0 C 58 % 88 cb 57 cb 32 cb 1018,8 hPa 0,0 l/m 14,5 km/h (3 Bft) O-SO 112 1 min 0,000 mm 3,6 UV-I 705 W/m 7,9 C 12,8 C 19,3 km/h (3 Bft) 91,30 %
03.06.2023 10:09 16,2 C 21,7 C 16,1 C 16,1 C 15,0 C 59 % 88 cb 57 cb 32 cb 1018,8 hPa 0,0 l/m 22,5 km/h (4 Bft) O-SO 112 1 min 0,000 mm 3,6 UV-I 707 W/m 8,2 C 10,7 C 27,4 km/h (4 Bft) 95,65 %
03.06.2023 10:08 16,2 C 22,2 C 16,1 C 16,1 C 15,0 C 58 % 88 cb 57 cb 32 cb 1018,7 hPa 0,0 l/m 20,9 km/h (4 Bft) O-SO 112 1 min 0,000 mm 3,5 UV-I 707 W/m 7,9 C 11,1 C 27,4 km/h (4 Bft) 100,00 %
03.06.2023 10:07 16,2 C 21,7 C 16,1 C 16,1 C 15,0 C 60 % 88 cb 57 cb 32 cb 1018,8 hPa 0,0 l/m 17,7 km/h (3 Bft) SO 135 1 min 0,000 mm 3,5 UV-I 700 W/m 8,4 C 11,9 C 20,9 km/h (4 Bft) 95,65 %
03.06.2023 10:06 16,2 C 21,7 C 16,1 C 16,1 C 15,0 C 60 % 88 cb 57 cb 32 cb 1018,8 hPa 0,0 l/m 19,3 km/h (3 Bft) SO 135 1 min 0,000 mm 3,5 UV-I 696 W/m 8,4 C 11,5 C 25,7 km/h (4 Bft) 91,30 %
03.06.2023 10:05 16,2 C 21,7 C 16,1 C 16,1 C 15,0 C 60 % 88 cb 57 cb 32 cb 1018,8 hPa 0,0 l/m 17,7 km/h (3 Bft) O-SO 112 1 min 0,000 mm 3,5 UV-I 696 W/m 8,4 C 11,9 C 25,7 km/h (4 Bft) 95,65 %
03.06.2023 10:04 16,1 C 21,7 C 16,1 C 16,1 C 15,0 C 61 % 88 cb 57 cb 32 cb 1018,8 hPa 0,0 l/m 19,3 km/h (3 Bft) SO 135 1 min 0,000 mm 3,5 UV-I 694 W/m 8,6 C 11,3 C 27,4 km/h (4 Bft) 91,30 %
03.06.2023 10:03 16,0 C 21,7 C 16,1 C 16,1 C 15,0 C 60 % 88 cb 57 cb 32 cb 1018,9 hPa 0,0 l/m 11,3 km/h (2 Bft) SO 135 1 min 0,000 mm 3,4 UV-I 694 W/m 8,2 C 13,7 C 16,1 km/h (3 Bft) 95,65 %
03.06.2023 10:02 15,9 C 21,1 C 16,1 C 16,1 C 15,0 C 59 % 88 cb 57 cb 32 cb 1018,9 hPa 0,0 l/m 14,5 km/h (3 Bft) O-SO 112 1 min 0,000 mm 3,4 UV-I 693 W/m 7,9 C 12,4 C 19,3 km/h (3 Bft) 95,65 %
03.06.2023 10:01 15,9 C 21,1 C 16,1 C 16,1 C 15,0 C 61 % 88 cb 57 cb 32 cb 1018,8 hPa 0,0 l/m 19,3 km/h (3 Bft) SO 135 1 min 0,000 mm 3,4 UV-I 684 W/m 8,4 C 11,1 C 25,7 km/h (4 Bft) 95,65 %
03.06.2023 10:00 15,8 C 21,1 C 16,1 C 16,1 C 15,0 C 61 % 88 cb 57 cb 32 cb 1018,7 hPa 0,0 l/m 17,7 km/h (3 Bft) SO 135 1 min 0,356 mm 3,3 UV-I 680 W/m 8,3 C 11,4 C 24,1 km/h (4 Bft) 91,30 %
03.06.2023 09:59 15,7 C 21,1 C 16,1 C 16,1 C 15,0 C 60 % 88 cb 57 cb 32 cb 1018,9 hPa 0,0 l/m 11,3 km/h (2 Bft) SO 135 1 min 0,000 mm 3,3 UV-I 673 W/m 8,0 C 13,3 C 22,5 km/h (4 Bft) 95,65 %
03.06.2023 09:58 15,7 C 20,6 C 16,1 C 16,1 C 15,0 C 60 % 88 cb 57 cb 32 cb 1018,9 hPa 0,0 l/m 12,9 km/h (3 Bft) O-NO 67 1 min 0,000 mm 3,3 UV-I 670 W/m 8,0 C 12,7 C 16,1 km/h (3 Bft) 95,65 %
03.06.2023 09:57 15,7 C 20,0 C 16,1 C 16,1 C 15,0 C 60 % 88 cb 56 cb 32 cb 1018,9 hPa 0,0 l/m 9,7 km/h (2 Bft) O-SO 112 1 min 0,000 mm 3,2 UV-I 666 W/m 8,0 C 14,0 C 16,1 km/h (3 Bft) 95,65 %
03.06.2023 09:56 15,6 C 20,0 C 16,1 C 16,1 C 15,0 C 60 % 88 cb 56 cb 32 cb 1018,7 hPa 0,0 l/m 14,5 km/h (3 Bft) O 90 1 min 0,000 mm 3,2 UV-I 663 W/m 7,9 C 12,1 C 25,7 km/h (4 Bft) 100,00 %
03.06.2023 09:55 15,6 C 20,0 C 16,1 C 16,1 C 15,0 C 59 % 88 cb 57 cb 32 cb 1018,8 hPa 0,0 l/m 14,5 km/h (3 Bft) O 90 1 min 0,000 mm 3,2 UV-I 668 W/m 7,6 C 12,1 C 25,7 km/h (4 Bft) 95,65 %
03.06.2023 09:54 15,6 C 20,0 C 16,1 C 16,1 C 15,0 C 59 % 88 cb 57 cb 32 cb 1018,7 hPa 0,0 l/m 11,3 km/h (2 Bft) O-NO 67 1 min 0,000 mm 3,2 UV-I 668 W/m 7,6 C 13,2 C 17,7 km/h (3 Bft) 91,30 %
03.06.2023 09:53 15,7 C 20,0 C 16,1 C 16,1 C 15,0 C 58 % 88 cb 57 cb 32 cb 1018,8 hPa 0,0 l/m 14,5 km/h (3 Bft) O 90 1 min 0,000 mm 3,2 UV-I 663 W/m 7,5 C 12,2 C 25,7 km/h (4 Bft) 100,00 %
03.06.2023 09:52 15,7 C 20,0 C 16,1 C 16,1 C 15,0 C 59 % 88 cb 56 cb 32 cb 1018,8 hPa 0,0 l/m 14,5 km/h (3 Bft) O-NO 67 1 min 0,000 mm 3,2 UV-I 656 W/m 7,7 C 12,2 C 25,7 km/h (4 Bft) 91,30 %
03.06.2023 09:51 15,7 C 20,0 C 16,1 C 16,1 C 15,0 C 61 % 88 cb 56 cb 32 cb 1018,8 hPa 0,0 l/m 14,5 km/h (3 Bft) O-SO 112 1 min 0,000 mm 3,1 UV-I 643 W/m 8,2 C 12,2 C 17,7 km/h (3 Bft) 95,65 %
03.06.2023 09:50 15,6 C 19,4 C 16,1 C 16,1 C 15,0 C 62 % 88 cb 56 cb 32 cb 1018,8 hPa 0,0 l/m 14,5 km/h (3 Bft) O-SO 112 1 min 0,000 mm 3,1 UV-I 608 W/m 8,3 C 12,1 C 20,9 km/h (4 Bft) 100,00 %
03.06.2023 09:49 15,4 C 19,4 C 16,1 C 16,1 C 15,0 C 62 % 88 cb 56 cb 32 cb 1018,8 hPa 0,0 l/m 12,9 km/h (3 Bft) SO 135 1 min 0,000 mm 3,0 UV-I 599 W/m 8,2 C 12,4 C 17,7 km/h (3 Bft) 95,65 %
03.06.2023 09:48 15,3 C 19,4 C 16,1 C 16,1 C 15,0 C 61 % 88 cb 56 cb 32 cb 1018,8 hPa 0,0 l/m 8,0 km/h (2 Bft) S-SO 157 1 min 0,000 mm 3,0 UV-I 605 W/m 7,8 C 14,4 C 12,9 km/h (3 Bft) 95,65 %
03.06.2023 09:47 15,3 C 18,9 C 16,1 C 16,1 C 15,0 C 59 % 88 cb 56 cb 32 cb 1018,8 hPa 0,0 l/m 9,7 km/h (2 Bft) SO 135 1 min 0,000 mm 3,0 UV-I 610 W/m 7,3 C 13,6 C 16,1 km/h (3 Bft) 100,00 %
03.06.2023 09:46 15,3 C 18,9 C 16,1 C 16,1 C 15,0 C 59 % 88 cb 56 cb 32 cb 1018,7 hPa 0,0 l/m 12,9 km/h (3 Bft) O-NO 67 1 min 0,000 mm 3,1 UV-I 606 W/m 7,3 C 12,3 C 17,7 km/h (3 Bft) 95,65 %
03.06.2023 09:45 15,3 C 18,9 C 16,1 C 16,1 C 15,0 C 60 % 88 cb 56 cb 32 cb 1018,8 hPa 0,0 l/m 12,9 km/h (3 Bft) O 90 1 min 0,000 mm 3,0 UV-I 594 W/m 7,6 C 12,3 C 19,3 km/h (3 Bft) 91,30 %
03.06.2023 09:44 15,3 C 18,9 C 16,1 C 16,1 C 15,0 C 59 % 88 cb 56 cb 32 cb 1018,7 hPa 0,0 l/m 12,9 km/h (3 Bft) O-NO 67 1 min 0,000 mm 3,0 UV-I 571 W/m 7,3 C 12,3 C 17,7 km/h (3 Bft) 100,00 %
03.06.2023 09:43 15,3 C 18,9 C 16,1 C 16,1 C 15,0 C 59 % 88 cb 56 cb 32 cb 1018,8 hPa 0,0 l/m 14,5 km/h (3 Bft) O 90 1 min 0,000 mm 3,0 UV-I 559 W/m 7,3 C 11,7 C 20,9 km/h (4 Bft) 91,30 %
03.06.2023 09:42 15,4 C 18,9 C 16,1 C 16,1 C 15,0 C 59 % 88 cb 56 cb 32 cb 1018,7 hPa 0,0 l/m 11,3 km/h (2 Bft) O-NO 67 1 min 0,000 mm 3,0 UV-I 554 W/m 7,4 C 13,0 C 19,3 km/h (3 Bft) 95,65 %
03.06.2023 09:41 15,4 C 18,9 C 16,1 C 16,1 C 15,0 C 59 % 88 cb 56 cb 32 cb 1018,7 hPa 0,0 l/m 14,5 km/h (3 Bft) O 90 1 min 0,000 mm 3,0 UV-I 541 W/m 7,4 C 11,8 C 19,3 km/h (3 Bft) 100,00 %
03.06.2023 09:40 15,3 C 18,9 C 16,1 C 16,1 C 15,0 C 60 % 88 cb 56 cb 32 cb 1018,8 hPa 0,0 l/m 12,9 km/h (3 Bft) O-NO 67 1 min 0,000 mm 2,9 UV-I 527 W/m 7,6 C 12,3 C 19,3 km/h (3 Bft) 95,65 %
03.06.2023 09:39 15,3 C 18,9 C 16,1 C 16,1 C 15,0 C 61 % 88 cb 56 cb 32 cb 1018,9 hPa 0,0 l/m 9,7 km/h (2 Bft) O-SO 112 1 min 0,000 mm 2,9 UV-I 520 W/m 7,8 C 13,6 C 17,7 km/h (3 Bft) 95,65 %
03.06.2023 09:38 15,3 C 18,9 C 16,1 C 16,1 C 15,0 C 59 % 88 cb 56 cb 32 cb 1018,7 hPa 0,0 l/m 9,7 km/h (2 Bft) O 90 1 min 0,000 mm 2,9 UV-I 508 W/m 7,3 C 13,6 C 16,1 km/h (3 Bft) 91,30 %
03.06.2023 09:37 15,3 C 18,9 C 16,1 C 16,1 C 15,0 C 59 % 88 cb 56 cb 32 cb 1018,8 hPa 0,0 l/m 14,5 km/h (3 Bft) O 90 1 min 0,000 mm 2,9 UV-I 501 W/m 7,3 C 11,7 C 22,5 km/h (4 Bft) 100,00 %
03.06.2023 09:36 15,4 C 18,9 C 16,1 C 16,1 C 15,0 C 58 % 88 cb 56 cb 32 cb 1018,6 hPa 0,0 l/m 14,5 km/h (3 Bft) O-NO 67 1 min 0,000 mm 2,8 UV-I 492 W/m 7,2 C 11,8 C 22,5 km/h (4 Bft) 91,30 %
03.06.2023 09:35 15,4 C 18,9 C 16,1 C 16,1 C 15,0 C 60 % 88 cb 56 cb 32 cb 1018,8 hPa 0,0 l/m 19,3 km/h (3 Bft) O-NO 67 1 min 0,000 mm 2,8 UV-I 490 W/m 7,7 C 10,4 C 27,4 km/h (4 Bft) 95,65 %
03.06.2023 09:34 15,5 C 18,9 C 16,1 C 16,1 C 15,0 C 60 % 88 cb 56 cb 32 cb 1018,7 hPa 0,0 l/m 16,1 km/h (3 Bft) O 90 1 min 0,000 mm 2,8 UV-I 487 W/m 7,8 C 11,5 C 22,5 km/h (4 Bft) 95,65 %
03.06.2023 09:33 15,4 C 18,9 C 16,1 C 16,1 C 15,0 C 60 % 88 cb 56 cb 32 cb 1018,8 hPa 0,0 l/m 11,3 km/h (2 Bft) O 90 1 min 0,000 mm 2,8 UV-I 492 W/m 7,7 C 13,0 C 16,1 km/h (3 Bft) 91,30 %
03.06.2023 09:32 15,5 C 18,9 C 16,1 C 16,1 C 15,0 C 60 % 88 cb 56 cb 32 cb 1018,7 hPa 0,0 l/m 11,3 km/h (2 Bft) O-SO 112 1 min 0,000 mm 2,8 UV-I 496 W/m 7,8 C 13,1 C 14,5 km/h (3 Bft) 95,65 %
03.06.2023 09:31 15,4 C 18,9 C 16,1 C 16,1 C 15,0 C 60 % 88 cb 56 cb 32 cb 1018,8 hPa 0,0 l/m 17,7 km/h (3 Bft) O-SO 112 1 min 0,000 mm 2,8 UV-I 499 W/m 7,7 C 10,9 C 24,1 km/h (4 Bft) 95,65 %
03.06.2023 09:30 15,4 C 18,9 C 16,1 C 16,1 C 15,0 C 62 % 88 cb 56 cb 32 cb 1018,6 hPa 0,0 l/m 17,7 km/h (3 Bft) O-SO 112 1 min 0,000 mm 2,7 UV-I 497 W/m 8,2 C 10,9 C 22,5 km/h (4 Bft) 95,65 %
03.06.2023 09:29 15,4 C 18,9 C 16,1 C 16,1 C 15,0 C 62 % 88 cb 56 cb 32 cb 1018,7 hPa 0,0 l/m 14,5 km/h (3 Bft) O-SO 112 1 min 0,000 mm 2,7 UV-I 492 W/m 8,2 C 11,8 C 17,7 km/h (3 Bft) 95,65 %
03.06.2023 09:28 15,3 C 18,9 C 16,1 C 16,1 C 15,0 C 61 % 88 cb 56 cb 32 cb 1018,7 hPa 0,0 l/m 19,3 km/h (3 Bft) SO 135 1 min 0,000 mm 2,7 UV-I 494 W/m 7,8 C 10,3 C 25,7 km/h (4 Bft) 91,30 %
03.06.2023 09:27 15,3 C 18,9 C 16,1 C 16,1 C 15,0 C 60 % 88 cb 56 cb 32 cb 1018,6 hPa 0,0 l/m 24,1 km/h (4 Bft) O-SO 112 1 min 0,000 mm 2,7 UV-I 506 W/m 7,6 C 9,2 C 30,6 km/h (5 Bft) 95,65 %
03.06.2023 09:26 15,3 C 19,4 C 16,1 C 16,1 C 15,0 C 62 % 88 cb 56 cb 32 cb 1018,7 hPa 0,0 l/m 17,7 km/h (3 Bft) O-SO 112 1 min 0,000 mm 2,6 UV-I 504 W/m 8,1 C 10,7 C 30,6 km/h (5 Bft) 91,30 %
03.06.2023 09:25 15,2 C 18,9 C 16,1 C 16,1 C 15,0 C 61 % 88 cb 56 cb 32 cb 1018,7 hPa 0,0 l/m 11,3 km/h (2 Bft) O-SO 112 1 min 0,000 mm 2,6 UV-I 510 W/m 7,7 C 12,8 C 14,5 km/h (3 Bft) 100,00 %
03.06.2023 09:24 15,1 C 18,9 C 16,1 C 16,1 C 15,0 C 63 % 88 cb 56 cb 32 cb 1018,8 hPa 0,0 l/m 12,9 km/h (3 Bft) SO 135 1 min 0,000 mm 2,6 UV-I 519 W/m 8,1 C 12,0 C 17,7 km/h (3 Bft) 95,65 %
03.06.2023 09:23 15,0 C 18,9 C 16,1 C 16,1 C 15,0 C 61 % 88 cb 56 cb 32 cb 1018,7 hPa 0,0 l/m 16,1 km/h (3 Bft) SO 135 1 min 0,000 mm 2,6 UV-I 527 W/m 7,5 C 10,8 C 20,9 km/h (4 Bft) 95,65 %
03.06.2023 09:22 14,9 C 18,9 C 16,1 C 16,1 C 15,0 C 62 % 88 cb 56 cb 32 cb 1018,6 hPa 0,0 l/m 12,9 km/h (3 Bft) SO 135 1 min 0,000 mm 2,6 UV-I 531 W/m 7,7 C 11,8 C 19,3 km/h (3 Bft) 100,00 %
03.06.2023 09:21 14,9 C 18,9 C 16,1 C 16,1 C 15,0 C 61 % 88 cb 56 cb 32 cb 1018,7 hPa 0,0 l/m 14,5 km/h (3 Bft) SO 135 1 min 0,000 mm 2,6 UV-I 540 W/m 7,4 C 11,2 C 19,3 km/h (3 Bft) 95,65 %
03.06.2023 09:20 14,8 C 18,9 C 16,1 C 16,1 C 15,0 C 60 % 88 cb 56 cb 32 cb 1018,7 hPa 0,0 l/m 17,7 km/h (3 Bft) O-SO 112 1 min 0,000 mm 2,6 UV-I 540 W/m 7,1 C 10,1 C 20,9 km/h (4 Bft) 95,65 %
03.06.2023 09:19 14,8 C 18,3 C 16,1 C 16,1 C 15,0 C 60 % 88 cb 56 cb 32 cb 1018,7 hPa 0,0 l/m 12,9 km/h (3 Bft) SO 135 1 min 0,000 mm 2,5 UV-I 529 W/m 7,1 C 11,7 C 20,9 km/h (4 Bft) 100,00 %
03.06.2023 09:18 14,8 C 18,3 C 16,1 C 16,1 C 15,0 C 61 % 88 cb 56 cb 32 cb 1018,7 hPa 0,0 l/m 17,7 km/h (3 Bft) O-SO 112 1 min 0,000 mm 2,5 UV-I 534 W/m 7,4 C 10,1 C 24,1 km/h (4 Bft) 86,96 %
03.06.2023 09:17 14,8 C 18,3 C 16,1 C 16,1 C 15,0 C 61 % 88 cb 56 cb 32 cb 1018,8 hPa 0,0 l/m 17,7 km/h (3 Bft) O-SO 112 1 min 0,000 mm 2,5 UV-I 519 W/m 7,4 C 10,1 C 22,5 km/h (4 Bft) 91,30 %
03.06.2023 09:16 14,8 C 18,3 C 16,1 C 16,1 C 15,0 C 62 % 87 cb 56 cb 32 cb 1018,6 hPa 0,0 l/m 16,1 km/h (3 Bft) O 90 1 min 0,000 mm 2,4 UV-I 531 W/m 7,6 C 10,6 C 25,7 km/h (4 Bft) 95,65 %
03.06.2023 09:15 14,7 C 17,8 C 16,1 C 16,1 C 15,0 C 62 % 88 cb 56 cb 32 cb 1018,6 hPa 0,0 l/m 11,3 km/h (2 Bft) O-SO 112 1 min 0,000 mm 2,5 UV-I 555 W/m 7,5 C 12,2 C 17,7 km/h (3 Bft) 95,65 %
03.06.2023 09:14 14,6 C 17,8 C 16,1 C 16,1 C 15,0 C 63 % 87 cb 56 cb 32 cb 1018,7 hPa 0,0 l/m 16,1 km/h (3 Bft) O-SO 112 1 min 0,000 mm 2,4 UV-I 545 W/m 7,6 C 10,3 C 19,3 km/h (3 Bft) 91,30 %
03.06.2023 09:13 14,5 C 17,8 C 16,1 C 16,1 C 15,0 C 62 % 87 cb 56 cb 32 cb 1018,6 hPa 0,0 l/m 14,5 km/h (3 Bft) SO 135 1 min 0,000 mm 2,4 UV-I 555 W/m 7,3 C 10,8 C 17,7 km/h (3 Bft) 100,00 %
03.06.2023 09:12 14,5 C 17,2 C 16,1 C 16,1 C 15,0 C 59 % 87 cb 56 cb 32 cb 1018,7 hPa 0,0 l/m 14,5 km/h (3 Bft) O-NO 67 1 min 0,000 mm 2,2 UV-I 497 W/m 6,6 C 10,8 C 22,5 km/h (4 Bft) 95,65 %
03.06.2023 09:11 14,6 C 17,2 C 16,1 C 16,1 C 15,0 C 60 % 87 cb 56 cb 32 cb 1018,6 hPa 0,0 l/m 20,9 km/h (4 Bft) O-SO 112 1 min 0,000 mm 2,4 UV-I 577 W/m 6,9 C 9,0 C 25,7 km/h (4 Bft) 95,65 %
03.06.2023 09:10 14,6 C 17,2 C 16,1 C 16,1 C 15,0 C 61 % 87 cb 56 cb 32 cb 1018,6 hPa 0,0 l/m 17,7 km/h (3 Bft) O-SO 112 1 min 0,000 mm 2,2 UV-I 577 W/m 7,2 C 9,9 C 27,4 km/h (4 Bft) 100,00 %
03.06.2023 09:09 14,5 C 17,2 C 16,1 C 16,1 C 15,0 C 62 % 87 cb 56 cb 32 cb 1018,6 hPa 0,0 l/m 17,7 km/h (3 Bft) O-SO 112 1 min 0,000 mm 2,2 UV-I 503 W/m 7,3 C 9,7 C 33,8 km/h (5 Bft) 95,65 %
03.06.2023 09:08 14,5 C 16,7 C 16,1 C 16,1 C 15,0 C 62 % 87 cb 56 cb 32 cb 1018,6 hPa 0,0 l/m 17,7 km/h (3 Bft) O-SO 112 1 min 0,000 mm 2,2 UV-I 443 W/m 7,3 C 9,7 C 33,8 km/h (5 Bft) 95,65 %
03.06.2023 09:07 14,4 C 16,7 C 16,1 C 16,1 C 15,0 C 62 % 87 cb 56 cb 32 cb 1018,6 hPa 0,0 l/m 16,1 km/h (3 Bft) O-SO 112 1 min 0,000 mm 2,0 UV-I 443 W/m 7,2 C 10,1 C 24,1 km/h (4 Bft) 100,00 %
03.06.2023 09:06 14,4 C 16,7 C 16,1 C 16,1 C 15,0 C 61 % 87 cb 56 cb 32 cb 1018,6 hPa 0,0 l/m 14,5 km/h (3 Bft) O-SO 112 1 min 0,000 mm 2,1 UV-I 411 W/m 7,0 C 10,6 C 22,5 km/h (4 Bft) 95,65 %
03.06.2023 09:05 14,4 C 16,7 C 16,1 C 16,1 C 15,0 C 61 % 87 cb 56 cb 32 cb 1018,5 hPa 0,0 l/m 20,9 km/h (4 Bft) O-SO 112 1 min 0,000 mm 2,0 UV-I 411 W/m 7,0 C 8,7 C 22,5 km/h (4 Bft) 95,65 %
03.06.2023 09:04 14,4 C 16,7 C 16,1 C 16,1 C 15,0 C 61 % 87 cb 56 cb 32 cb 1018,5 hPa 0,0 l/m 20,9 km/h (4 Bft) O-SO 112 1 min 0,000 mm 1,9 UV-I 438 W/m 7,0 C 8,7 C 25,7 km/h (4 Bft) 100,00 %
03.06.2023 09:03 14,4 C 16,7 C 16,1 C 16,1 C 15,0 C 61 % 87 cb 56 cb 32 cb 1018,6 hPa 0,0 l/m 16,1 km/h (3 Bft) O-SO 112 1 min 0,000 mm 1,9 UV-I 408 W/m 7,0 C 10,1 C 20,9 km/h (4 Bft) 91,30 %
03.06.2023 09:02 14,4 C 16,7 C 16,1 C 16,1 C 15,0 C 62 % 87 cb 56 cb 32 cb 1018,6 hPa 0,0 l/m 17,7 km/h (3 Bft) SO 135 1 min 0,000 mm 1,9 UV-I 446 W/m 7,2 C 9,6 C 22,5 km/h (4 Bft) 91,30 %
03.06.2023 09:01 14,3 C 16,7 C 16,1 C 16,1 C 15,0 C 63 % 87 cb 56 cb 32 cb 1018,6 hPa 0,0 l/m 17,7 km/h (3 Bft) O 90 1 min 0,000 mm 2,2 UV-I 446 W/m 7,4 C 9,5 C 24,1 km/h (4 Bft) 100,00 %
03.06.2023 09:00 14,3 C 16,7 C 16,1 C 16,1 C 15,0 C 64 % 87 cb 56 cb 32 cb 1018,6 hPa 0,0 l/m 17,7 km/h (3 Bft) O-SO 112 1 min 0,279 mm 1,9 UV-I 446 W/m 7,6 C 9,5 C 24,1 km/h (4 Bft) 95,65 %
03.06.2023 08:59 14,3 C 16,7 C 16,1 C 16,1 C 15,0 C 64 % 87 cb 56 cb 32 cb 1018,6 hPa 0,0 l/m 14,5 km/h (3 Bft) O-SO 112 1 min 0,000 mm 1,8 UV-I 427 W/m 7,6 C 10,5 C 17,7 km/h (3 Bft) 91,30 %
03.06.2023 08:58 14,3 C 16,7 C 16,1 C 16,1 C 15,0 C 64 % 87 cb 56 cb 32 cb 1018,6 hPa 0,0 l/m 14,5 km/h (3 Bft) O-SO 112 1 min 0,000 mm 1,9 UV-I 427 W/m 7,6 C 10,5 C 19,3 km/h (3 Bft) 100,00 %
03.06.2023 08:57 14,3 C 16,7 C 16,1 C 16,1 C 15,0 C 63 % 87 cb 56 cb 32 cb 1018,6 hPa 0,0 l/m 16,1 km/h (3 Bft) O-SO 112 1 min 0,000 mm 1,8 UV-I 380 W/m 7,4 C 10,0 C 20,9 km/h (4 Bft) 95,65 %
03.06.2023 08:56 14,3 C 16,7 C 16,1 C 16,1 C 15,0 C 63 % 87 cb 56 cb 32 cb 1018,6 hPa 0,0 l/m 14,5 km/h (3 Bft) O-SO 112 1 min 0,000 mm 1,8 UV-I 432 W/m 7,4 C 10,5 C 22,5 km/h (4 Bft) 95,65 %
03.06.2023 08:55 14,3 C 16,1 C 16,1 C 16,1 C 15,0 C 62 % 87 cb 56 cb 32 cb 1018,6 hPa 0,0 l/m 14,5 km/h (3 Bft) O 90 1 min 0,000 mm 1,9 UV-I 445 W/m 7,1 C 10,5 C 17,7 km/h (3 Bft) 100,00 %
03.06.2023 08:54 14,3 C 16,1 C 16,1 C 16,1 C 15,0 C 63 % 87 cb 56 cb 32 cb 1018,6 hPa 0,0 l/m 14,5 km/h (3 Bft) O 90 1 min 0,000 mm 1,8 UV-I 448 W/m 7,4 C 10,5 C 20,9 km/h (4 Bft) 95,65 %
03.06.2023 08:53 14,3 C 16,1 C 16,1 C 16,1 C 15,0 C 63 % 87 cb 56 cb 32 cb 1018,5 hPa 0,0 l/m 14,5 km/h (3 Bft) O-SO 112 1 min 0,000 mm 1,8 UV-I 454 W/m 7,4 C 10,5 C 19,3 km/h (3 Bft) 95,65 %
03.06.2023 08:52 14,3 C 16,1 C 16,1 C 16,1 C 15,0 C 63 % 87 cb 56 cb 32 cb 1018,6 hPa 0,0 l/m 14,5 km/h (3 Bft) O-SO 112 1 min 0,000 mm 1,7 UV-I 473 W/m 7,4 C 10,5 C 20,9 km/h (4 Bft) 100,00 %
03.06.2023 08:51 14,3 C 16,1 C 16,1 C 16,1 C 15,0 C 63 % 87 cb 56 cb 32 cb 1018,5 hPa 0,0 l/m 17,7 km/h (3 Bft) O-SO 112 1 min 0,000 mm 1,7 UV-I 378 W/m 7,4 C 9,5 C 22,5 km/h (4 Bft) 91,30 %
03.06.2023 08:50 14,3 C 16,1 C 16,1 C 16,1 C 15,0 C 63 % 87 cb 56 cb 32 cb 1018,5 hPa 0,0 l/m 16,1 km/h (3 Bft) O 90 1 min 0,000 mm 1,6 UV-I 360 W/m 7,4 C 10,0 C 24,1 km/h (4 Bft) 95,65 %
03.06.2023 08:49 14,3 C 16,7 C 16,1 C 16,1 C 15,0 C 63 % 87 cb 56 cb 32 cb 1018,5 hPa 0,0 l/m 11,3 km/h (2 Bft) O 90 1 min 0,000 mm 1,6 UV-I 350 W/m 7,4 C 11,8 C 16,1 km/h (3 Bft) 100,00 %
03.06.2023 08:48 14,3 C 16,7 C 16,1 C 16,1 C 15,0 C 63 % 87 cb 56 cb 32 cb 1018,6 hPa 0,0 l/m 9,7 km/h (2 Bft) O-SO 112 1 min 0,000 mm 1,7 UV-I 392 W/m 7,4 C 12,5 C 17,7 km/h (3 Bft) 91,30 %
03.06.2023 08:47 14,3 C 16,7 C 16,1 C 16,1 C 15,0 C 63 % 87 cb 56 cb 32 cb 1018,5 hPa 0,0 l/m 14,5 km/h (3 Bft) O-SO 112 1 min 0,000 mm 1,7 UV-I 401 W/m 7,4 C 10,5 C 17,7 km/h (3 Bft) 91,30 %
03.06.2023 08:46 14,3 C 16,7 C 16,1 C 16,1 C 15,0 C 63 % 87 cb 56 cb 32 cb 1018,5 hPa 0,0 l/m 12,9 km/h (3 Bft) NO 45 1 min 0,000 mm 1,7 UV-I 501 W/m 7,4 C 11,1 C 19,3 km/h (3 Bft) 95,65 %
03.06.2023 08:45 14,3 C 16,7 C 16,1 C 16,1 C 15,0 C 63 % 87 cb 56 cb 32 cb 1018,5 hPa 0,0 l/m 16,1 km/h (3 Bft) O-NO 67 1 min 0,000 mm 1,7 UV-I 450 W/m 7,4 C 10,0 C 24,1 km/h (4 Bft) 95,65 %
03.06.2023 08:44 14,3 C 16,7 C 16,1 C 16,1 C 15,0 C 63 % 87 cb 56 cb 32 cb 1018,5 hPa 0,0 l/m 12,9 km/h (3 Bft) O-NO 67 1 min 0,000 mm 1,8 UV-I 526 W/m 7,4 C 11,1 C 20,9 km/h (4 Bft) 95,65 %
03.06.2023 08:43 14,2 C 16,1 C 16,1 C 16,1 C 15,0 C 63 % 87 cb 56 cb 31 cb 1018,5 hPa 0,0 l/m 12,9 km/h (3 Bft) O-SO 112 1 min 0,000 mm 1,7 UV-I 448 W/m 7,3 C 11,0 C 22,5 km/h (4 Bft) 95,65 %
03.06.2023 08:42 14,3 C 16,1 C 16,1 C 16,1 C 15,0 C 63 % 87 cb 56 cb 32 cb 1018,6 hPa 0,0 l/m 14,5 km/h (3 Bft) O 90 1 min 0,000 mm 1,7 UV-I 513 W/m 7,4 C 10,5 C 20,9 km/h (4 Bft) 95,65 %
03.06.2023 08:41 14,3 C 16,1 C 16,1 C 16,1 C 15,0 C 62 % 87 cb 56 cb 31 cb 1018,6 hPa 0,0 l/m 9,7 km/h (2 Bft) O-SO 112 1 min 0,000 mm 1,6 UV-I 473 W/m 7,1 C 12,5 C 16,1 km/h (3 Bft) 95,65 %
03.06.2023 08:40 14,3 C 16,1 C 16,1 C 16,1 C 15,0 C 62 % 87 cb 56 cb 31 cb 1018,6 hPa 0,0 l/m 11,3 km/h (2 Bft) O 90 1 min 0,000 mm 1,5 UV-I 422 W/m 7,1 C 11,8 C 17,7 km/h (3 Bft) 95,65 %
03.06.2023 08:39 14,3 C 16,1 C 16,1 C 16,1 C 15,0 C 63 % 87 cb 56 cb 31 cb 1018,6 hPa 0,0 l/m 16,1 km/h (3 Bft) O 90 1 min 0,000 mm 1,6 UV-I 457 W/m 7,4 C 10,0 C 22,5 km/h (4 Bft) 91,30 %
03.06.2023 08:38 14,3 C 16,1 C 16,1 C 16,1 C 15,0 C 63 % 87 cb 56 cb 31 cb 1018,5 hPa 0,0 l/m 17,7 km/h (3 Bft) O 90 1 min 0,000 mm 1,6 UV-I 469 W/m 7,4 C 9,5 C 24,1 km/h (4 Bft) 91,30 %
03.06.2023 08:37 14,3 C 16,1 C 16,1 C 16,1 C 15,0 C 63 % 87 cb 56 cb 31 cb 1018,5 hPa 0,0 l/m 14,5 km/h (3 Bft) O 90 1 min 0,000 mm 1,5 UV-I 397 W/m 7,4 C 10,5 C 25,7 km/h (4 Bft) 95,65 %
03.06.2023 08:36 14,3 C 16,1 C 16,1 C 16,1 C 15,0 C 63 % 87 cb 56 cb 31 cb 1018,6 hPa 0,0 l/m 12,9 km/h (3 Bft) O 90 1 min 0,000 mm 1,6 UV-I 462 W/m 7,4 C 11,1 C 20,9 km/h (4 Bft) 100,00 %
03.06.2023 08:35 14,3 C 16,1 C 16,1 C 16,1 C 15,0 C 64 % 87 cb 56 cb 31 cb 1018,6 hPa 0,0 l/m 12,9 km/h (3 Bft) O-SO 112 1 min 0,000 mm 1,5 UV-I 494 W/m 7,6 C 11,1 C 24,1 km/h (4 Bft) 95,65 %
03.06.2023 08:34 14,2 C 15,6 C 16,1 C 16,1 C 15,0 C 64 % 87 cb 56 cb 31 cb 1018,6 hPa 0,0 l/m 12,9 km/h (3 Bft) O-SO 112 1 min 0,000 mm 1,5 UV-I 468 W/m 7,5 C 11,0 C 16,1 km/h (3 Bft) 95,65 %
03.06.2023 08:33 14,2 C 15,6 C 16,1 C 16,1 C 15,0 C 64 % 87 cb 56 cb 31 cb 1018,5 hPa 0,0 l/m 14,5 km/h (3 Bft) SO 135 1 min 0,000 mm 1,5 UV-I 434 W/m 7,5 C 10,4 C 20,9 km/h (4 Bft) 95,65 %
03.06.2023 08:32 14,1 C 15,6 C 16,1 C 16,1 C 15,0 C 65 % 87 cb 56 cb 31 cb 1018,6 hPa 0,0 l/m 12,9 km/h (3 Bft) O-SO 112 1 min 0,000 mm 1,5 UV-I 480 W/m 7,6 C 10,9 C 19,3 km/h (3 Bft) 95,65 %
03.06.2023 08:31 14,1 C 15,0 C 16,1 C 16,1 C 15,0 C 64 % 87 cb 56 cb 31 cb 1018,5 hPa 0,0 l/m 9,7 km/h (2 Bft) O 90 1 min 0,000 mm 1,5 UV-I 462 W/m 7,4 C 12,3 C 16,1 km/h (3 Bft) 86,96 %
03.06.2023 08:30 14,1 C 15,0 C 16,1 C 16,1 C 15,0 C 64 % 87 cb 56 cb 31 cb 1018,5 hPa 0,0 l/m 14,5 km/h (3 Bft) O-SO 112 1 min 0,000 mm 1,5 UV-I 429 W/m 7,4 C 10,3 C 19,3 km/h (3 Bft) 100,00 %
03.06.2023 08:29 14,1 C 15,0 C 16,1 C 16,1 C 15,0 C 65 % 87 cb 56 cb 31 cb 1018,6 hPa 0,0 l/m 17,7 km/h (3 Bft) O-SO 112 1 min 0,000 mm 1,5 UV-I 420 W/m 7,6 C 9,2 C 25,7 km/h (4 Bft) 86,96 %
03.06.2023 08:28 14,0 C 15,0 C 16,1 C 16,1 C 15,0 C 65 % 87 cb 56 cb 31 cb 1018,7 hPa 0,0 l/m 14,5 km/h (3 Bft) O-SO 112 1 min 0,000 mm 1,5 UV-I 482 W/m 7,5 C 10,2 C 20,9 km/h (4 Bft) 95,65 %
03.06.2023 08:27 14,0 C 15,0 C 16,1 C 16,1 C 15,0 C 63 % 87 cb 56 cb 31 cb 1018,5 hPa 0,0 l/m 16,1 km/h (3 Bft) O 90 1 min 0,000 mm 1,4 UV-I 403 W/m 7,1 C 9,6 C 22,5 km/h (4 Bft) 100,00 %
03.06.2023 08:26 14,1 C 14,4 C 16,1 C 16,1 C 15,0 C 64 % 87 cb 56 cb 31 cb 1018,6 hPa 0,0 l/m 17,7 km/h (3 Bft) O-SO 112 1 min 0,000 mm 1,5 UV-I 473 W/m 7,4 C 9,2 C 22,5 km/h (4 Bft) 82,61 %
03.06.2023 08:25 14,1 C 14,4 C 16,1 C 16,1 C 15,0 C 65 % 87 cb 56 cb 31 cb 1018,6 hPa 0,0 l/m 11,3 km/h (2 Bft) O-SO 112 1 min 0,000 mm 1,4 UV-I 434 W/m 7,6 C 11,5 C 17,7 km/h (3 Bft) 95,65 %
03.06.2023 08:24 14,1 C 14,4 C 16,1 C 16,1 C 15,0 C 64 % 87 cb 56 cb 31 cb 1018,6 hPa 0,0 l/m 12,9 km/h (3 Bft) O-SO 112 1 min 0,000 mm 1,4 UV-I 359 W/m 7,4 C 10,9 C 19,3 km/h (3 Bft) 95,65 %
03.06.2023 08:23 14,0 C 14,4 C 16,1 C 16,1 C 15,0 C 64 % 87 cb 56 cb 31 cb 1018,6 hPa 0,0 l/m 12,9 km/h (3 Bft) O 90 1 min 0,000 mm 1,4 UV-I 403 W/m 7,3 C 10,8 C 19,3 km/h (3 Bft) 91,30 %
03.06.2023 08:22 14,0 C 14,4 C 16,1 C 16,1 C 15,0 C 65 % 87 cb 56 cb 31 cb 1018,6 hPa 0,0 l/m 9,7 km/h (2 Bft) O-NO 67 1 min 0,000 mm 1,3 UV-I 316 W/m 7,5 C 12,2 C 14,5 km/h (3 Bft) 91,30 %
03.06.2023 08:21 14,0 C 14,4 C 16,1 C 16,1 C 15,0 C 65 % 87 cb 56 cb 31 cb 1018,6 hPa 0,0 l/m 8,0 km/h (2 Bft) O-NO 67 1 min 0,000 mm 1,2 UV-I 311 W/m 7,5 C 13,1 C 12,9 km/h (3 Bft) 95,65 %
03.06.2023 08:20 14,0 C 14,4 C 16,1 C 16,1 C 15,0 C 65 % 87 cb 56 cb 31 cb 1018,5 hPa 0,0 l/m 11,3 km/h (2 Bft) SO 135 1 min 0,000 mm 1,3 UV-I 253 W/m 7,5 C 11,4 C 14,5 km/h (3 Bft) 95,65 %
03.06.2023 08:19 13,9 C 14,4 C 16,1 C 16,1 C 15,0 C 65 % 87 cb 56 cb 31 cb 1018,5 hPa 0,0 l/m 11,3 km/h (2 Bft) O-NO 67 1 min 0,000 mm 1,2 UV-I 218 W/m 7,4 C 11,3 C 16,1 km/h (3 Bft) 91,30 %
03.06.2023 08:18 13,9 C 14,4 C 16,1 C 16,1 C 15,0 C 65 % 87 cb 56 cb 31 cb 1018,6 hPa 0,0 l/m 12,9 km/h (3 Bft) O-SO 112 1 min 0,000 mm 1,3 UV-I 297 W/m 7,4 C 10,6 C 16,1 km/h (3 Bft) 100,00 %
03.06.2023 08:17 13,9 C 14,4 C 16,1 C 16,1 C 15,0 C 66 % 87 cb 56 cb 31 cb 1018,4 hPa 0,0 l/m 12,9 km/h (3 Bft) SO 135 1 min 0,000 mm 1,3 UV-I 406 W/m 7,7 C 10,6 C 19,3 km/h (3 Bft) 91,30 %
03.06.2023 08:16 13,8 C 14,4 C 16,1 C 16,1 C 15,0 C 65 % 87 cb 56 cb 31 cb 1018,5 hPa 0,0 l/m 11,3 km/h (2 Bft) O-SO 112 1 min 0,000 mm 1,3 UV-I 406 W/m 7,3 C 11,2 C 14,5 km/h (3 Bft) 95,65 %
03.06.2023 08:15 13,8 C 14,4 C 16,1 C 16,1 C 15,0 C 65 % 87 cb 56 cb 31 cb 1018,5 hPa 0,0 l/m 16,1 km/h (3 Bft) O 90 1 min 0,000 mm 1,3 UV-I 403 W/m 7,3 C 9,4 C 19,3 km/h (3 Bft) 91,30 %
03.06.2023 08:14 13,7 C 13,9 C 16,1 C 16,1 C 15,0 C 66 % 87 cb 56 cb 31 cb 1018,5 hPa 0,0 l/m 16,1 km/h (3 Bft) O-SO 112 1 min 0,000 mm 1,3 UV-I 401 W/m 7,5 C 9,2 C 20,9 km/h (4 Bft) 91,30 %
03.06.2023 08:13 13,7 C 13,9 C 16,1 C 16,1 C 15,0 C 65 % 87 cb 56 cb 31 cb 1018,5 hPa 0,0 l/m 17,7 km/h (3 Bft) O-SO 112 1 min 0,000 mm 1,3 UV-I 399 W/m 7,2 C 8,7 C 24,1 km/h (4 Bft) 91,30 %
03.06.2023 08:12 13,7 C 13,9 C 16,1 C 16,1 C 15,0 C 65 % 87 cb 56 cb 31 cb 1018,4 hPa 0,0 l/m 22,5 km/h (4 Bft) O-SO 112 1 min 0,000 mm 1,3 UV-I 396 W/m 7,2 C 7,4 C 27,4 km/h (4 Bft) 100,00 %
03.06.2023 08:11 13,6 C 13,9 C 16,1 C 16,1 C 15,0 C 65 % 87 cb 56 cb 31 cb 1018,4 hPa 0,0 l/m 19,3 km/h (3 Bft) O 90 1 min 0,000 mm 1,2 UV-I 394 W/m 7,1 C 8,1 C 25,7 km/h (4 Bft) 91,30 %
03.06.2023 08:10 13,6 C 13,9 C 16,1 C 16,1 C 15,0 C 64 % 87 cb 56 cb 31 cb 1018,5 hPa 0,0 l/m 20,9 km/h (4 Bft) O 90 1 min 0,000 mm 1,2 UV-I 388 W/m 6,9 C 7,7 C 25,7 km/h (4 Bft) 95,65 %
03.06.2023 08:09 13,7 C 13,9 C 16,1 C 16,1 C 15,0 C 64 % 87 cb 56 cb 31 cb 1018,5 hPa 0,0 l/m 16,1 km/h (3 Bft) O 90 1 min 0,000 mm 1,2 UV-I 388 W/m 7,0 C 9,2 C 25,7 km/h (4 Bft) 95,65 %
03.06.2023 08:08 13,7 C 13,9 C 16,1 C 16,1 C 15,0 C 64 % 87 cb 56 cb 31 cb 1018,4 hPa 0,0 l/m 22,5 km/h (4 Bft) O-SO 112 1 min 0,000 mm 1,2 UV-I 383 W/m 7,0 C 7,4 C 29,0 km/h (5 Bft) 95,65 %
03.06.2023 08:07 13,7 C 13,9 C 16,1 C 16,1 C 15,0 C 64 % 87 cb 56 cb 31 cb 1018,6 hPa 0,0 l/m 19,3 km/h (3 Bft) O 90 1 min 0,000 mm 1,2 UV-I 381 W/m 7,0 C 8,3 C 24,1 km/h (4 Bft) 91,30 %
03.06.2023 08:06 13,7 C 13,9 C 16,1 C 16,1 C 15,0 C 65 % 87 cb 56 cb 31 cb 1018,5 hPa 0,0 l/m 17,7 km/h (3 Bft) O-SO 112 1 min 0,000 mm 1,2 UV-I 376 W/m 7,2 C 8,7 C 27,4 km/h (4 Bft) 100,00 %
03.06.2023 08:05 13,7 C 13,9 C 16,1 C 16,1 C 15,0 C 64 % 87 cb 56 cb 31 cb 1018,4 hPa 0,0 l/m 17,7 km/h (3 Bft) O-SO 112 1 min 0,000 mm 1,2 UV-I 376 W/m 7,0 C 8,7 C 20,9 km/h (4 Bft) 91,30 %
03.06.2023 08:04 13,6 C 13,9 C 16,1 C 16,1 C 15,0 C 64 % 87 cb 56 cb 31 cb 1018,4 hPa 0,0 l/m 14,5 km/h (3 Bft) O-SO 112 1 min 0,000 mm 1,2 UV-I 373 W/m 6,9 C 9,7 C 19,3 km/h (3 Bft) 86,96 %
03.06.2023 08:03 13,6 C 13,9 C 16,1 C 16,1 C 15,0 C 64 % 87 cb 56 cb 31 cb 1018,4 hPa 0,0 l/m 14,5 km/h (3 Bft) O 90 1 min 0,000 mm 1,1 UV-I 369 W/m 6,9 C 9,7 C 22,5 km/h (4 Bft) 100,00 %
03.06.2023 08:02 13,6 C 13,9 C 16,1 C 16,1 C 15,0 C 63 % 87 cb 56 cb 31 cb 1018,4 hPa 0,0 l/m 19,3 km/h (3 Bft) O-SO 112 1 min 0,000 mm 1,1 UV-I 364 W/m 6,7 C 8,1 C 27,4 km/h (4 Bft) 91,30 %
03.06.2023 08:01 13,7 C 13,9 C 16,1 C 16,1 C 15,0 C 63 % 87 cb 56 cb 31 cb 1018,4 hPa 0,0 l/m 22,5 km/h (4 Bft) O-SO 112 1 min 0,000 mm 1,1 UV-I 366 W/m 6,8 C 7,4 C 27,4 km/h (4 Bft) 95,65 %
03.06.2023 08:00 13,7 C 13,9 C 16,1 C 16,1 C 15,0 C 64 % 87 cb 56 cb 31 cb 1018,4 hPa 0,0 l/m 17,7 km/h (3 Bft) O 90 1 min 0,178 mm 1,1 UV-I 362 W/m 7,0 C 8,7 C 32,2 km/h (5 Bft) 95,65 %
03.06.2023 07:59 13,7 C 13,9 C 16,1 C 16,1 C 15,0 C 64 % 87 cb 56 cb 31 cb 1018,3 hPa 0,0 l/m 22,5 km/h (4 Bft) O-SO 112 1 min 0,000 mm 1,1 UV-I 360 W/m 7,0 C 7,4 C 32,2 km/h (5 Bft) 95,65 %
03.06.2023 07:58 13,7 C 13,9 C 16,1 C 16,1 C 15,0 C 65 % 87 cb 56 cb 31 cb 1018,3 hPa 0,0 l/m 14,5 km/h (3 Bft) O-SO 112 1 min 0,000 mm 1,1 UV-I 353 W/m 7,2 C 9,8 C 20,9 km/h (4 Bft) 91,30 %
03.06.2023 07:57 13,7 C 13,9 C 16,1 C 16,1 C 15,0 C 65 % 87 cb 56 cb 31 cb 1018,3 hPa 0,0 l/m 16,1 km/h (3 Bft) O-SO 112 1 min 0,000 mm 1,1 UV-I 353 W/m 7,2 C 9,2 C 20,9 km/h (4 Bft) 95,65 %
03.06.2023 07:56 13,6 C 13,9 C 16,1 C 16,1 C 15,0 C 65 % 87 cb 56 cb 31 cb 1018,2 hPa 0,0 l/m 16,1 km/h (3 Bft) O-SO 112 1 min 0,000 mm 1,1 UV-I 350 W/m 7,1 C 9,1 C 20,9 km/h (4 Bft) 91,30 %
03.06.2023 07:55 13,7 C 13,9 C 16,1 C 16,1 C 15,0 C 65 % 87 cb 56 cb 31 cb 1018,2 hPa 0,0 l/m 19,3 km/h (3 Bft) O-SO 112 1 min 0,000 mm 1,0 UV-I 346 W/m 7,2 C 8,3 C 24,1 km/h (4 Bft) 95,65 %
03.06.2023 07:54 13,6 C 13,9 C 16,1 C 16,1 C 15,0 C 64 % 87 cb 56 cb 31 cb 1018,2 hPa 0,0 l/m 16,1 km/h (3 Bft) O-SO 112 1 min 0,000 mm 1,0 UV-I 345 W/m 6,9 C 9,1 C 20,9 km/h (4 Bft) 86,96 %
03.06.2023 07:53 13,7 C 13,9 C 16,1 C 16,1 C 15,0 C 65 % 87 cb 56 cb 31 cb 1018,2 hPa 0,0 l/m 19,3 km/h (3 Bft) O-SO 112 1 min 0,000 mm 1,0 UV-I 341 W/m 7,2 C 8,3 C 29,0 km/h (5 Bft) 95,65 %
03.06.2023 07:52 13,7 C 13,9 C 16,1 C 16,1 C 15,0 C 64 % 87 cb 56 cb 31 cb 1018,2 hPa 0,0 l/m 17,7 km/h (3 Bft) O-SO 112 1 min 0,000 mm 1,0 UV-I 338 W/m 7,0 C 8,7 C 25,7 km/h (4 Bft) 86,96 %
03.06.2023 07:51 13,7 C 13,9 C 16,1 C 16,1 C 15,0 C 64 % 87 cb 56 cb 31 cb 1018,2 hPa 0,0 l/m 20,9 km/h (4 Bft) O-SO 112 1 min 0,000 mm 1,0 UV-I 338 W/m 7,0 C 7,8 C 30,6 km/h (5 Bft) 95,65 %
03.06.2023 07:50 13,7 C 13,9 C 16,1 C 16,1 C 15,0 C 64 % 87 cb 56 cb 31 cb 1018,2 hPa 0,0 l/m 17,7 km/h (3 Bft) O-SO 112 1 min 0,000 mm 1,0 UV-I 336 W/m 7,0 C 8,7 C 24,1 km/h (4 Bft) 91,30 %
03.06.2023 07:49 13,7 C 13,9 C 16,1 C 16,1 C 15,0 C 64 % 87 cb 56 cb 31 cb 1018,1 hPa 0,0 l/m 14,5 km/h (3 Bft) O 90 1 min 0,000 mm 1,0 UV-I 330 W/m 7,0 C 9,8 C 30,6 km/h (5 Bft) 86,96 %
03.06.2023 07:48 13,7 C 13,9 C 16,1 C 16,1 C 15,0 C 64 % 87 cb 56 cb 31 cb 1018,2 hPa 0,0 l/m 19,3 km/h (3 Bft) O-SO 112 1 min 0,000 mm 0,9 UV-I 327 W/m 7,0 C 8,3 C 25,7 km/h (4 Bft) 91,30 %
03.06.2023 07:47 13,8 C 13,9 C 16,1 C 16,1 C 15,0 C 65 % 87 cb 56 cb 31 cb 1018,2 hPa 0,0 l/m 22,5 km/h (4 Bft) O-SO 112 1 min 0,000 mm 0,9 UV-I 322 W/m 7,3 C 7,6 C 30,6 km/h (5 Bft) 91,30 %
03.06.2023 07:46 13,7 C 13,9 C 16,1 C 16,1 C 15,0 C 65 % 87 cb 56 cb 31 cb 1018,2 hPa 0,0 l/m 12,9 km/h (3 Bft) O 90 1 min 0,000 mm 0,9 UV-I 320 W/m 7,2 C 10,4 C 22,5 km/h (4 Bft) 91,30 %
03.06.2023 07:45 13,7 C 13,9 C 16,1 C 16,1 C 15,0 C 66 % 87 cb 56 cb 31 cb 1018,1 hPa 0,0 l/m 12,9 km/h (3 Bft) O-SO 112 1 min 0,000 mm 0,9 UV-I 318 W/m 7,5 C 10,4 C 20,9 km/h (4 Bft) 91,30 %
03.06.2023 07:44 13,7 C 13,9 C 16,1 C 16,1 C 15,0 C 65 % 87 cb 56 cb 31 cb 1018,2 hPa 0,0 l/m 17,7 km/h (3 Bft) O-SO 112 1 min 0,000 mm 0,9 UV-I 315 W/m 7,2 C 8,7 C 24,1 km/h (4 Bft) 100,00 %
03.06.2023 07:43 13,7 C 13,3 C 16,1 C 16,1 C 15,0 C 65 % 87 cb 56 cb 31 cb 1018,1 hPa 0,0 l/m 16,1 km/h (3 Bft) O 90 1 min 0,000 mm 0,9 UV-I 311 W/m 7,2 C 9,2 C 25,7 km/h (4 Bft) 91,30 %
03.06.2023 07:42 13,7 C 13,3 C 16,1 C 16,1 C 15,0 C 65 % 87 cb 56 cb 31 cb 1018,1 hPa 0,0 l/m 17,7 km/h (3 Bft) O-SO 112 1 min 0,000 mm 0,8 UV-I 302 W/m 7,2 C 8,7 C 20,9 km/h (4 Bft) 91,30 %
03.06.2023 07:41 13,7 C 13,3 C 16,1 C 16,1 C 15,0 C 65 % 87 cb 56 cb 31 cb 1018,1 hPa 0,0 l/m 17,7 km/h (3 Bft) O-SO 112 1 min 0,000 mm 0,8 UV-I 294 W/m 7,2 C 8,7 C 25,7 km/h (4 Bft) 95,65 %
03.06.2023 07:40 13,8 C 13,3 C 16,1 C 16,1 C 15,0 C 65 % 87 cb 56 cb 31 cb 1018,3 hPa 0,0 l/m 12,9 km/h (3 Bft) O-SO 112 1 min 0,000 mm 0,8 UV-I 288 W/m 7,3 C 10,5 C 19,3 km/h (3 Bft) 95,65 %
03.06.2023 07:39 13,8 C 13,3 C 16,1 C 16,1 C 15,0 C 66 % 87 cb 56 cb 31 cb 1018,2 hPa 0,0 l/m 17,7 km/h (3 Bft) O-SO 112 1 min 0,000 mm 0,8 UV-I 283 W/m 7,6 C 8,9 C 22,5 km/h (4 Bft) 95,65 %
03.06.2023 07:38 13,7 C 13,3 C 16,1 C 16,1 C 15,0 C 66 % 87 cb 56 cb 31 cb 1018,1 hPa 0,0 l/m 16,1 km/h (3 Bft) O-SO 112 1 min 0,000 mm 0,8 UV-I 274 W/m 7,5 C 9,2 C 19,3 km/h (3 Bft) 100,00 %
03.06.2023 07:37 13,7 C 13,3 C 16,1 C 16,1 C 15,0 C 66 % 87 cb 56 cb 31 cb 1018,0 hPa 0,0 l/m 16,1 km/h (3 Bft) O-SO 112 1 min 0,000 mm 0,8 UV-I 269 W/m 7,5 C 9,2 C 20,9 km/h (4 Bft) 91,30 %
03.06.2023 07:36 13,7 C 13,3 C 16,1 C 16,1 C 15,0 C 66 % 87 cb 56 cb 31 cb 1018,2 hPa 0,0 l/m 14,5 km/h (3 Bft) SO 135 1 min 0,000 mm 0,8 UV-I 262 W/m 7,5 C 9,8 C 17,7 km/h (3 Bft) 95,65 %
03.06.2023 07:35 13,7 C 13,3 C 16,1 C 16,1 C 15,0 C 65 % 87 cb 56 cb 31 cb 1018,0 hPa 0,0 l/m 14,5 km/h (3 Bft) O-SO 112 1 min 0,000 mm 0,8 UV-I 251 W/m 7,2 C 9,8 C 19,3 km/h (3 Bft) 91,30 %
03.06.2023 07:34 13,7 C 13,3 C 16,1 C 16,1 C 15,0 C 66 % 87 cb 56 cb 31 cb 1018,0 hPa 0,0 l/m 14,5 km/h (3 Bft) O-SO 112 1 min 0,000 mm 0,8 UV-I 246 W/m 7,5 C 9,8 C 17,7 km/h (3 Bft) 95,65 %
03.06.2023 07:33 13,7 C 13,3 C 16,1 C 16,1 C 15,0 C 66 % 87 cb 56 cb 31 cb 1018,1 hPa 0,0 l/m 12,9 km/h (3 Bft) O-SO 112 1 min 0,000 mm 0,8 UV-I 243 W/m 7,5 C 10,4 C 16,1 km/h (3 Bft) 86,96 %
03.06.2023 07:32 13,6 C 13,3 C 16,1 C 16,1 C 15,0 C 66 % 87 cb 56 cb 31 cb 1018,0 hPa 0,0 l/m 9,7 km/h (2 Bft) O-SO 112 1 min 0,000 mm 0,7 UV-I 237 W/m 7,4 C 11,7 C 17,7 km/h (3 Bft) 95,65 %
03.06.2023 07:31 13,7 C 13,3 C 16,1 C 16,1 C 15,0 C 66 % 87 cb 56 cb 31 cb 1018,0 hPa 0,0 l/m 11,3 km/h (2 Bft) O 90 1 min 0,000 mm 0,7 UV-I 236 W/m 7,5 C 11,1 C 16,1 km/h (3 Bft) 95,65 %
03.06.2023 07:30 13,6 C 13,3 C 16,1 C 16,1 C 15,0 C 66 % 87 cb 56 cb 31 cb 1018,1 hPa 0,0 l/m 9,7 km/h (2 Bft) O-SO 112 1 min 0,000 mm 0,7 UV-I 232 W/m 7,4 C 11,7 C 20,9 km/h (4 Bft) 86,96 %
03.06.2023 07:29 13,6 C 13,3 C 16,1 C 16,1 C 15,0 C 66 % 87 cb 56 cb 31 cb 1018,0 hPa 0,0 l/m 9,7 km/h (2 Bft) O-NO 67 1 min 0,000 mm 0,7 UV-I 232 W/m 7,4 C 11,7 C 16,1 km/h (3 Bft) 100,00 %
03.06.2023 07:28 13,6 C 13,3 C 16,1 C 16,1 C 15,0 C 66 % 87 cb 56 cb 31 cb 1018,0 hPa 0,0 l/m 9,7 km/h (2 Bft) O-SO 112 1 min 0,000 mm 0,7 UV-I 232 W/m 7,4 C 11,7 C 17,7 km/h (3 Bft) 86,96 %
03.06.2023 07:27 13,5 C 13,3 C 16,1 C 16,1 C 15,0 C 67 % 87 cb 56 cb 31 cb 1018,1 hPa 0,0 l/m 14,5 km/h (3 Bft) O-SO 112 1 min 0,000 mm 0,7 UV-I 232 W/m 7,5 C 9,6 C 19,3 km/h (3 Bft) 95,65 %
03.06.2023 07:26 13,5 C 13,3 C 16,1 C 16,1 C 15,0 C 66 % 87 cb 56 cb 31 cb 1018,1 hPa 0,0 l/m 9,7 km/h (2 Bft) O-SO 112 1 min 0,000 mm 0,7 UV-I 234 W/m 7,3 C 11,6 C 12,9 km/h (3 Bft) 91,30 %
03.06.2023 07:25 13,4 C 13,3 C 16,1 C 16,1 C 15,0 C 66 % 87 cb 56 cb 31 cb 1018,1 hPa 0,0 l/m 9,7 km/h (2 Bft) O-SO 112 1 min 0,000 mm 0,7 UV-I 234 W/m 7,2 C 11,5 C 17,7 km/h (3 Bft) 95,65 %
03.06.2023 07:24 13,4 C 13,3 C 16,1 C 16,1 C 15,0 C 66 % 87 cb 56 cb 31 cb 1018,0 hPa 0,0 l/m 8,0 km/h (2 Bft) O-NO 67 1 min 0,000 mm 0,6 UV-I 237 W/m 7,2 C 12,4 C 12,9 km/h (3 Bft) 91,30 %
03.06.2023 07:23 13,4 C 13,3 C 16,1 C 16,1 C 15,0 C 66 % 87 cb 56 cb 31 cb 1018,0 hPa 0,0 l/m 12,9 km/h (3 Bft) O 90 1 min 0,000 mm 0,6 UV-I 243 W/m 7,2 C 10,1 C 19,3 km/h (3 Bft) 95,65 %
03.06.2023 07:22 13,4 C 13,3 C 16,1 C 16,1 C 15,0 C 66 % 87 cb 56 cb 31 cb 1018,0 hPa 0,0 l/m 12,9 km/h (3 Bft) O-NO 67 1 min 0,000 mm 0,6 UV-I 243 W/m 7,2 C 10,1 C 20,9 km/h (4 Bft) 91,30 %
03.06.2023 07:21 13,5 C 13,3 C 16,1 C 16,1 C 15,0 C 66 % 87 cb 56 cb 31 cb 1018,1 hPa 0,0 l/m 12,9 km/h (3 Bft) O-SO 112 1 min 0,000 mm 0,6 UV-I 244 W/m 7,3 C 10,2 C 17,7 km/h (3 Bft) 95,65 %
03.06.2023 07:20 13,5 C 13,3 C 16,1 C 16,1 C 15,0 C 66 % 87 cb 56 cb 31 cb 1018,0 hPa 0,0 l/m 14,5 km/h (3 Bft) O 90 1 min 0,000 mm 0,6 UV-I 248 W/m 7,3 C 9,6 C 24,1 km/h (4 Bft) 95,65 %
03.06.2023 07:19 13,5 C 13,3 C 16,1 C 16,1 C 15,0 C 66 % 87 cb 56 cb 31 cb 1018,0 hPa 0,0 l/m 16,1 km/h (3 Bft) O-SO 112 1 min 0,000 mm 0,6 UV-I 248 W/m 7,3 C 9,0 C 24,1 km/h (4 Bft) 95,65 %
03.06.2023 07:18 13,5 C 13,3 C 16,1 C 16,1 C 15,0 C 66 % 87 cb 56 cb 31 cb 1018,1 hPa 0,0 l/m 11,3 km/h (2 Bft) O-NO 67 1 min 0,000 mm 0,6 UV-I 246 W/m 7,3 C 10,9 C 16,1 km/h (3 Bft) 86,96 %
03.06.2023 07:17 13,4 C 13,3 C 16,1 C 16,1 C 15,0 C 66 % 87 cb 56 cb 31 cb 1018,0 hPa 0,0 l/m 8,0 km/h (2 Bft) O 90 1 min 0,000 mm 0,6 UV-I 241 W/m 7,2 C 12,4 C 12,9 km/h (3 Bft) 91,30 %
03.06.2023 07:16 13,5 C 13,3 C 16,1 C 16,1 C 15,0 C 67 % 87 cb 56 cb 31 cb 1018,0 hPa 0,0 l/m 9,7 km/h (2 Bft) O 90 1 min 0,000 mm 0,6 UV-I 237 W/m 7,5 C 11,6 C 12,9 km/h (3 Bft) 95,65 %
03.06.2023 07:15 13,5 C 13,3 C 16,1 C 16,1 C 15,0 C 67 % 87 cb 56 cb 31 cb 1018,0 hPa 0,0 l/m 9,7 km/h (2 Bft) O 90 1 min 0,000 mm 0,6 UV-I 237 W/m 7,5 C 11,6 C 16,1 km/h (3 Bft) 91,30 %
03.06.2023 07:14 13,5 C 12,8 C 16,1 C 16,1 C 15,0 C 67 % 87 cb 56 cb 31 cb 1018,0 hPa 0,0 l/m 9,7 km/h (2 Bft) O 90 1 min 0,000 mm 0,6 UV-I 234 W/m 7,5 C 11,6 C 17,7 km/h (3 Bft) 91,30 %
03.06.2023 07:13 13,4 C 12,8 C 16,1 C 16,1 C 15,0 C 68 % 87 cb 56 cb 31 cb 1018,0 hPa 0,0 l/m 9,7 km/h (2 Bft) O 90 1 min 0,000 mm 0,5 UV-I 230 W/m 7,6 C 11,5 C 14,5 km/h (3 Bft) 95,65 %
03.06.2023 07:12 13,4 C 12,8 C 16,1 C 16,1 C 15,0 C 68 % 87 cb 56 cb 31 cb 1018,0 hPa 0,0 l/m 6,4 km/h (2 Bft) O 90 1 min 0,000 mm 0,5 UV-I 225 W/m 7,6 C 13,4 C 11,3 km/h (2 Bft) 91,30 %
03.06.2023 07:11 13,4 C 12,8 C 16,1 C 16,1 C 15,0 C 68 % 87 cb 56 cb 31 cb 1018,0 hPa 0,0 l/m 11,3 km/h (2 Bft) O-SO 112 1 min 0,000 mm 0,5 UV-I 225 W/m 7,6 C 10,7 C 14,5 km/h (3 Bft) 95,65 %
03.06.2023 07:10 13,3 C 12,8 C 16,1 C 16,1 C 15,0 C 68 % 87 cb 56 cb 31 cb 1018,0 hPa 0,0 l/m 9,7 km/h (2 Bft) O-SO 112 1 min 0,000 mm 0,5 UV-I 223 W/m 7,5 C 11,4 C 14,5 km/h (3 Bft) 91,30 %
03.06.2023 07:09 13,3 C 12,8 C 16,1 C 16,1 C 15,0 C 68 % 87 cb 56 cb 31 cb 1018,0 hPa 0,0 l/m 6,4 km/h (2 Bft) O 90 1 min 0,000 mm 0,5 UV-I 220 W/m 7,5 C 13,3 C 14,5 km/h (3 Bft) 91,30 %
03.06.2023 07:08 13,3 C 12,8 C 16,1 C 16,1 C 15,0 C 68 % 87 cb 56 cb 31 cb 1018,0 hPa 0,0 l/m 9,7 km/h (2 Bft) O-SO 112 1 min 0,000 mm 0,5 UV-I 218 W/m 7,5 C 11,4 C 14,5 km/h (3 Bft) 91,30 %
03.06.2023 07:07 13,2 C 12,8 C 16,1 C 16,1 C 15,0 C 68 % 87 cb 56 cb 31 cb 1018,0 hPa 0,0 l/m 6,4 km/h (2 Bft) O-SO 112 1 min 0,000 mm 0,5 UV-I 216 W/m 7,4 C 13,2 C 17,7 km/h (3 Bft) 95,65 %
03.06.2023 07:06 13,2 C 12,8 C 16,1 C 16,1 C 15,0 C 68 % 87 cb 56 cb 31 cb 1017,9 hPa 0,0 l/m 8,0 km/h (2 Bft) O-SO 112 1 min 0,000 mm 0,5 UV-I 207 W/m 7,4 C 12,2 C 11,3 km/h (2 Bft) 95,65 %
03.06.2023 07:05 13,2 C 12,8 C 16,1 C 16,1 C 15,0 C 68 % 87 cb 56 cb 31 cb 1018,1 hPa 0,0 l/m 11,3 km/h (2 Bft) O-SO 112 1 min 0,000 mm 0,5 UV-I 206 W/m 7,4 C 10,5 C 17,7 km/h (3 Bft) 86,96 %
03.06.2023 07:04 13,2 C 12,8 C 16,1 C 16,1 C 15,0 C 68 % 87 cb 56 cb 31 cb 1018,0 hPa 0,0 l/m 8,0 km/h (2 Bft) O 90 1 min 0,000 mm 0,5 UV-I 202 W/m 7,4 C 12,2 C 12,9 km/h (3 Bft) 82,61 %
03.06.2023 07:03 13,1 C 12,8 C 16,1 C 16,1 C 15,0 C 67 % 87 cb 56 cb 31 cb 1018,0 hPa 0,0 l/m 12,9 km/h (3 Bft) O-SO 112 1 min 0,000 mm 0,5 UV-I 200 W/m 7,1 C 9,7 C 17,7 km/h (3 Bft) 86,96 %
03.06.2023 07:02 13,1 C 12,8 C 16,1 C 16,1 C 15,0 C 67 % 87 cb 56 cb 31 cb 1017,9 hPa 0,0 l/m 12,9 km/h (3 Bft) O 90 1 min 0,000 mm 0,5 UV-I 197 W/m 7,1 C 9,7 C 17,7 km/h (3 Bft) 91,30 %
03.06.2023 07:01 13,1 C 12,2 C 16,1 C 16,1 C 15,0 C 68 % 87 cb 56 cb 31 cb 1018,0 hPa 0,0 l/m 9,7 km/h (2 Bft) O-SO 112 1 min 0,000 mm 0,0 UV-I 195 W/m 7,3 C 11,2 C 14,5 km/h (3 Bft) 91,30 %
03.06.2023 07:00 13,1 C 12,2 C 16,1 C 16,1 C 15,0 C 68 % 87 cb 56 cb 31 cb 1018,0 hPa 0,0 l/m 9,7 km/h (2 Bft) O-SO 112 1 min 0,076 mm 0,0 UV-I 192 W/m 7,3 C 11,2 C 12,9 km/h (3 Bft) 91,30 %
03.06.2023 06:59 13,1 C 12,2 C 16,1 C 16,1 C 15,0 C 68 % 87 cb 56 cb 31 cb 1018,0 hPa 0,0 l/m 12,9 km/h (3 Bft) O-SO 112 1 min 0,000 mm 0,0 UV-I 192 W/m 7,3 C 9,7 C 16,1 km/h (3 Bft) 91,30 %
03.06.2023 06:58 13,1 C 12,2 C 16,1 C 16,1 C 15,0 C 68 % 87 cb 56 cb 31 cb 1018,0 hPa 0,0 l/m 14,5 km/h (3 Bft) O-SO 112 1 min 0,000 mm 0,0 UV-I 188 W/m 7,3 C 9,1 C 20,9 km/h (4 Bft) 95,65 %
03.06.2023 06:57 13,1 C 12,2 C 16,1 C 16,1 C 15,0 C 69 % 87 cb 56 cb 31 cb 1018,0 hPa 0,0 l/m 11,3 km/h (2 Bft) O-NO 67 1 min 0,000 mm 0,0 UV-I 186 W/m 7,5 C 10,4 C 24,1 km/h (4 Bft) 91,30 %
03.06.2023 06:56 13,0 C 12,2 C 16,1 C 16,1 C 15,0 C 69 % 87 cb 56 cb 31 cb 1018,0 hPa 0,0 l/m 9,7 km/h (2 Bft) O-SO 112 1 min 0,000 mm 0,0 UV-I 185 W/m 7,4 C 11,1 C 12,9 km/h (3 Bft) 86,96 %
03.06.2023 06:55 12,9 C 12,2 C 16,1 C 16,1 C 15,0 C 68 % 87 cb 56 cb 31 cb 1017,9 hPa 0,0 l/m 4,8 km/h (1 Bft) O 90 1 min 0,000 mm 0,0 UV-I 181 W/m 7,1 C 12,9 C 6,4 km/h (2 Bft) 91,30 %
03.06.2023 06:54 12,9 C 12,2 C 16,1 C 16,1 C 15,0 C 68 % 87 cb 56 cb 31 cb 1017,9 hPa 0,0 l/m 11,3 km/h (2 Bft) O 90 1 min 0,000 mm 0,0 UV-I 178 W/m 7,1 C 10,2 C 16,1 km/h (3 Bft) 91,30 %
03.06.2023 06:53 12,9 C 12,2 C 16,1 C 16,1 C 15,0 C 68 % 87 cb 56 cb 31 cb 1018,0 hPa 0,0 l/m 11,3 km/h (2 Bft) O 90 1 min 0,000 mm 0,0 UV-I 174 W/m 7,1 C 10,2 C 17,7 km/h (3 Bft) 86,96 %
03.06.2023 06:52 12,9 C 12,2 C 16,1 C 16,1 C 15,0 C 69 % 87 cb 56 cb 31 cb 1017,9 hPa 0,0 l/m 11,3 km/h (2 Bft) O-NO 67 1 min 0,000 mm 0,0 UV-I 171 W/m 7,4 C 10,2 C 22,5 km/h (4 Bft) 95,65 %
03.06.2023 06:51 12,9 C 12,2 C 16,1 C 16,1 C 15,0 C 69 % 87 cb 56 cb 31 cb 1018,0 hPa 0,0 l/m 6,4 km/h (2 Bft) O 90 1 min 0,000 mm 0,0 UV-I 169 W/m 7,4 C 12,9 C 14,5 km/h (3 Bft) 91,30 %
03.06.2023 06:50 12,8 C 11,7 C 16,1 C 16,1 C 15,0 C 69 % 87 cb 56 cb 31 cb 1018,0 hPa 0,0 l/m 6,4 km/h (2 Bft) O-SO 112 1 min 0,000 mm 0,0 UV-I 167 W/m 7,3 C 12,8 C 9,7 km/h (2 Bft) 82,61 %
03.06.2023 06:49 12,8 C 11,7 C 16,1 C 16,1 C 15,0 C 69 % 87 cb 56 cb 31 cb 1017,9 hPa 0,0 l/m 9,7 km/h (2 Bft) O-NO 67 1 min 0,000 mm 0,0 UV-I 165 W/m 7,3 C 10,8 C 14,5 km/h (3 Bft) 95,65 %
03.06.2023 06:48 12,8 C 11,7 C 16,1 C 16,1 C 15,0 C 69 % 87 cb 56 cb 31 cb 1017,8 hPa 0,0 l/m 9,7 km/h (2 Bft) O 90 1 min 0,000 mm 0,0 UV-I 158 W/m 7,3 C 10,8 C 14,5 km/h (3 Bft) 86,96 %
03.06.2023 06:47 12,8 C 11,7 C 16,1 C 16,1 C 15,0 C 68 % 87 cb 56 cb 31 cb 1018,0 hPa 0,0 l/m 11,3 km/h (2 Bft) O 90 1 min 0,000 mm 0,0 UV-I 156 W/m 7,0 C 10,1 C 17,7 km/h (3 Bft) 91,30 %
03.06.2023 06:46 12,7 C 11,7 C 16,1 C 16,1 C 15,0 C 69 % 87 cb 56 cb 31 cb 1017,9 hPa 0,0 l/m 12,9 km/h (3 Bft) O-SO 112 0 min 0,000 mm 0,0 UV-I 151 W/m 7,2 C 9,2 C 14,5 km/h (3 Bft) 91,30 %
03.06.2023 06:45 12,7 C 11,7 C 16,1 C 16,1 C 15,0 C 69 % 87 cb 56 cb 31 cb 1017,8 hPa 0,0 l/m 8,0 km/h (2 Bft) O-SO 112 0 min 0,000 mm 0,0 UV-I 151 W/m 7,2 C 11,7 C 14,5 km/h (3 Bft) 91,30 %
03.06.2023 06:44 12,7 C 11,7 C 16,1 C 16,1 C 15,0 C 69 % 87 cb 56 cb 31 cb 1017,9 hPa 0,0 l/m 6,4 km/h (2 Bft) O-SO 112 0 min 0,000 mm 0,0 UV-I 121 W/m 7,2 C 12,7 C 9,7 km/h (2 Bft) 86,96 %
03.06.2023 06:43 12,7 C 11,7 C 16,1 C 16,1 C 15,0 C 69 % 87 cb 56 cb 31 cb 1017,8 hPa 0,0 l/m 8,0 km/h (2 Bft) O 90 0 min 0,000 mm 0,0 UV-I 130 W/m 7,2 C 11,7 C 12,9 km/h (3 Bft) 95,65 %
03.06.2023 06:42 12,7 C 11,7 C 16,1 C 16,1 C 15,0 C 69 % 86 cb 56 cb 31 cb 1017,8 hPa 0,0 l/m 8,0 km/h (2 Bft) O 90 0 min 0,000 mm 0,0 UV-I 107 W/m 7,2 C 11,7 C 12,9 km/h (3 Bft) 86,96 %
03.06.2023 06:41 12,7 C 11,7 C 16,1 C 16,1 C 15,0 C 69 % 86 cb 56 cb 31 cb 1017,9 hPa 0,0 l/m 12,9 km/h (3 Bft) O 90 0 min 0,000 mm 0,0 UV-I 102 W/m 7,2 C 9,2 C 17,7 km/h (3 Bft) 91,30 %
03.06.2023 06:40 12,7 C 11,7 C 16,1 C 16,1 C 15,0 C 69 % 86 cb 56 cb 31 cb 1017,8 hPa 0,0 l/m 11,3 km/h (2 Bft) O-SO 112 0 min 0,000 mm 0,0 UV-I 102 W/m 7,2 C 9,9 C 19,3 km/h (3 Bft) 95,65 %
03.06.2023 06:39 12,8 C 11,7 C 16,1 C 16,1 C 15,0 C 69 % 86 cb 56 cb 31 cb 1017,9 hPa 0,0 l/m 17,7 km/h (3 Bft) O-NO 67 0 min 0,000 mm 0,0 UV-I 83 W/m 7,3 C 7,6 C 22,5 km/h (4 Bft) 91,30 %
03.06.2023 06:38 12,8 C 11,7 C 16,1 C 16,1 C 15,0 C 69 % 86 cb 56 cb 31 cb 1017,8 hPa 0,0 l/m 9,7 km/h (2 Bft) O 90 0 min 0,000 mm 0,0 UV-I 69 W/m 7,3 C 10,8 C 16,1 km/h (3 Bft) 91,30 %
03.06.2023 06:37 12,8 C 11,7 C 16,1 C 16,1 C 15,0 C 69 % 86 cb 56 cb 31 cb 1017,8 hPa 0,0 l/m 11,3 km/h (2 Bft) O 90 0 min 0,000 mm 0,0 UV-I 86 W/m 7,3 C 10,1 C 16,1 km/h (3 Bft) 95,65 %
03.06.2023 06:36 12,8 C 11,7 C 16,1 C 16,1 C 15,0 C 69 % 86 cb 56 cb 31 cb 1017,8 hPa 0,0 l/m 14,5 km/h (3 Bft) O-SO 112 0 min 0,000 mm 0,0 UV-I 107 W/m 7,3 C 8,7 C 17,7 km/h (3 Bft) 91,30 %
03.06.2023 06:35 12,8 C 11,7 C 16,1 C 16,1 C 15,0 C 69 % 86 cb 56 cb 31 cb 1017,9 hPa 0,0 l/m 16,1 km/h (3 Bft) O 90 0 min 0,000 mm 0,0 UV-I 111 W/m 7,3 C 8,1 C 24,1 km/h (4 Bft) 86,96 %
03.06.2023 06:34 12,8 C 11,7 C 16,1 C 16,1 C 15,0 C 70 % 86 cb 56 cb 31 cb 1017,9 hPa 0,0 l/m 14,5 km/h (3 Bft) O-NO 67 0 min 0,000 mm 0,0 UV-I 111 W/m 7,5 C 8,7 C 20,9 km/h (4 Bft) 100,00 %
03.06.2023 06:33 12,8 C 11,7 C 16,1 C 16,1 C 15,0 C 70 % 86 cb 56 cb 31 cb 1017,9 hPa 0,0 l/m 6,4 km/h (2 Bft) O 90 0 min 0,000 mm 0,0 UV-I 107 W/m 7,5 C 12,8 C 11,3 km/h (2 Bft) 86,96 %
03.06.2023 06:32 12,7 C 11,7 C 16,1 C 16,1 C 15,0 C 70 % 86 cb 56 cb 31 cb 1017,9 hPa 0,0 l/m 6,4 km/h (2 Bft) O 90 0 min 0,000 mm 0,0 UV-I 105 W/m 7,4 C 12,7 C 14,5 km/h (3 Bft) 95,65 %
03.06.2023 06:31 12,7 C 11,7 C 16,1 C 16,1 C 15,0 C 70 % 86 cb 56 cb 31 cb 1017,9 hPa 0,0 l/m 4,8 km/h (1 Bft) O 90 0 min 0,000 mm 0,0 UV-I 100 W/m 7,4 C 12,7 C 9,7 km/h (2 Bft) 91,30 %
03.06.2023 06:30 12,7 C 11,7 C 16,1 C 16,1 C 15,0 C 70 % 86 cb 56 cb 31 cb 1017,9 hPa 0,0 l/m 4,8 km/h (1 Bft) O-NO 67 0 min 0,000 mm 0,0 UV-I 98 W/m 7,4 C 12,7 C 11,3 km/h (2 Bft) 95,65 %
03.06.2023 06:29 12,7 C 11,1 C 16,1 C 16,1 C 15,0 C 70 % 86 cb 56 cb 31 cb 1017,9 hPa 0,0 l/m 3,2 km/h (1 Bft) O 90 0 min 0,000 mm 0,0 UV-I 98 W/m 7,4 C 12,7 C 8,0 km/h (2 Bft) 91,30 %
03.06.2023 06:28 12,7 C 11,1 C 16,1 C 16,1 C 15,0 C 70 % 86 cb 56 cb 31 cb 1018,0 hPa 0,0 l/m 11,3 km/h (2 Bft) O 90 0 min 0,000 mm 0,0 UV-I 98 W/m 7,4 C 9,9 C 16,1 km/h (3 Bft) 95,65 %
03.06.2023 06:27 12,7 C 11,1 C 16,1 C 16,1 C 15,0 C 70 % 86 cb 56 cb 31 cb 1017,9 hPa 0,0 l/m 9,7 km/h (2 Bft) O-SO 112 0 min 0,000 mm 0,0 UV-I 98 W/m 7,4 C 10,7 C 11,3 km/h (2 Bft) 91,30 %
03.06.2023 06:26 12,7 C 11,1 C 16,1 C 16,1 C 15,0 C 70 % 86 cb 56 cb 31 cb 1017,9 hPa 0,0 l/m 9,7 km/h (2 Bft) O 90 0 min 0,000 mm 0,0 UV-I 97 W/m 7,4 C 10,7 C 17,7 km/h (3 Bft) 91,30 %
03.06.2023 06:25 12,6 C 11,1 C 16,1 C 16,1 C 15,0 C 70 % 86 cb 56 cb 31 cb 1017,9 hPa 0,0 l/m 8,0 km/h (2 Bft) O-SO 112 0 min 0,000 mm 0,0 UV-I 95 W/m 7,3 C 11,6 C 11,3 km/h (2 Bft) 100,00 %
03.06.2023 06:24 12,6 C 11,1 C 16,1 C 16,1 C 15,0 C 70 % 86 cb 56 cb 31 cb 1017,9 hPa 0,0 l/m 12,9 km/h (3 Bft) O-SO 112 0 min 0,000 mm 0,0 UV-I 95 W/m 7,3 C 9,1 C 19,3 km/h (3 Bft) 82,61 %
03.06.2023 06:23 12,6 C 11,1 C 16,1 C 16,1 C 15,0 C 70 % 86 cb 56 cb 31 cb 1017,9 hPa 0,0 l/m 3,2 km/h (1 Bft) O 90 0 min 0,000 mm 0,0 UV-I 93 W/m 7,3 C 12,6 C 11,3 km/h (2 Bft) 95,65 %
03.06.2023 06:22 12,6 C 11,1 C 16,1 C 16,1 C 15,0 C 70 % 86 cb 56 cb 31 cb 1017,8 hPa 0,0 l/m 11,3 km/h (2 Bft) O-NO 67 0 min 0,000 mm 0,0 UV-I 93 W/m 7,3 C 9,8 C 16,1 km/h (3 Bft) 86,96 %
03.06.2023 06:21 12,6 C 11,1 C 16,1 C 16,1 C 15,0 C 71 % 86 cb 56 cb 31 cb 1017,9 hPa 0,0 l/m 9,7 km/h (2 Bft) O 90 0 min 0,000 mm 0,0 UV-I 91 W/m 7,5 C 10,6 C 16,1 km/h (3 Bft) 100,00 %
03.06.2023 06:20 12,5 C 11,1 C 16,1 C 16,1 C 15,0 C 71 % 86 cb 56 cb 31 cb 1017,8 hPa 0,0 l/m 6,4 km/h (2 Bft) O-SO 112 0 min 0,000 mm 0,0 UV-I 90 W/m 7,4 C 12,5 C 9,7 km/h (2 Bft) 86,96 %
03.06.2023 06:19 12,5 C 11,1 C 16,1 C 16,1 C 15,0 C 71 % 86 cb 56 cb 31 cb 1017,8 hPa 0,0 l/m 9,7 km/h (2 Bft) O-SO 112 0 min 0,000 mm 0,0 UV-I 86 W/m 7,4 C 10,5 C 16,1 km/h (3 Bft) 91,30 %
03.06.2023 06:18 12,4 C 11,1 C 16,1 C 16,1 C 15,0 C 71 % 86 cb 56 cb 31 cb 1017,7 hPa 0,0 l/m 12,9 km/h (3 Bft) O 90 0 min 0,000 mm 0,0 UV-I 84 W/m 7,3 C 8,9 C 19,3 km/h (3 Bft) 91,30 %
03.06.2023 06:17 12,5 C 11,1 C 16,1 C 16,1 C 15,0 C 72 % 86 cb 56 cb 31 cb 1017,7 hPa 0,0 l/m 9,7 km/h (2 Bft) O 90 0 min 0,000 mm 0,0 UV-I 83 W/m 7,6 C 10,5 C 17,7 km/h (3 Bft) 95,65 %
03.06.2023 06:16 12,5 C 11,1 C 16,1 C 16,1 C 15,0 C 71 % 86 cb 56 cb 31 cb 1017,7 hPa 0,0 l/m 8,0 km/h (2 Bft) SO 135 0 min 0,000 mm 0,0 UV-I 81 W/m 7,4 C 11,5 C 12,9 km/h (3 Bft) 91,30 %
03.06.2023 06:15 12,4 C 11,1 C 16,1 C 16,1 C 15,0 C 71 % 86 cb 56 cb 31 cb 1017,8 hPa 0,0 l/m 9,7 km/h (2 Bft) O 90 0 min 0,000 mm 0,0 UV-I 79 W/m 7,3 C 10,4 C 20,9 km/h (4 Bft) 95,65 %
03.06.2023 06:14 12,4 C 11,1 C 16,1 C 16,1 C 15,0 C 71 % 86 cb 56 cb 31 cb 1017,6 hPa 0,0 l/m 9,7 km/h (2 Bft) O-SO 112 0 min 0,000 mm 0,0 UV-I 76 W/m 7,3 C 10,4 C 14,5 km/h (3 Bft) 91,30 %
03.06.2023 06:13 12,4 C 11,1 C 16,1 C 16,1 C 15,0 C 72 % 86 cb 56 cb 31 cb 1017,6 hPa 0,0 l/m 11,3 km/h (2 Bft) SO 135 0 min 0,000 mm 0,0 UV-I 72 W/m 7,5 C 9,6 C 17,7 km/h (3 Bft) 91,30 %
03.06.2023 06:12 12,4 C 10,6 C 16,1 C 16,1 C 15,0 C 72 % 86 cb 56 cb 31 cb 1017,6 hPa 0,0 l/m 12,9 km/h (3 Bft) SO 135 0 min 0,000 mm 0,0 UV-I 70 W/m 7,5 C 8,9 C 16,1 km/h (3 Bft) 100,00 %
03.06.2023 06:11 12,4 C 10,6 C 16,1 C 16,1 C 15,0 C 72 % 86 cb 56 cb 31 cb 1017,5 hPa 0,0 l/m 14,5 km/h (3 Bft) O 90 0 min 0,000 mm 0,0 UV-I 69 W/m 7,5 C 8,2 C 17,7 km/h (3 Bft) 86,96 %
03.06.2023 06:10 12,4 C 10,6 C 16,1 C 16,1 C 15,0 C 72 % 86 cb 56 cb 31 cb 1017,6 hPa 0,0 l/m 8,0 km/h (2 Bft) SO 135 0 min 0,000 mm 0,0 UV-I 67 W/m 7,5 C 11,4 C 14,5 km/h (3 Bft) 95,65 %
03.06.2023 06:09 12,3 C 10,6 C 16,1 C 16,1 C 15,0 C 72 % 86 cb 56 cb 31 cb 1017,6 hPa 0,0 l/m 9,7 km/h (2 Bft) O 90 0 min 0,000 mm 0,0 UV-I 65 W/m 7,4 C 10,3 C 17,7 km/h (3 Bft) 95,65 %
03.06.2023 06:08 12,3 C 10,6 C 16,1 C 16,1 C 15,0 C 73 % 86 cb 56 cb 31 cb 1017,6 hPa 0,0 l/m 11,3 km/h (2 Bft) O-NO 67 0 min 0,000 mm 0,0 UV-I 63 W/m 7,6 C 9,5 C 16,1 km/h (3 Bft) 91,30 %
03.06.2023 06:07 12,3 C 10,6 C 16,1 C 16,1 C 15,0 C 73 % 86 cb 56 cb 31 cb 1017,6 hPa 0,0 l/m 9,7 km/h (2 Bft) O-SO 112 0 min 0,000 mm 0,0 UV-I 60 W/m 7,6 C 10,3 C 14,5 km/h (3 Bft) 86,96 %
03.06.2023 06:06 12,3 C 10,6 C 16,1 C 16,1 C 15,0 C 73 % 86 cb 56 cb 31 cb 1017,5 hPa 0,0 l/m 6,4 km/h (2 Bft) O 90 0 min 0,000 mm 0,0 UV-I 56 W/m 7,6 C 12,3 C 9,7 km/h (2 Bft) 95,65 %
03.06.2023 06:05 12,3 C 10,6 C 16,1 C 16,1 C 15,0 C 73 % 86 cb 56 cb 31 cb 1017,6 hPa 0,0 l/m 11,3 km/h (2 Bft) O-NO 67 0 min 0,000 mm 0,0 UV-I 53 W/m 7,6 C 9,5 C 16,1 km/h (3 Bft) 86,96 %
03.06.2023 06:04 12,3 C 10,6 C 16,1 C 16,1 C 15,0 C 73 % 86 cb 55 cb 31 cb 1017,6 hPa 0,0 l/m 12,9 km/h (3 Bft) O 90 0 min 0,000 mm 0,0 UV-I 49 W/m 7,6 C 8,8 C 16,1 km/h (3 Bft) 91,30 %
03.06.2023 06:03 12,3 C 10,6 C 16,1 C 16,1 C 15,0 C 73 % 86 cb 55 cb 31 cb 1017,5 hPa 0,0 l/m 11,3 km/h (2 Bft) O 90 0 min 0,000 mm 0,0 UV-I 49 W/m 7,6 C 9,5 C 16,1 km/h (3 Bft) 100,00 %
03.06.2023 06:02 12,3 C 10,6 C 16,1 C 16,1 C 15,0 C 73 % 86 cb 55 cb 31 cb 1017,6 hPa 0,0 l/m 6,4 km/h (2 Bft) O-NO 67 0 min 0,000 mm 0,0 UV-I 47 W/m 7,6 C 12,3 C 11,3 km/h (2 Bft) 91,30 %
03.06.2023 06:01 12,3 C 10,6 C 16,1 C 16,1 C 15,0 C 73 % 86 cb 55 cb 31 cb 1017,6 hPa 0,0 l/m 8,0 km/h (2 Bft) O 90 0 min 0,000 mm 0,0 UV-I 47 W/m 7,6 C 11,3 C 11,3 km/h (2 Bft) 95,65 %
03.06.2023 06:00 12,3 C 10,6 C 16,1 C 16,1 C 15,0 C 73 % 86 cb 55 cb 31 cb 1017,6 hPa 0,0 l/m 8,0 km/h (2 Bft) O 90 0 min 0,025 mm 0,0 UV-I 46 W/m 7,6 C 11,3 C 12,9 km/h (3 Bft) 91,30 %
03.06.2023 05:59 12,3 C 10,6 C 16,1 C 16,1 C 15,0 C 73 % 86 cb 55 cb 31 cb 1017,5 hPa 0,0 l/m 6,4 km/h (2 Bft) O-NO 67 0 min 0,000 mm 0,0 UV-I 44 W/m 7,6 C 12,3 C 11,3 km/h (2 Bft) 86,96 %
03.06.2023 05:58 12,3 C 10,6 C 16,1 C 16,1 C 15,0 C 73 % 86 cb 55 cb 31 cb 1017,6 hPa 0,0 l/m 8,0 km/h (2 Bft) O 90 0 min 0,000 mm 0,0 UV-I 44 W/m 7,6 C 11,3 C 12,9 km/h (3 Bft) 91,30 %
03.06.2023 05:57 12,3 C 10,6 C 16,1 C 16,1 C 15,0 C 73 % 86 cb 55 cb 31 cb 1017,6 hPa 0,0 l/m 11,3 km/h (2 Bft) O 90 0 min 0,000 mm 0,0 UV-I 44 W/m 7,6 C 9,5 C 16,1 km/h (3 Bft) 100,00 %
03.06.2023 05:56 12,3 C 10,6 C 16,1 C 16,1 C 15,0 C 73 % 86 cb 55 cb 31 cb 1017,5 hPa 0,0 l/m 8,0 km/h (2 Bft) O 90 0 min 0,000 mm 0,0 UV-I 42 W/m 7,6 C 11,3 C 14,5 km/h (3 Bft) 86,96 %
03.06.2023 05:55 12,2 C 10,6 C 16,1 C 16,1 C 15,0 C 73 % 86 cb 55 cb 31 cb 1017,6 hPa 0,0 l/m 8,0 km/h (2 Bft) O-SO 112 0 min 0,000 mm 0,0 UV-I 39 W/m 7,5 C 11,2 C 14,5 km/h (3 Bft) 95,65 %
03.06.2023 05:54 12,3 C 10,6 C 16,1 C 16,1 C 15,0 C 73 % 86 cb 55 cb 31 cb 1017,5 hPa 0,0 l/m 9,7 km/h (2 Bft) O 90 0 min 0,000 mm 0,0 UV-I 39 W/m 7,6 C 10,3 C 14,5 km/h (3 Bft) 91,30 %
03.06.2023 05:53 12,2 C 10,6 C 16,1 C 16,1 C 15,0 C 73 % 86 cb 55 cb 31 cb 1017,5 hPa 0,0 l/m 11,3 km/h (2 Bft) O 90 0 min 0,000 mm 0,0 UV-I 37 W/m 7,5 C 9,4 C 19,3 km/h (3 Bft) 86,96 %
03.06.2023 05:52 12,2 C 10,0 C 16,1 C 16,1 C 15,0 C 73 % 86 cb 55 cb 31 cb 1017,5 hPa 0,0 l/m 6,4 km/h (2 Bft) O 90 0 min 0,000 mm 0,0 UV-I 37 W/m 7,5 C 12,2 C 11,3 km/h (2 Bft) 95,65 %
03.06.2023 05:51 12,2 C 10,0 C 16,1 C 16,1 C 15,0 C 73 % 86 cb 55 cb 31 cb 1017,5 hPa 0,0 l/m 8,0 km/h (2 Bft) O-NO 67 0 min 0,000 mm 0,0 UV-I 35 W/m 7,5 C 11,2 C 16,1 km/h (3 Bft) 91,30 %
03.06.2023 05:50 12,2 C 10,0 C 16,1 C 16,1 C 15,0 C 73 % 86 cb 55 cb 31 cb 1017,5 hPa 0,0 l/m 8,0 km/h (2 Bft) SO 135 0 min 0,000 mm 0,0 UV-I 33 W/m 7,5 C 11,2 C 12,9 km/h (3 Bft) 86,96 %
03.06.2023 05:49 12,2 C 10,0 C 16,1 C 16,1 C 15,0 C 73 % 86 cb 55 cb 31 cb 1017,5 hPa 0,0 l/m 6,4 km/h (2 Bft) O-NO 67 0 min 0,000 mm 0,0 UV-I 32 W/m 7,5 C 12,2 C 9,7 km/h (2 Bft) 91,30 %
03.06.2023 05:48 12,2 C 10,0 C 16,1 C 16,1 C 15,0 C 73 % 86 cb 55 cb 31 cb 1017,6 hPa 0,0 l/m 9,7 km/h (2 Bft) O-NO 67 0 min 0,000 mm 0,0 UV-I 32 W/m 7,5 C 10,2 C 19,3 km/h (3 Bft) 100,00 %
03.06.2023 05:47 12,2 C 10,0 C 16,1 C 16,1 C 15,0 C 73 % 86 cb 55 cb 31 cb 1017,5 hPa 0,0 l/m 8,0 km/h (2 Bft) O-SO 112 0 min 0,000 mm 0,0 UV-I 30 W/m 7,5 C 11,2 C 17,7 km/h (3 Bft) 91,30 %
03.06.2023 05:46 12,2 C 10,0 C 16,1 C 16,1 C 15,0 C 74 % 86 cb 55 cb 31 cb 1017,5 hPa 0,0 l/m 11,3 km/h (2 Bft) O 90 0 min 0,000 mm 0,0 UV-I 30 W/m 7,7 C 9,4 C 19,3 km/h (3 Bft) 95,65 %
03.06.2023 05:45 12,2 C 10,0 C 16,1 C 16,1 C 15,0 C 74 % 86 cb 55 cb 31 cb 1017,5 hPa 0,0 l/m 6,4 km/h (2 Bft) O 90 0 min 0,000 mm 0,0 UV-I 28 W/m 7,7 C 12,2 C 11,3 km/h (2 Bft) 91,30 %
03.06.2023 05:44 12,2 C 10,0 C 16,1 C 16,1 C 15,0 C 74 % 86 cb 55 cb 31 cb 1017,5 hPa 0,0 l/m 4,8 km/h (1 Bft) O-SO 112 0 min 0,000 mm 0,0 UV-I 26 W/m 7,7 C 12,2 C 8,0 km/h (2 Bft) 95,65 %
03.06.2023 05:43 12,2 C 10,0 C 16,1 C 16,1 C 15,0 C 74 % 86 cb 55 cb 31 cb 1017,5 hPa 0,0 l/m 11,3 km/h (2 Bft) O-SO 112 0 min 0,000 mm 0,0 UV-I 26 W/m 7,7 C 9,4 C 17,7 km/h (3 Bft) 86,96 %
03.06.2023 05:42 12,1 C 10,0 C 16,1 C 16,1 C 15,0 C 74 % 86 cb 55 cb 31 cb 1017,4 hPa 0,0 l/m 8,0 km/h (2 Bft) O 90 0 min 0,000 mm 0,0 UV-I 25 W/m 7,6 C 11,1 C 12,9 km/h (3 Bft) 95,65 %
03.06.2023 05:41 12,2 C 10,0 C 16,1 C 16,1 C 15,0 C 74 % 86 cb 55 cb 31 cb 1017,5 hPa 0,0 l/m 8,0 km/h (2 Bft) O 90 0 min 0,000 mm 0,0 UV-I 25 W/m 7,7 C 11,2 C 16,1 km/h (3 Bft) 95,65 %
03.06.2023 05:40 12,2 C 10,0 C 16,1 C 16,1 C 15,0 C 74 % 86 cb 55 cb 31 cb 1017,4 hPa 0,0 l/m 9,7 km/h (2 Bft) O 90 0 min 0,000 mm 0,0 UV-I 23 W/m 7,7 C 10,2 C 16,1 km/h (3 Bft) 86,96 %
03.06.2023 05:39 12,2 C 10,0 C 16,1 C 16,1 C 15,0 C 74 % 86 cb 55 cb 31 cb 1017,4 hPa 0,0 l/m 4,8 km/h (1 Bft) O-NO 67 0 min 0,000 mm 0,0 UV-I 23 W/m 7,7 C 12,2 C 11,3 km/h (2 Bft) 95,65 %
03.06.2023 05:38 12,2 C 10,0 C 16,1 C 16,1 C 15,0 C 74 % 86 cb 55 cb 31 cb 1017,5 hPa 0,0 l/m 4,8 km/h (1 Bft) O-NO 67 0 min 0,000 mm 0,0 UV-I 21 W/m 7,7 C 12,2 C 8,0 km/h (2 Bft) 91,30 %
03.06.2023 05:37 12,2 C 10,0 C 16,1 C 16,1 C 15,0 C 74 % 86 cb 55 cb 31 cb 1017,4 hPa 0,0 l/m 3,2 km/h (1 Bft) O 90 0 min 0,000 mm 0,0 UV-I 21 W/m 7,7 C 12,2 C 6,4 km/h (2 Bft) 95,65 %
03.06.2023 05:36 12,2 C 10,0 C 16,1 C 16,1 C 15,0 C 74 % 86 cb 55 cb 31 cb 1017,4 hPa 0,0 l/m 3,2 km/h (1 Bft) O-NO 67 0 min 0,000 mm 0,0 UV-I 19 W/m 7,7 C 12,2 C 6,4 km/h (2 Bft) 95,65 %
03.06.2023 05:35 12,2 C 10,0 C 16,7 C 16,1 C 15,0 C 73 % 87 cb 55 cb 31 cb 1017,5 hPa 0,0 l/m 8,0 km/h (2 Bft) O-NO 67 0 min 0,000 mm 0,0 UV-I 19 W/m 7,5 C 11,2 C 16,1 km/h (3 Bft) 95,65 %
03.06.2023 05:34 12,2 C 10,0 C 16,7 C 16,1 C 15,0 C 73 % 87 cb 55 cb 31 cb 1017,4 hPa 0,0 l/m 4,8 km/h (1 Bft) O 90 0 min 0,000 mm 0,0 UV-I 19 W/m 7,5 C 12,2 C 6,4 km/h (2 Bft) 86,96 %
03.06.2023 05:33 12,2 C 10,0 C 16,7 C 16,1 C 15,0 C 73 % 87 cb 55 cb 31 cb 1017,5 hPa 0,0 l/m 6,4 km/h (2 Bft) O-NO 67 0 min 0,000 mm 0,0 UV-I 18 W/m 7,5 C 12,2 C 9,7 km/h (2 Bft) 95,65 %
03.06.2023 05:32 12,2 C 10,0 C 16,7 C 16,1 C 15,0 C 73 % 87 cb 55 cb 31 cb 1017,3 hPa 0,0 l/m 9,7 km/h (2 Bft) O-SO 112 0 min 0,000 mm 0,0 UV-I 18 W/m 7,5 C 10,2 C 17,7 km/h (3 Bft) 91,30 %
03.06.2023 05:31 12,2 C 10,0 C 16,7 C 16,1 C 15,0 C 73 % 87 cb 55 cb 31 cb 1017,4 hPa 0,0 l/m 8,0 km/h (2 Bft) O-NO 67 0 min 0,000 mm 0,0 UV-I 16 W/m 7,5 C 11,2 C 12,9 km/h (3 Bft) 91,30 %
03.06.2023 05:30 12,2 C 10,0 C 16,7 C 16,1 C 15,0 C 73 % 87 cb 55 cb 31 cb 1017,4 hPa 0,0 l/m 6,4 km/h (2 Bft) O-NO 67 0 min 0,000 mm 0,0 UV-I 16 W/m 7,5 C 12,2 C 9,7 km/h (2 Bft) 95,65 %
03.06.2023 05:29 12,2 C 10,0 C 16,7 C 16,1 C 15,0 C 73 % 87 cb 55 cb 31 cb 1017,4 hPa 0,0 l/m 6,4 km/h (2 Bft) O 90 0 min 0,000 mm 0,0 UV-I 16 W/m 7,5 C 12,2 C 11,3 km/h (2 Bft) 95,65 %
03.06.2023 05:28 12,2 C 10,0 C 16,7 C 16,1 C 15,0 C 73 % 87 cb 55 cb 31 cb 1017,4 hPa 0,0 l/m 6,4 km/h (2 Bft) O 90 0 min 0,000 mm 0,0 UV-I 14 W/m 7,5 C 12,2 C 11,3 km/h (2 Bft) 95,65 %
03.06.2023 05:27 12,2 C 10,0 C 16,7 C 16,1 C 15,0 C 73 % 87 cb 55 cb 31 cb 1017,4 hPa 0,0 l/m 6,4 km/h (2 Bft) O 90 0 min 0,000 mm 0,0 UV-I 14 W/m 7,5 C 12,2 C 12,9 km/h (3 Bft) 91,30 %
03.06.2023 05:26 12,2 C 10,0 C 16,7 C 16,1 C 15,0 C 73 % 87 cb 55 cb 31 cb 1017,4 hPa 0,0 l/m 4,8 km/h (1 Bft) O-SO 112 0 min 0,000 mm 0,0 UV-I 12 W/m 7,5 C 12,2 C 11,3 km/h (2 Bft) 100,00 %
03.06.2023 05:25 12,2 C 10,0 C 16,7 C 16,1 C 15,0 C 73 % 87 cb 55 cb 31 cb 1017,3 hPa 0,0 l/m 6,4 km/h (2 Bft) O 90 0 min 0,000 mm 0,0 UV-I 12 W/m 7,5 C 12,2 C 11,3 km/h (2 Bft) 91,30 %
03.06.2023 05:24 12,2 C 10,0 C 16,7 C 16,1 C 15,0 C 73 % 87 cb 55 cb 31 cb 1017,4 hPa 0,0 l/m 8,0 km/h (2 Bft) O 90 0 min 0,000 mm 0,0 UV-I 12 W/m 7,5 C 11,2 C 11,3 km/h (2 Bft) 95,65 %
03.06.2023 05:23 12,2 C 10,0 C 16,7 C 16,1 C 15,0 C 73 % 87 cb 55 cb 31 cb 1017,4 hPa 0,0 l/m 9,7 km/h (2 Bft) O 90 0 min 0,000 mm 0,0 UV-I 11 W/m 7,5 C 10,2 C 12,9 km/h (3 Bft) 95,65 %
03.06.2023 05:22 12,2 C 10,0 C 16,7 C 16,1 C 15,0 C 73 % 87 cb 55 cb 31 cb 1017,4 hPa 0,0 l/m 9,7 km/h (2 Bft) O 90 0 min 0,000 mm 0,0 UV-I 11 W/m 7,5 C 10,2 C 17,7 km/h (3 Bft) 91,30 %
03.06.2023 05:21 12,3 C 10,0 C 16,7 C 16,1 C 15,0 C 73 % 87 cb 55 cb 31 cb 1017,4 hPa 0,0 l/m 8,0 km/h (2 Bft) O 90 0 min 0,000 mm 0,0 UV-I 11 W/m 7,6 C 11,3 C 11,3 km/h (2 Bft) 86,96 %
03.06.2023 05:20 12,3 C 10,0 C 16,7 C 16,1 C 15,0 C 73 % 87 cb 55 cb 31 cb 1017,3 hPa 0,0 l/m 6,4 km/h (2 Bft) O-SO 112 0 min 0,000 mm 0,0 UV-I 9 W/m 7,6 C 12,3 C 9,7 km/h (2 Bft) 91,30 %
03.06.2023 05:19 12,3 C 10,0 C 16,7 C 16,1 C 15,0 C 73 % 87 cb 55 cb 31 cb 1017,2 hPa 0,0 l/m 8,0 km/h (2 Bft) O 90 0 min 0,000 mm 0,0 UV-I 9 W/m 7,6 C 11,3 C 14,5 km/h (3 Bft) 91,30 %
03.06.2023 05:18 12,3 C 10,0 C 16,7 C 16,1 C 15,0 C 73 % 87 cb 55 cb 31 cb 1017,4 hPa 0,0 l/m 9,7 km/h (2 Bft) O 90 0 min 0,000 mm 0,0 UV-I 9 W/m 7,6 C 10,3 C 12,9 km/h (3 Bft) 91,30 %
03.06.2023 05:17 12,3 C 10,0 C 16,7 C 16,1 C 15,0 C 73 % 87 cb 55 cb 31 cb 1017,3 hPa 0,0 l/m 6,4 km/h (2 Bft) O 90 0 min 0,000 mm 0,0 UV-I 7 W/m 7,6 C 12,3 C 11,3 km/h (2 Bft) 100,00 %
03.06.2023 05:16 12,3 C 10,0 C 16,7 C 16,1 C 15,0 C 73 % 87 cb 55 cb 31 cb 1017,2 hPa 0,0 l/m 11,3 km/h (2 Bft) O-SO 112 0 min 0,000 mm 0,0 UV-I 7 W/m 7,6 C 9,5 C 14,5 km/h (3 Bft) 91,30 %
03.06.2023 05:15 12,3 C 10,0 C 16,7 C 16,1 C 15,0 C 73 % 87 cb 55 cb 31 cb 1017,2 hPa 0,0 l/m 9,7 km/h (2 Bft) O-SO 112 0 min 0,000 mm 0,0 UV-I 7 W/m 7,6 C 10,3 C 17,7 km/h (3 Bft) 91,30 %
03.06.2023 05:14 12,3 C 10,0 C 16,7 C 16,1 C 15,0 C 73 % 87 cb 55 cb 31 cb 1017,2 hPa 0,0 l/m 9,7 km/h (2 Bft) O 90 0 min 0,000 mm 0,0 UV-I 5 W/m 7,6 C 10,3 C 16,1 km/h (3 Bft) 95,65 %
03.06.2023 05:13 12,3 C 10,0 C 16,7 C 16,1 C 15,0 C 73 % 87 cb 55 cb 31 cb 1017,2 hPa 0,0 l/m 11,3 km/h (2 Bft) O-SO 112 0 min 0,000 mm 0,0 UV-I 5 W/m 7,6 C 9,5 C 16,1 km/h (3 Bft) 91,30 %
03.06.2023 05:12 12,3 C 10,0 C 16,7 C 16,1 C 15,0 C 73 % 87 cb 55 cb 31 cb 1017,2 hPa 0,0 l/m 12,9 km/h (3 Bft) O-SO 112 0 min 0,000 mm 0,0 UV-I 5 W/m 7,6 C 8,8 C 16,1 km/h (3 Bft) 86,96 %
03.06.2023 05:11 12,3 C 10,0 C 16,7 C 16,1 C 15,0 C 73 % 87 cb 55 cb 31 cb 1017,3 hPa 0,0 l/m 8,0 km/h (2 Bft) O 90 0 min 0,000 mm 0,0 UV-I 5 W/m 7,6 C 11,3 C 12,9 km/h (3 Bft) 100,00 %
03.06.2023 05:10 12,3 C 10,0 C 16,7 C 16,1 C 15,0 C 73 % 87 cb 55 cb 31 cb 1017,3 hPa 0,0 l/m 8,0 km/h (2 Bft) O 90 0 min 0,000 mm 0,0 UV-I 5 W/m 7,6 C 11,3 C 12,9 km/h (3 Bft) 91,30 %
03.06.2023 05:09 12,4 C 10,0 C 16,7 C 16,1 C 15,0 C 73 % 87 cb 55 cb 31 cb 1017,3 hPa 0,0 l/m 11,3 km/h (2 Bft) O 90 0 min 0,000 mm 0,0 UV-I 0 W/m 7,7 C 9,6 C 16,1 km/h (3 Bft) 86,96 %
03.06.2023 05:08 12,4 C 10,0 C 16,7 C 16,1 C 15,0 C 73 % 87 cb 55 cb 31 cb 1017,3 hPa 0,0 l/m 6,4 km/h (2 Bft) O-SO 112 0 min 0,000 mm 0,0 UV-I 0 W/m 7,7 C 12,4 C 11,3 km/h (2 Bft) 13,04 %
03.06.2023 05:07 12,4 C 10,0 C 16,7 C 16,1 C 15,0 C 73 % 87 cb 55 cb 31 cb 1017,2 hPa 0,0 l/m 11,3 km/h (2 Bft) O-SO 112 0 min 0,000 mm 0,0 UV-I 0 W/m 7,7 C 9,6 C 24,1 km/h (4 Bft) 13,04 %
03.06.2023 05:06 12,4 C 10,0 C 16,7 C 16,1 C 15,0 C 73 % 87 cb 55 cb 31 cb 1017,3 hPa 0,0 l/m 9,7 km/h (2 Bft) O 90 0 min 0,000 mm 0,0 UV-I 0 W/m 7,7 C 10,4 C 14,5 km/h (3 Bft) 95,65 %
03.06.2023 05:05 12,4 C 10,0 C 16,7 C 16,1 C 15,0 C 73 % 87 cb 55 cb 31 cb 1017,2 hPa 0,0 l/m 14,5 km/h (3 Bft) O 90 0 min 0,000 mm 0,0 UV-I 0 W/m 7,7 C 8,2 C 24,1 km/h (4 Bft) 95,65 %
03.06.2023 05:04 12,4 C 10,0 C 16,7 C 16,1 C 15,0 C 73 % 87 cb 55 cb 31 cb 1017,2 hPa 0,0 l/m 6,4 km/h (2 Bft) SO 135 0 min 0,000 mm 0,0 UV-I 0 W/m 7,7 C 12,4 C 11,3 km/h (2 Bft) 95,65 %
03.06.2023 05:03 12,3 C 10,0 C 16,7 C 16,1 C 15,0 C 73 % 87 cb 55 cb 31 cb 1017,3 hPa 0,0 l/m 12,9 km/h (3 Bft) O 90 0 min 0,000 mm 0,0 UV-I 0 W/m 7,6 C 8,8 C 17,7 km/h (3 Bft) 86,96 %
03.06.2023 05:02 12,3 C 10,0 C 16,7 C 16,1 C 15,0 C 73 % 87 cb 55 cb 31 cb 1017,2 hPa 0,0 l/m 11,3 km/h (2 Bft) O 90 0 min 0,000 mm 0,0 UV-I 0 W/m 7,6 C 9,5 C 17,7 km/h (3 Bft) 95,65 %
03.06.2023 05:01 12,3 C 10,0 C 16,7 C 16,1 C 15,0 C 73 % 87 cb 55 cb 31 cb 1017,2 hPa 0,0 l/m 9,7 km/h (2 Bft) SO 135 0 min 0,000 mm 0,0 UV-I 0 W/m 7,6 C 10,3 C 17,7 km/h (3 Bft) 91,30 %
03.06.2023 05:00 12,3 C 10,0 C 16,7 C 16,1 C 15,0 C 73 % 87 cb 55 cb 31 cb 1017,1 hPa 0,0 l/m 8,0 km/h (2 Bft) O-SO 112 0 min 0,025 mm 0,0 UV-I 0 W/m 7,6 C 11,3 C 11,3 km/h (2 Bft) 95,65 %
03.06.2023 04:59 12,4 C 10,0 C 16,7 C 16,1 C 15,0 C 73 % 87 cb 55 cb 31 cb 1017,1 hPa 0,0 l/m 11,3 km/h (2 Bft) SO 135 0 min 0,000 mm 0,0 UV-I 0 W/m 7,7 C 9,6 C 14,5 km/h (3 Bft) 95,65 %
03.06.2023 04:58 12,3 C 10,0 C 16,7 C 16,1 C 15,0 C 73 % 87 cb 55 cb 31 cb 1017,2 hPa 0,0 l/m 9,7 km/h (2 Bft) O-NO 67 0 min 0,000 mm 0,0 UV-I 0 W/m 7,6 C 10,3 C 16,1 km/h (3 Bft) 91,30 %
03.06.2023 04:57 12,3 C 10,0 C 16,7 C 16,1 C 15,0 C 73 % 86 cb 55 cb 31 cb 1017,1 hPa 0,0 l/m 11,3 km/h (2 Bft) O-SO 112 0 min 0,000 mm 0,0 UV-I 0 W/m 7,6 C 9,5 C 17,7 km/h (3 Bft) 95,65 %
03.06.2023 04:56 12,3 C 9,4 C 16,7 C 16,1 C 15,0 C 73 % 86 cb 55 cb 31 cb 1017,2 hPa 0,0 l/m 11,3 km/h (2 Bft) O 90 0 min 0,000 mm 0,0 UV-I 0 W/m 7,6 C 9,5 C 17,7 km/h (3 Bft) 91,30 %
03.06.2023 04:55 12,3 C 9,4 C 16,7 C 16,1 C 15,0 C 74 % 86 cb 55 cb 31 cb 1017,1 hPa 0,0 l/m 11,3 km/h (2 Bft) O 90 0 min 0,000 mm 0,0 UV-I 0 W/m 7,8 C 9,5 C 16,1 km/h (3 Bft) 95,65 %
03.06.2023 04:54 12,4 C 9,4 C 16,7 C 16,1 C 15,0 C 74 % 86 cb 55 cb 31 cb 1017,1 hPa 0,0 l/m 8,0 km/h (2 Bft) O 90 0 min 0,000 mm 0,0 UV-I 0 W/m 7,9 C 11,4 C 12,9 km/h (3 Bft) 91,30 %
03.06.2023 04:53 12,3 C 9,4 C 16,7 C 16,1 C 15,0 C 74 % 86 cb 55 cb 31 cb 1017,1 hPa 0,0 l/m 8,0 km/h (2 Bft) O 90 0 min 0,000 mm 0,0 UV-I 0 W/m 7,8 C 11,3 C 11,3 km/h (2 Bft) 100,00 %
03.06.2023 04:52 12,3 C 9,4 C 16,7 C 16,1 C 15,0 C 74 % 86 cb 55 cb 31 cb 1017,2 hPa 0,0 l/m 9,7 km/h (2 Bft) O 90 0 min 0,000 mm 0,0 UV-I 0 W/m 7,8 C 10,3 C 16,1 km/h (3 Bft) 86,96 %
03.06.2023 04:51 12,4 C 9,4 C 16,7 C 16,1 C 15,0 C 74 % 86 cb 55 cb 31 cb 1017,2 hPa 0,0 l/m 8,0 km/h (2 Bft) O 90 0 min 0,000 mm 0,0 UV-I 0 W/m 7,9 C 11,4 C 11,3 km/h (2 Bft) 91,30 %
03.06.2023 04:50 12,4 C 9,4 C 16,7 C 16,1 C 15,0 C 74 % 86 cb 55 cb 31 cb 1017,1 hPa 0,0 l/m 4,8 km/h (1 Bft) O-SO 112 0 min 0,000 mm 0,0 UV-I 0 W/m 7,9 C 12,4 C 6,4 km/h (2 Bft) 91,30 %
03.06.2023 04:49 12,4 C 9,4 C 16,7 C 16,1 C 15,0 C 74 % 86 cb 55 cb 31 cb 1017,1 hPa 0,0 l/m 6,4 km/h (2 Bft) O-NO 67 0 min 0,000 mm 0,0 UV-I 0 W/m 7,9 C 12,4 C 14,5 km/h (3 Bft) 95,65 %
03.06.2023 04:48 12,4 C 10,0 C 16,7 C 16,1 C 15,0 C 74 % 86 cb 55 cb 31 cb 1017,1 hPa 0,0 l/m 6,4 km/h (2 Bft) O 90 0 min 0,000 mm 0,0 UV-I 0 W/m 7,9 C 12,4 C 14,5 km/h (3 Bft) 91,30 %
03.06.2023 04:47 12,4 C 10,0 C 16,7 C 16,1 C 15,0 C 74 % 86 cb 55 cb 31 cb 1017,2 hPa 0,0 l/m 3,2 km/h (1 Bft) O-NO 67 0 min 0,000 mm 0,0 UV-I 0 W/m 7,9 C 12,4 C 11,3 km/h (2 Bft) 91,30 %
03.06.2023 04:46 12,5 C 10,0 C 16,7 C 16,1 C 15,0 C 74 % 86 cb 55 cb 31 cb 1017,2 hPa 0,0 l/m 4,8 km/h (1 Bft) O-NO 67 0 min 0,000 mm 0,0 UV-I 0 W/m 8,0 C 12,5 C 6,4 km/h (2 Bft) 95,65 %
03.06.2023 04:45 12,5 C 10,0 C 16,7 C 16,1 C 15,0 C 74 % 86 cb 55 cb 31 cb 1017,1 hPa 0,0 l/m 4,8 km/h (1 Bft) O 90 0 min 0,000 mm 0,0 UV-I 0 W/m 8,0 C 12,5 C 11,3 km/h (2 Bft) 91,30 %
03.06.2023 04:44 12,5 C 10,0 C 16,7 C 16,1 C 15,0 C 74 % 86 cb 55 cb 31 cb 1017,0 hPa 0,0 l/m 6,4 km/h (2 Bft) O-NO 67 0 min 0,000 mm 0,0 UV-I 0 W/m 8,0 C 12,5 C 11,3 km/h (2 Bft) 95,65 %
03.06.2023 04:43 12,5 C 10,0 C 16,7 C 16,1 C 15,0 C 74 % 86 cb 55 cb 31 cb 1017,1 hPa 0,0 l/m 6,4 km/h (2 Bft) O-NO 67 0 min 0,000 mm 0,0 UV-I 0 W/m 8,0 C 12,5 C 9,7 km/h (2 Bft) 95,65 %
03.06.2023 04:42 12,6 C 10,0 C 16,7 C 16,1 C 15,0 C 74 % 86 cb 55 cb 31 cb 1017,1 hPa 0,0 l/m 4,8 km/h (1 Bft) O 90 0 min 0,000 mm 0,0 UV-I 0 W/m 8,1 C 12,6 C 12,9 km/h (3 Bft) 95,65 %
03.06.2023 04:41 12,6 C 10,0 C 16,7 C 16,1 C 15,0 C 74 % 86 cb 55 cb 31 cb 1017,0 hPa 0,0 l/m 6,4 km/h (2 Bft) O 90 0 min 0,000 mm 0,0 UV-I 0 W/m 8,1 C 12,6 C 9,7 km/h (2 Bft) 86,96 %
03.06.2023 04:40 12,6 C 10,0 C 16,7 C 16,1 C 15,0 C 74 % 86 cb 55 cb 31 cb 1017,1 hPa 0,0 l/m 11,3 km/h (2 Bft) O-SO 112 0 min 0,000 mm 0,0 UV-I 0 W/m 8,1 C 9,8 C 19,3 km/h (3 Bft) 100,00 %
03.06.2023 04:39 12,6 C 10,0 C 16,7 C 16,1 C 15,0 C 74 % 86 cb 55 cb 31 cb 1017,0 hPa 0,0 l/m 6,4 km/h (2 Bft) O 90 0 min 0,000 mm 0,0 UV-I 0 W/m 8,1 C 12,6 C 12,9 km/h (3 Bft) 91,30 %
03.06.2023 04:38 12,6 C 10,0 C 16,7 C 16,1 C 15,0 C 74 % 86 cb 55 cb 31 cb 1017,0 hPa 0,0 l/m 4,8 km/h (1 Bft) O 90 0 min 0,000 mm 0,0 UV-I 0 W/m 8,1 C 12,6 C 8,0 km/h (2 Bft) 91,30 %
03.06.2023 04:37 12,6 C 10,0 C 16,7 C 16,1 C 15,0 C 74 % 86 cb 55 cb 31 cb 1017,1 hPa 0,0 l/m 8,0 km/h (2 Bft) O 90 0 min 0,000 mm 0,0 UV-I 0 W/m 8,1 C 11,6 C 14,5 km/h (3 Bft) 95,65 %
03.06.2023 04:36 12,6 C 10,0 C 16,7 C 16,1 C 15,0 C 74 % 86 cb 55 cb 31 cb 1017,0 hPa 0,0 l/m 6,4 km/h (2 Bft) O 90 0 min 0,000 mm 0,0 UV-I 0 W/m 8,1 C 12,6 C 12,9 km/h (3 Bft) 95,65 %
03.06.2023 04:35 12,6 C 10,0 C 16,7 C 16,1 C 15,0 C 74 % 86 cb 55 cb 31 cb 1017,0 hPa 0,0 l/m 6,4 km/h (2 Bft) O 90 0 min 0,000 mm 0,0 UV-I 0 W/m 8,1 C 12,6 C 8,0 km/h (2 Bft) 91,30 %
03.06.2023 04:34 12,7 C 10,0 C 16,7 C 16,1 C 15,0 C 74 % 86 cb 55 cb 31 cb 1017,1 hPa 0,0 l/m 6,4 km/h (2 Bft) O 90 0 min 0,000 mm 0,0 UV-I 0 W/m 8,2 C 12,7 C 9,7 km/h (2 Bft) 95,65 %
03.06.2023 04:33 12,7 C 10,0 C 16,7 C 16,1 C 15,0 C 74 % 86 cb 55 cb 31 cb 1017,1 hPa 0,0 l/m 4,8 km/h (1 Bft) O 90 0 min 0,000 mm 0,0 UV-I 0 W/m 8,2 C 12,7 C 9,7 km/h (2 Bft) 95,65 %
03.06.2023 04:32 12,7 C 10,0 C 16,7 C 16,1 C 15,0 C 74 % 86 cb 55 cb 31 cb 1017,1 hPa 0,0 l/m 4,8 km/h (1 Bft) O-SO 112 0 min 0,000 mm 0,0 UV-I 0 W/m 8,2 C 12,7 C 9,7 km/h (2 Bft) 86,96 %
03.06.2023 04:31 12,7 C 10,0 C 16,7 C 16,1 C 15,0 C 74 % 86 cb 55 cb 31 cb 1017,1 hPa 0,0 l/m 6,4 km/h (2 Bft) O-SO 112 0 min 0,000 mm 0,0 UV-I 0 W/m 8,2 C 12,7 C 9,7 km/h (2 Bft) 100,00 %
03.06.2023 04:30 12,7 C 10,0 C 16,7 C 16,7 C 15,0 C 74 % 86 cb 56 cb 31 cb 1017,1 hPa 0,0 l/m 4,8 km/h (1 Bft) O 90 0 min 0,000 mm 0,0 UV-I 0 W/m 8,2 C 12,7 C 8,0 km/h (2 Bft) 86,96 %
03.06.2023 04:29 12,8 C 10,0 C 16,7 C 16,7 C 15,0 C 73 % 86 cb 56 cb 31 cb 1017,1 hPa 0,0 l/m 8,0 km/h (2 Bft) O-SO 112 0 min 0,000 mm 0,0 UV-I 0 W/m 8,1 C 11,8 C 11,3 km/h (2 Bft) 95,65 %
03.06.2023 04:28 12,8 C 10,0 C 16,7 C 16,7 C 15,0 C 73 % 86 cb 56 cb 31 cb 1017,0 hPa 0,0 l/m 6,4 km/h (2 Bft) O-SO 112 0 min 0,000 mm 0,0 UV-I 0 W/m 8,1 C 12,8 C 9,7 km/h (2 Bft) 95,65 %
03.06.2023 04:27 12,8 C 10,6 C 16,7 C 16,7 C 15,0 C 73 % 86 cb 56 cb 31 cb 1017,1 hPa 0,0 l/m 6,4 km/h (2 Bft) O-SO 112 0 min 0,000 mm 0,0 UV-I 0 W/m 8,1 C 12,8 C 9,7 km/h (2 Bft) 95,65 %
03.06.2023 04:26 12,8 C 10,6 C 16,7 C 16,7 C 15,0 C 73 % 86 cb 56 cb 31 cb 1017,0 hPa 0,0 l/m 4,8 km/h (1 Bft) O-SO 112 0 min 0,000 mm 0,0 UV-I 0 W/m 8,1 C 12,8 C 9,7 km/h (2 Bft) 91,30 %
03.06.2023 04:25 12,8 C 10,6 C 16,7 C 16,7 C 15,0 C 73 % 86 cb 56 cb 31 cb 1017,1 hPa 0,0 l/m 8,0 km/h (2 Bft) O 90 0 min 0,000 mm 0,0 UV-I 0 W/m 8,1 C 11,8 C 11,3 km/h (2 Bft) 100,00 %
03.06.2023 04:24 12,8 C 10,6 C 16,7 C 16,7 C 15,0 C 73 % 86 cb 56 cb 31 cb 1017,1 hPa 0,0 l/m 4,8 km/h (1 Bft) SO 135 0 min 0,000 mm 0,0 UV-I 0 W/m 8,1 C 12,8 C 11,3 km/h (2 Bft) 91,30 %
03.06.2023 04:23 12,8 C 10,6 C 16,7 C 16,7 C 15,0 C 73 % 86 cb 56 cb 31 cb 1017,0 hPa 0,0 l/m 8,0 km/h (2 Bft) O 90 0 min 0,000 mm 0,0 UV-I 0 W/m 8,1 C 11,8 C 14,5 km/h (3 Bft) 86,96 %
03.06.2023 04:22 12,9 C 10,6 C 16,7 C 16,7 C 15,0 C 73 % 86 cb 56 cb 31 cb 1017,1 hPa 0,0 l/m 4,8 km/h (1 Bft) O 90 0 min 0,000 mm 0,0 UV-I 0 W/m 8,2 C 12,9 C 9,7 km/h (2 Bft) 100,00 %
03.06.2023 04:21 12,9 C 10,6 C 16,7 C 16,7 C 15,0 C 73 % 86 cb 56 cb 31 cb 1017,0 hPa 0,0 l/m 6,4 km/h (2 Bft) O 90 0 min 0,000 mm 0,0 UV-I 0 W/m 8,2 C 12,9 C 11,3 km/h (2 Bft) 91,30 %
03.06.2023 04:20 12,9 C 10,6 C 16,7 C 16,7 C 15,0 C 73 % 86 cb 56 cb 31 cb 1017,1 hPa 0,0 l/m 8,0 km/h (2 Bft) O-SO 112 0 min 0,000 mm 0,0 UV-I 0 W/m 8,2 C 11,9 C 14,5 km/h (3 Bft) 95,65 %
03.06.2023 04:19 12,9 C 10,6 C 16,7 C 16,7 C 15,0 C 73 % 86 cb 56 cb 31 cb 1017,1 hPa 0,0 l/m 8,0 km/h (2 Bft) O-SO 112 0 min 0,000 mm 0,0 UV-I 0 W/m 8,2 C 11,9 C 11,3 km/h (2 Bft) 95,65 %
03.06.2023 04:18 12,9 C 10,6 C 16,7 C 16,7 C 15,0 C 73 % 86 cb 56 cb 31 cb 1017,1 hPa 0,0 l/m 8,0 km/h (2 Bft) O 90 0 min 0,000 mm 0,0 UV-I 0 W/m 8,2 C 11,9 C 14,5 km/h (3 Bft) 95,65 %
03.06.2023 04:17 13,0 C 10,6 C 16,7 C 16,7 C 15,0 C 72 % 86 cb 56 cb 31 cb 1017,1 hPa 0,0 l/m 8,0 km/h (2 Bft) O-SO 112 0 min 0,000 mm 0,0 UV-I 0 W/m 8,1 C 12,0 C 11,3 km/h (2 Bft) 91,30 %
03.06.2023 04:16 13,0 C 10,6 C 16,7 C 16,7 C 15,0 C 72 % 86 cb 56 cb 31 cb 1017,1 hPa 0,0 l/m 9,7 km/h (2 Bft) O-SO 112 0 min 0,000 mm 0,0 UV-I 0 W/m 8,1 C 11,1 C 11,3 km/h (2 Bft) 91,30 %
03.06.2023 04:15 13,0 C 10,6 C 16,7 C 16,7 C 15,0 C 72 % 86 cb 56 cb 31 cb 1017,1 hPa 0,0 l/m 6,4 km/h (2 Bft) O-SO 112 0 min 0,000 mm 0,0 UV-I 0 W/m 8,1 C 13,0 C 9,7 km/h (2 Bft) 91,30 %
03.06.2023 04:14 13,0 C 10,6 C 16,7 C 16,7 C 15,0 C 72 % 86 cb 56 cb 31 cb 1017,1 hPa 0,0 l/m 6,4 km/h (2 Bft) O 90 0 min 0,000 mm 0,0 UV-I 0 W/m 8,1 C 13,0 C 14,5 km/h (3 Bft) 91,30 %
03.06.2023 04:13 13,0 C 10,6 C 16,7 C 16,7 C 15,0 C 72 % 86 cb 56 cb 31 cb 1017,0 hPa 0,0 l/m 9,7 km/h (2 Bft) O-SO 112 0 min 0,000 mm 0,0 UV-I 0 W/m 8,1 C 11,1 C 16,1 km/h (3 Bft) 91,30 %
03.06.2023 04:12 13,1 C 10,6 C 16,7 C 16,7 C 15,0 C 72 % 86 cb 56 cb 31 cb 1017,1 hPa 0,0 l/m 11,3 km/h (2 Bft) O-SO 112 0 min 0,000 mm 0,0 UV-I 0 W/m 8,2 C 10,4 C 16,1 km/h (3 Bft) 91,30 %
03.06.2023 04:11 13,1 C 10,6 C 16,7 C 16,7 C 15,0 C 72 % 86 cb 56 cb 31 cb 1017,0 hPa 0,0 l/m 11,3 km/h (2 Bft) O-SO 112 0 min 0,000 mm 0,0 UV-I 0 W/m 8,2 C 10,4 C 16,1 km/h (3 Bft) 95,65 %
03.06.2023 04:10 13,1 C 10,6 C 16,7 C 16,7 C 15,0 C 72 % 86 cb 56 cb 31 cb 1017,1 hPa 0,0 l/m 9,7 km/h (2 Bft) O-SO 112 0 min 0,000 mm 0,0 UV-I 0 W/m 8,2 C 11,2 C 14,5 km/h (3 Bft) 95,65 %
03.06.2023 04:09 13,1 C 10,6 C 16,7 C 16,7 C 15,0 C 72 % 86 cb 56 cb 31 cb 1017,0 hPa 0,0 l/m 11,3 km/h (2 Bft) O-SO 112 0 min 0,000 mm 0,0 UV-I 0 W/m 8,2 C 10,4 C 16,1 km/h (3 Bft) 86,96 %
03.06.2023 04:08 13,2 C 10,6 C 16,7 C 16,7 C 15,0 C 72 % 86 cb 56 cb 31 cb 1017,0 hPa 0,0 l/m 6,4 km/h (2 Bft) O 90 0 min 0,000 mm 0,0 UV-I 0 W/m 8,3 C 13,2 C 12,9 km/h (3 Bft) 91,30 %
03.06.2023 04:07 13,2 C 10,6 C 16,7 C 16,7 C 15,0 C 72 % 86 cb 56 cb 31 cb 1017,0 hPa 0,0 l/m 8,0 km/h (2 Bft) O 90 0 min 0,000 mm 0,0 UV-I 0 W/m 8,3 C 12,2 C 12,9 km/h (3 Bft) 91,30 %
03.06.2023 04:06 13,2 C 10,6 C 16,7 C 16,7 C 15,0 C 72 % 86 cb 56 cb 31 cb 1016,9 hPa 0,0 l/m 9,7 km/h (2 Bft) O-SO 112 0 min 0,000 mm 0,0 UV-I 0 W/m 8,3 C 11,3 C 12,9 km/h (3 Bft) 82,61 %
03.06.2023 04:05 13,2 C 11,1 C 16,7 C 16,7 C 15,0 C 72 % 86 cb 56 cb 31 cb 1017,0 hPa 0,0 l/m 8,0 km/h (2 Bft) O-SO 112 0 min 0,000 mm 0,0 UV-I 0 W/m 8,3 C 12,2 C 14,5 km/h (3 Bft) 95,65 %
03.06.2023 04:04 13,2 C 11,1 C 16,7 C 16,7 C 15,0 C 72 % 86 cb 56 cb 31 cb 1016,9 hPa 0,0 l/m 6,4 km/h (2 Bft) O-NO 67 0 min 0,000 mm 0,0 UV-I 0 W/m 8,3 C 13,2 C 12,9 km/h (3 Bft) 95,65 %
03.06.2023 04:03 13,2 C 11,1 C 16,7 C 16,7 C 15,0 C 72 % 86 cb 56 cb 31 cb 1016,9 hPa 0,0 l/m 9,7 km/h (2 Bft) O-SO 112 0 min 0,000 mm 0,0 UV-I 0 W/m 8,3 C 11,3 C 14,5 km/h (3 Bft) 95,65 %
03.06.2023 04:02 13,2 C 11,1 C 16,7 C 16,7 C 15,0 C 72 % 86 cb 56 cb 31 cb 1017,0 hPa 0,0 l/m 11,3 km/h (2 Bft) O 90 0 min 0,000 mm 0,0 UV-I 0 W/m 8,3 C 10,5 C 16,1 km/h (3 Bft) 91,30 %
03.06.2023 04:01 13,2 C 11,1 C 16,7 C 16,7 C 15,0 C 72 % 86 cb 56 cb 31 cb 1016,9 hPa 0,0 l/m 11,3 km/h (2 Bft) O-SO 112 0 min 0,000 mm 0,0 UV-I 0 W/m 8,3 C 10,5 C 16,1 km/h (3 Bft) 91,30 %
03.06.2023 04:00 13,3 C 11,1 C 16,7 C 16,7 C 15,0 C 72 % 86 cb 56 cb 31 cb 1016,9 hPa 0,0 l/m 12,9 km/h (3 Bft) O-SO 112 0 min 0,051 mm 0,0 UV-I 0 W/m 8,4 C 9,9 C 19,3 km/h (3 Bft) 95,65 %
03.06.2023 03:59 13,3 C 11,1 C 16,7 C 16,7 C 15,0 C 72 % 86 cb 56 cb 31 cb 1016,9 hPa 0,0 l/m 11,3 km/h (2 Bft) O-SO 112 0 min 0,000 mm 0,0 UV-I 0 W/m 8,4 C 10,6 C 16,1 km/h (3 Bft) 91,30 %
03.06.2023 03:58 13,3 C 11,1 C 16,7 C 16,7 C 15,0 C 72 % 86 cb 56 cb 31 cb 1016,9 hPa 0,0 l/m 14,5 km/h (3 Bft) O-SO 112 0 min 0,000 mm 0,0 UV-I 0 W/m 8,4 C 9,3 C 19,3 km/h (3 Bft) 91,30 %
03.06.2023 03:57 13,3 C 11,1 C 16,7 C 16,7 C 15,0 C 72 % 86 cb 56 cb 31 cb 1016,9 hPa 0,0 l/m 11,3 km/h (2 Bft) O 90 0 min 0,000 mm 0,0 UV-I 0 W/m 8,4 C 10,6 C 16,1 km/h (3 Bft) 95,65 %
03.06.2023 03:56 13,3 C 11,1 C 16,7 C 16,7 C 15,0 C 72 % 86 cb 56 cb 31 cb 1016,8 hPa 0,0 l/m 8,0 km/h (2 Bft) O-SO 112 0 min 0,000 mm 0,0 UV-I 0 W/m 8,4 C 12,3 C 12,9 km/h (3 Bft) 95,65 %
03.06.2023 03:55 13,3 C 11,1 C 16,7 C 16,7 C 15,0 C 72 % 86 cb 56 cb 31 cb 1016,9 hPa 0,0 l/m 8,0 km/h (2 Bft) O 90 0 min 0,000 mm 0,0 UV-I 0 W/m 8,4 C 12,3 C 12,9 km/h (3 Bft) 91,30 %
03.06.2023 03:54 13,3 C 11,1 C 16,7 C 16,7 C 15,0 C 72 % 86 cb 56 cb 31 cb 1016,9 hPa 0,0 l/m 11,3 km/h (2 Bft) O-SO 112 0 min 0,000 mm 0,0 UV-I 0 W/m 8,4 C 10,6 C 14,5 km/h (3 Bft) 91,30 %
03.06.2023 03:53 13,4 C 11,1 C 16,7 C 16,7 C 15,0 C 72 % 86 cb 56 cb 31 cb 1016,9 hPa 0,0 l/m 14,5 km/h (3 Bft) O-SO 112 0 min 0,000 mm 0,0 UV-I 0 W/m 8,5 C 9,4 C 17,7 km/h (3 Bft) 91,30 %
03.06.2023 03:52 13,4 C 11,1 C 16,7 C 16,7 C 15,0 C 72 % 86 cb 56 cb 31 cb 1016,9 hPa 0,0 l/m 12,9 km/h (3 Bft) O-SO 112 0 min 0,000 mm 0,0 UV-I 0 W/m 8,5 C 10,1 C 20,9 km/h (4 Bft) 95,65 %
03.06.2023 03:51 13,4 C 11,1 C 16,7 C 16,7 C 15,0 C 71 % 86 cb 56 cb 31 cb 1016,9 hPa 0,0 l/m 11,3 km/h (2 Bft) O 90 0 min 0,000 mm 0,0 UV-I 0 W/m 8,3 C 10,7 C 16,1 km/h (3 Bft) 95,65 %
03.06.2023 03:50 13,4 C 11,1 C 16,7 C 16,7 C 15,0 C 72 % 86 cb 56 cb 31 cb 1016,9 hPa 0,0 l/m 12,9 km/h (3 Bft) O-SO 112 0 min 0,000 mm 0,0 UV-I 0 W/m 8,5 C 10,1 C 17,7 km/h (3 Bft) 91,30 %
03.06.2023 03:49 13,4 C 11,1 C 16,7 C 16,7 C 15,0 C 72 % 86 cb 56 cb 31 cb 1016,9 hPa 0,0 l/m 9,7 km/h (2 Bft) O-SO 112 0 min 0,000 mm 0,0 UV-I 0 W/m 8,5 C 11,5 C 14,5 km/h (3 Bft) 91,30 %
03.06.2023 03:48 13,4 C 11,1 C 16,7 C 16,7 C 15,0 C 72 % 86 cb 56 cb 31 cb 1016,9 hPa 0,0 l/m 9,7 km/h (2 Bft) O 90 0 min 0,000 mm 0,0 UV-I 0 W/m 8,5 C 11,5 C 14,5 km/h (3 Bft) 91,30 %
03.06.2023 03:47 13,4 C 11,1 C 16,7 C 16,7 C 15,0 C 72 % 86 cb 56 cb 31 cb 1016,9 hPa 0,0 l/m 12,9 km/h (3 Bft) O-SO 112 0 min 0,000 mm 0,0 UV-I 0 W/m 8,5 C 10,1 C 19,3 km/h (3 Bft) 95,65 %
03.06.2023 03:46 13,5 C 11,1 C 16,7 C 16,7 C 15,0 C 72 % 86 cb 56 cb 31 cb 1016,9 hPa 0,0 l/m 9,7 km/h (2 Bft) O-SO 112 0 min 0,000 mm 0,0 UV-I 0 W/m 8,6 C 11,6 C 16,1 km/h (3 Bft) 86,96 %
03.06.2023 03:45 13,5 C 11,1 C 16,7 C 16,7 C 15,0 C 72 % 86 cb 56 cb 31 cb 1017,0 hPa 0,0 l/m 11,3 km/h (2 Bft) O-SO 112 0 min 0,000 mm 0,0 UV-I 0 W/m 8,6 C 10,9 C 16,1 km/h (3 Bft) 91,30 %
03.06.2023 03:44 13,5 C 11,1 C 16,7 C 16,7 C 15,0 C 72 % 86 cb 56 cb 31 cb 1016,9 hPa 0,0 l/m 11,3 km/h (2 Bft) O-SO 112 0 min 0,000 mm 0,0 UV-I 0 W/m 8,6 C 10,9 C 14,5 km/h (3 Bft) 86,96 %
03.06.2023 03:43 13,5 C 11,1 C 16,7 C 16,7 C 15,0 C 72 % 86 cb 56 cb 31 cb 1016,9 hPa 0,0 l/m 9,7 km/h (2 Bft) SO 135 0 min 0,000 mm 0,0 UV-I 0 W/m 8,6 C 11,6 C 14,5 km/h (3 Bft) 95,65 %
03.06.2023 03:42 13,6 C 11,1 C 16,7 C 16,7 C 15,0 C 72 % 86 cb 56 cb 31 cb 1016,9 hPa 0,0 l/m 12,9 km/h (3 Bft) O-SO 112 0 min 0,000 mm 0,0 UV-I 0 W/m 8,6 C 10,3 C 17,7 km/h (3 Bft) 91,30 %
03.06.2023 03:41 13,6 C 11,1 C 16,7 C 16,7 C 15,0 C 72 % 86 cb 56 cb 31 cb 1017,0 hPa 0,0 l/m 12,9 km/h (3 Bft) O-SO 112 0 min 0,000 mm 0,0 UV-I 0 W/m 8,6 C 10,3 C 19,3 km/h (3 Bft) 91,30 %
03.06.2023 03:40 13,6 C 11,1 C 16,7 C 16,7 C 15,0 C 72 % 86 cb 56 cb 31 cb 1016,9 hPa 0,0 l/m 8,0 km/h (2 Bft) O-SO 112 0 min 0,000 mm 0,0 UV-I 0 W/m 8,6 C 12,6 C 12,9 km/h (3 Bft) 86,96 %
03.06.2023 03:39 13,6 C 11,1 C 16,7 C 16,7 C 15,0 C 72 % 86 cb 56 cb 31 cb 1016,8 hPa 0,0 l/m 12,9 km/h (3 Bft) O-SO 112 0 min 0,000 mm 0,0 UV-I 0 W/m 8,6 C 10,3 C 17,7 km/h (3 Bft) 91,30 %
03.06.2023 03:38 13,6 C 11,1 C 16,7 C 16,7 C 15,0 C 72 % 86 cb 55 cb 31 cb 1017,0 hPa 0,0 l/m 12,9 km/h (3 Bft) O-SO 112 0 min 0,000 mm 0,0 UV-I 0 W/m 8,6 C 10,3 C 19,3 km/h (3 Bft) 95,65 %
03.06.2023 03:37 13,7 C 11,1 C 16,7 C 16,7 C 15,0 C 72 % 86 cb 55 cb 31 cb 1017,0 hPa 0,0 l/m 3,2 km/h (1 Bft) O-SO 112 0 min 0,000 mm 0,0 UV-I 0 W/m 8,7 C 13,7 C 8,0 km/h (2 Bft) 91,30 %
03.06.2023 03:36 13,7 C 11,1 C 16,7 C 16,7 C 15,0 C 72 % 86 cb 55 cb 31 cb 1017,0 hPa 0,0 l/m 4,8 km/h (1 Bft) O-SO 112 0 min 0,000 mm 0,0 UV-I 0 W/m 8,7 C 13,7 C 9,7 km/h (2 Bft) 100,00 %
03.06.2023 03:35 13,7 C 11,1 C 16,7 C 16,7 C 15,0 C 72 % 86 cb 55 cb 31 cb 1017,0 hPa 0,0 l/m 6,4 km/h (2 Bft) O-SO 112 0 min 0,000 mm 0,0 UV-I 0 W/m 8,7 C 13,7 C 11,3 km/h (2 Bft) 91,30 %
03.06.2023 03:34 13,7 C 11,1 C 16,7 C 16,7 C 15,0 C 72 % 86 cb 55 cb 31 cb 1016,9 hPa 0,0 l/m 8,0 km/h (2 Bft) O-SO 112 0 min 0,000 mm 0,0 UV-I 0 W/m 8,7 C 12,7 C 11,3 km/h (2 Bft) 95,65 %
03.06.2023 03:33 13,7 C 11,1 C 16,7 C 16,7 C 15,0 C 72 % 86 cb 55 cb 31 cb 1017,0 hPa 0,0 l/m 8,0 km/h (2 Bft) O 90 0 min 0,000 mm 0,0 UV-I 0 W/m 8,7 C 12,7 C 11,3 km/h (2 Bft) 95,65 %
03.06.2023 03:32 13,7 C 11,1 C 16,7 C 16,7 C 15,0 C 72 % 86 cb 55 cb 31 cb 1017,0 hPa 0,0 l/m 4,8 km/h (1 Bft) O 90 0 min 0,000 mm 0,0 UV-I 0 W/m 8,7 C 13,7 C 9,7 km/h (2 Bft) 91,30 %
03.06.2023 03:31 13,7 C 11,1 C 16,7 C 16,7 C 15,0 C 72 % 86 cb 55 cb 31 cb 1017,0 hPa 0,0 l/m 8,0 km/h (2 Bft) O-SO 112 0 min 0,000 mm 0,0 UV-I 0 W/m 8,7 C 12,7 C 12,9 km/h (3 Bft) 91,30 %
03.06.2023 03:30 13,8 C 11,1 C 16,7 C 16,7 C 15,0 C 72 % 86 cb 55 cb 31 cb 1017,0 hPa 0,0 l/m 12,9 km/h (3 Bft) O-SO 112 0 min 0,000 mm 0,0 UV-I 0 W/m 8,8 C 10,5 C 16,1 km/h (3 Bft) 100,00 %
03.06.2023 03:29 13,8 C 11,1 C 16,7 C 16,7 C 15,0 C 72 % 86 cb 55 cb 31 cb 1016,9 hPa 0,0 l/m 8,0 km/h (2 Bft) O-SO 112 0 min 0,000 mm 0,0 UV-I 0 W/m 8,8 C 12,8 C 11,3 km/h (2 Bft) 86,96 %
03.06.2023 03:28 13,8 C 11,1 C 16,7 C 16,7 C 15,0 C 72 % 86 cb 55 cb 31 cb 1016,9 hPa 0,0 l/m 4,8 km/h (1 Bft) O-SO 112 0 min 0,000 mm 0,0 UV-I 0 W/m 8,8 C 13,8 C 6,4 km/h (2 Bft) 91,30 %
03.06.2023 03:27 13,8 C 11,1 C 16,7 C 16,7 C 15,0 C 72 % 86 cb 55 cb 31 cb 1016,9 hPa 0,0 l/m 6,4 km/h (2 Bft) O-SO 112 0 min 0,000 mm 0,0 UV-I 0 W/m 8,8 C 13,8 C 9,7 km/h (2 Bft) 100,00 %
03.06.2023 03:26 13,8 C 11,7 C 16,7 C 16,7 C 15,0 C 72 % 86 cb 55 cb 31 cb 1016,9 hPa 0,0 l/m 9,7 km/h (2 Bft) O-SO 112 0 min 0,000 mm 0,0 UV-I 0 W/m 8,8 C 11,9 C 11,3 km/h (2 Bft) 91,30 %
03.06.2023 03:25 13,8 C 11,7 C 16,7 C 16,7 C 15,0 C 71 % 86 cb 55 cb 31 cb 1016,9 hPa 0,0 l/m 8,0 km/h (2 Bft) SO 135 0 min 0,000 mm 0,0 UV-I 0 W/m 8,6 C 12,8 C 11,3 km/h (2 Bft) 91,30 %
03.06.2023 03:24 13,8 C 11,7 C 16,7 C 16,7 C 15,0 C 71 % 86 cb 55 cb 31 cb 1016,8 hPa 0,0 l/m 9,7 km/h (2 Bft) O-SO 112 0 min 0,000 mm 0,0 UV-I 0 W/m 8,6 C 11,9 C 16,1 km/h (3 Bft) 95,65 %
03.06.2023 03:23 13,8 C 11,7 C 16,7 C 16,7 C 15,0 C 71 % 86 cb 55 cb 31 cb 1017,0 hPa 0,0 l/m 11,3 km/h (2 Bft) O-SO 112 0 min 0,000 mm 0,0 UV-I 0 W/m 8,6 C 11,2 C 17,7 km/h (3 Bft) 95,65 %
03.06.2023 03:22 13,8 C 11,1 C 16,7 C 16,7 C 15,0 C 72 % 86 cb 55 cb 31 cb 1016,9 hPa 0,0 l/m 11,3 km/h (2 Bft) O-SO 112 0 min 0,000 mm 0,0 UV-I 0 W/m 8,8 C 11,2 C 20,9 km/h (4 Bft) 91,30 %
03.06.2023 03:21 13,8 C 11,1 C 16,7 C 16,7 C 15,0 C 71 % 86 cb 55 cb 31 cb 1016,9 hPa 0,0 l/m 12,9 km/h (3 Bft) O-SO 112 0 min 0,000 mm 0,0 UV-I 0 W/m 8,6 C 10,5 C 20,9 km/h (4 Bft) 95,65 %
03.06.2023 03:20 13,8 C 11,1 C 16,7 C 16,7 C 15,0 C 71 % 86 cb 55 cb 31 cb 1017,0 hPa 0,0 l/m 8,0 km/h (2 Bft) SO 135 0 min 0,000 mm 0,0 UV-I 0 W/m 8,6 C 12,8 C 12,9 km/h (3 Bft) 91,30 %
03.06.2023 03:19 13,9 C 11,1 C 16,7 C 16,7 C 15,0 C 71 % 86 cb 55 cb 31 cb 1016,9 hPa 0,0 l/m 11,3 km/h (2 Bft) O-SO 112 0 min 0,000 mm 0,0 UV-I 0 W/m 8,7 C 11,3 C 16,1 km/h (3 Bft) 95,65 %
03.06.2023 03:18 13,8 C 11,1 C 16,7 C 16,7 C 15,0 C 71 % 86 cb 55 cb 31 cb 1016,9 hPa 0,0 l/m 12,9 km/h (3 Bft) O-SO 112 0 min 0,000 mm 0,0 UV-I 0 W/m 8,6 C 10,5 C 19,3 km/h (3 Bft) 95,65 %
03.06.2023 03:17 13,9 C 11,1 C 16,7 C 16,7 C 15,0 C 71 % 86 cb 55 cb 31 cb 1016,9 hPa 0,0 l/m 12,9 km/h (3 Bft) O-SO 112 0 min 0,000 mm 0,0 UV-I 0 W/m 8,7 C 10,6 C 16,1 km/h (3 Bft) 91,30 %
03.06.2023 03:16 13,9 C 11,1 C 16,7 C 16,7 C 15,0 C 71 % 86 cb 55 cb 31 cb 1016,9 hPa 0,0 l/m 12,9 km/h (3 Bft) O-SO 112 0 min 0,000 mm 0,0 UV-I 0 W/m 8,7 C 10,6 C 17,7 km/h (3 Bft) 91,30 %
03.06.2023 03:15 13,9 C 11,1 C 16,7 C 16,7 C 15,0 C 71 % 86 cb 55 cb 31 cb 1016,8 hPa 0,0 l/m 8,0 km/h (2 Bft) O-SO 112 0 min 0,000 mm 0,0 UV-I 0 W/m 8,7 C 12,9 C 11,3 km/h (2 Bft) 91,30 %
03.06.2023 03:14 13,8 C 11,1 C 16,7 C 16,7 C 15,0 C 71 % 86 cb 55 cb 31 cb 1016,9 hPa 0,0 l/m 11,3 km/h (2 Bft) O-SO 112 0 min 0,000 mm 0,0 UV-I 0 W/m 8,6 C 11,2 C 17,7 km/h (3 Bft) 95,65 %
03.06.2023 03:13 13,9 C 11,1 C 16,7 C 16,7 C 15,0 C 71 % 86 cb 55 cb 31 cb 1016,9 hPa 0,0 l/m 8,0 km/h (2 Bft) O-SO 112 0 min 0,000 mm 0,0 UV-I 0 W/m 8,7 C 12,9 C 12,9 km/h (3 Bft) 86,96 %
03.06.2023 03:12 13,8 C 11,1 C 16,7 C 16,7 C 15,0 C 71 % 86 cb 55 cb 31 cb 1016,8 hPa 0,0 l/m 8,0 km/h (2 Bft) O 90 0 min 0,000 mm 0,0 UV-I 0 W/m 8,6 C 12,8 C 11,3 km/h (2 Bft) 91,30 %
03.06.2023 03:11 13,9 C 11,1 C 16,7 C 16,7 C 15,0 C 71 % 85 cb 55 cb 31 cb 1016,8 hPa 0,0 l/m 4,8 km/h (1 Bft) O 90 0 min 0,000 mm 0,0 UV-I 0 W/m 8,7 C 13,9 C 11,3 km/h (2 Bft) 95,65 %
03.06.2023 03:10 13,9 C 11,1 C 16,7 C 16,7 C 15,0 C 71 % 85 cb 55 cb 31 cb 1016,9 hPa 0,0 l/m 4,8 km/h (1 Bft) O-SO 112 0 min 0,000 mm 0,0 UV-I 0 W/m 8,7 C 13,9 C 9,7 km/h (2 Bft) 91,30 %
03.06.2023 03:09 13,9 C 11,1 C 16,7 C 16,7 C 15,0 C 71 % 85 cb 55 cb 31 cb 1016,8 hPa 0,0 l/m 6,4 km/h (2 Bft) O-SO 112 0 min 0,000 mm 0,0 UV-I 0 W/m 8,7 C 13,9 C 11,3 km/h (2 Bft) 91,30 %
03.06.2023 03:08 13,9 C 11,1 C 16,7 C 16,7 C 15,0 C 71 % 85 cb 55 cb 31 cb 1016,9 hPa 0,0 l/m 9,7 km/h (2 Bft) O 90 0 min 0,000 mm 0,0 UV-I 0 W/m 8,7 C 12,0 C 12,9 km/h (3 Bft) 100,00 %
03.06.2023 03:07 13,9 C 11,1 C 16,7 C 16,7 C 15,0 C 71 % 85 cb 55 cb 31 cb 1017,0 hPa 0,0 l/m 9,7 km/h (2 Bft) O-SO 112 0 min 0,000 mm 0,0 UV-I 0 W/m 8,7 C 12,0 C 14,5 km/h (3 Bft) 86,96 %
03.06.2023 03:06 13,9 C 11,1 C 16,7 C 16,7 C 15,0 C 71 % 85 cb 55 cb 31 cb 1016,9 hPa 0,0 l/m 6,4 km/h (2 Bft) O 90 0 min 0,000 mm 0,0 UV-I 0 W/m 8,7 C 13,9 C 9,7 km/h (2 Bft) 91,30 %
03.06.2023 03:05 13,9 C 11,1 C 16,7 C 16,7 C 15,0 C 71 % 85 cb 55 cb 31 cb 1016,9 hPa 0,0 l/m 6,4 km/h (2 Bft) O-SO 112 0 min 0,000 mm 0,0 UV-I 0 W/m 8,7 C 13,9 C 9,7 km/h (2 Bft) 91,30 %
03.06.2023 03:04 13,9 C 11,1 C 16,7 C 16,7 C 15,0 C 71 % 85 cb 55 cb 31 cb 1017,0 hPa 0,0 l/m 4,8 km/h (1 Bft) O-SO 112 0 min 0,000 mm 0,0 UV-I 0 W/m 8,7 C 13,9 C 11,3 km/h (2 Bft) 82,61 %
03.06.2023 03:03 13,9 C 11,1 C 16,7 C 16,7 C 15,0 C 71 % 85 cb 55 cb 31 cb 1016,9 hPa 0,0 l/m 8,0 km/h (2 Bft) O-SO 112 0 min 0,000 mm 0,0 UV-I 0 W/m 8,7 C 12,9 C 11,3 km/h (2 Bft) 95,65 %
03.06.2023 03:02 13,9 C 11,1 C 16,7 C 16,7 C 15,0 C 71 % 85 cb 55 cb 31 cb 1016,9 hPa 0,0 l/m 6,4 km/h (2 Bft) O-SO 112 0 min 0,000 mm 0,0 UV-I 0 W/m 8,7 C 13,9 C 9,7 km/h (2 Bft) 95,65 %
03.06.2023 03:01 13,9 C 11,1 C 16,7 C 16,7 C 15,0 C 71 % 85 cb 55 cb 31 cb 1016,9 hPa 0,0 l/m 9,7 km/h (2 Bft) O-SO 112 0 min 0,000 mm 0,0 UV-I 0 W/m 8,7 C 12,0 C 11,3 km/h (2 Bft) 95,65 %
03.06.2023 03:00 14,0 C 11,1 C 16,7 C 16,7 C 15,0 C 71 % 85 cb 55 cb 31 cb 1016,9 hPa 0,0 l/m 9,7 km/h (2 Bft) O 90 0 min 0,051 mm 0,0 UV-I 0 W/m 8,8 C 12,2 C 12,9 km/h (3 Bft) 91,30 %
03.06.2023 02:59 14,0 C 11,1 C 16,7 C 16,7 C 15,0 C 71 % 85 cb 55 cb 31 cb 1016,9 hPa 0,0 l/m 8,0 km/h (2 Bft) O-SO 112 0 min 0,000 mm 0,0 UV-I 0 W/m 8,8 C 13,1 C 14,5 km/h (3 Bft) 95,65 %
03.06.2023 02:58 14,0 C 11,1 C 16,7 C 16,7 C 15,0 C 71 % 85 cb 55 cb 31 cb 1016,9 hPa 0,0 l/m 4,8 km/h (1 Bft) O 90 0 min 0,000 mm 0,0 UV-I 0 W/m 8,8 C 14,0 C 8,0 km/h (2 Bft) 91,30 %
03.06.2023 02:57 14,0 C 11,1 C 16,7 C 16,7 C 15,0 C 71 % 85 cb 55 cb 31 cb 1016,8 hPa 0,0 l/m 8,0 km/h (2 Bft) O 90 0 min 0,000 mm 0,0 UV-I 0 W/m 8,8 C 13,1 C 12,9 km/h (3 Bft) 91,30 %
03.06.2023 02:56 14,0 C 11,1 C 16,7 C 16,7 C 15,0 C 70 % 85 cb 55 cb 31 cb 1016,8 hPa 0,0 l/m 6,4 km/h (2 Bft) O-SO 112 0 min 0,000 mm 0,0 UV-I 0 W/m 8,6 C 14,0 C 16,1 km/h (3 Bft) 91,30 %
03.06.2023 02:55 14,1 C 11,1 C 16,7 C 16,7 C 15,0 C 70 % 85 cb 55 cb 31 cb 1016,8 hPa 0,0 l/m 6,4 km/h (2 Bft) O 90 0 min 0,000 mm 0,0 UV-I 0 W/m 8,7 C 14,1 C 11,3 km/h (2 Bft) 95,65 %
03.06.2023 02:54 14,1 C 11,1 C 16,7 C 16,7 C 15,0 C 70 % 85 cb 55 cb 31 cb 1016,8 hPa 0,0 l/m 6,4 km/h (2 Bft) O 90 0 min 0,000 mm 0,0 UV-I 0 W/m 8,7 C 14,1 C 11,3 km/h (2 Bft) 91,30 %
03.06.2023 02:53 14,1 C 11,1 C 16,7 C 16,7 C 15,0 C 70 % 85 cb 55 cb 31 cb 1016,8 hPa 0,0 l/m 6,4 km/h (2 Bft) O 90 0 min 0,000 mm 0,0 UV-I 0 W/m 8,7 C 14,1 C 9,7 km/h (2 Bft) 91,30 %
03.06.2023 02:52 14,1 C 11,1 C 16,7 C 16,7 C 15,0 C 70 % 85 cb 55 cb 31 cb 1016,8 hPa 0,0 l/m 4,8 km/h (1 Bft) O 90 0 min 0,000 mm 0,0 UV-I 0 W/m 8,7 C 14,1 C 9,7 km/h (2 Bft) 95,65 %
03.06.2023 02:51 14,1 C 11,1 C 16,7 C 16,7 C 15,0 C 70 % 85 cb 55 cb 31 cb 1016,7 hPa 0,0 l/m 3,2 km/h (1 Bft) O 90 0 min 0,000 mm 0,0 UV-I 0 W/m 8,7 C 14,1 C 4,8 km/h (1 Bft) 91,30 %
03.06.2023 02:50 14,1 C 11,1 C 16,7 C 16,7 C 15,0 C 70 % 85 cb 55 cb 31 cb 1016,8 hPa 0,0 l/m 4,8 km/h (1 Bft) O 90 0 min 0,000 mm 0,0 UV-I 0 W/m 8,7 C 14,1 C 8,0 km/h (2 Bft) 95,65 %
03.06.2023 02:49 14,2 C 11,1 C 16,7 C 16,7 C 15,0 C 70 % 85 cb 55 cb 31 cb 1016,7 hPa 0,0 l/m 4,8 km/h (1 Bft) O 90 0 min 0,000 mm 0,0 UV-I 0 W/m 8,8 C 14,2 C 6,4 km/h (2 Bft) 91,30 %
03.06.2023 02:48 14,2 C 11,1 C 16,7 C 16,7 C 15,0 C 70 % 85 cb 55 cb 31 cb 1016,8 hPa 0,0 l/m 4,8 km/h (1 Bft) O 90 0 min 0,000 mm 0,0 UV-I 0 W/m 8,8 C 14,2 C 8,0 km/h (2 Bft) 95,65 %
03.06.2023 02:47 14,2 C 11,1 C 16,7 C 16,7 C 15,0 C 70 % 85 cb 55 cb 31 cb 1016,7 hPa 0,0 l/m 4,8 km/h (1 Bft) O 90 0 min 0,000 mm 0,0 UV-I 0 W/m 8,8 C 14,2 C 6,4 km/h (2 Bft) 95,65 %
03.06.2023 02:46 14,2 C 11,1 C 16,7 C 16,7 C 15,0 C 70 % 85 cb 55 cb 31 cb 1016,7 hPa 0,0 l/m 6,4 km/h (2 Bft) O-SO 112 0 min 0,000 mm 0,0 UV-I 0 W/m 8,8 C 14,2 C 9,7 km/h (2 Bft) 91,30 %
03.06.2023 02:45 14,2 C 11,1 C 16,7 C 16,7 C 15,0 C 70 % 85 cb 55 cb 31 cb 1016,7 hPa 0,0 l/m 8,0 km/h (2 Bft) O-SO 112 0 min 0,000 mm 0,0 UV-I 0 W/m 8,8 C 13,3 C 12,9 km/h (3 Bft) 91,30 %
03.06.2023 02:44 14,2 C 11,1 C 16,7 C 16,7 C 15,0 C 70 % 85 cb 55 cb 31 cb 1016,8 hPa 0,0 l/m 6,4 km/h (2 Bft) O 90 0 min 0,000 mm 0,0 UV-I 0 W/m 8,8 C 14,2 C 11,3 km/h (2 Bft) 100,00 %
03.06.2023 02:43 14,2 C 11,1 C 16,7 C 16,7 C 15,0 C 69 % 85 cb 55 cb 31 cb 1016,8 hPa 0,0 l/m 9,7 km/h (2 Bft) O-SO 112 0 min 0,000 mm 0,0 UV-I 0 W/m 8,6 C 12,4 C 11,3 km/h (2 Bft) 91,30 %
03.06.2023 02:42 14,2 C 11,1 C 16,7 C 16,7 C 15,0 C 69 % 85 cb 55 cb 31 cb 1016,7 hPa 0,0 l/m 6,4 km/h (2 Bft) O-SO 112 0 min 0,000 mm 0,0 UV-I 0 W/m 8,6 C 14,2 C 11,3 km/h (2 Bft) 91,30 %
03.06.2023 02:41 14,2 C 11,7 C 16,7 C 16,7 C 15,0 C 69 % 85 cb 55 cb 31 cb 1016,8 hPa 0,0 l/m 8,0 km/h (2 Bft) O-SO 112 0 min 0,000 mm 0,0 UV-I 0 W/m 8,6 C 13,3 C 11,3 km/h (2 Bft) 95,65 %
03.06.2023 02:40 14,2 C 11,7 C 16,7 C 16,7 C 15,0 C 69 % 85 cb 55 cb 31 cb 1016,8 hPa 0,0 l/m 6,4 km/h (2 Bft) O-SO 112 0 min 0,000 mm 0,0 UV-I 0 W/m 8,6 C 14,2 C 9,7 km/h (2 Bft) 91,30 %
03.06.2023 02:39 14,2 C 11,7 C 16,7 C 16,7 C 15,0 C 69 % 85 cb 55 cb 31 cb 1016,8 hPa 0,0 l/m 6,4 km/h (2 Bft) SO 135 0 min 0,000 mm 0,0 UV-I 0 W/m 8,6 C 14,2 C 8,0 km/h (2 Bft) 95,65 %
03.06.2023 02:38 14,2 C 11,7 C 16,7 C 16,7 C 15,0 C 69 % 85 cb 55 cb 31 cb 1016,8 hPa 0,0 l/m 9,7 km/h (2 Bft) O-SO 112 0 min 0,000 mm 0,0 UV-I 0 W/m 8,6 C 12,4 C 12,9 km/h (3 Bft) 95,65 %
03.06.2023 02:37 14,3 C 11,7 C 16,7 C 16,7 C 15,0 C 69 % 85 cb 55 cb 31 cb 1016,8 hPa 0,0 l/m 8,0 km/h (2 Bft) O-SO 112 0 min 0,000 mm 0,0 UV-I 0 W/m 8,7 C 13,4 C 11,3 km/h (2 Bft) 91,30 %
03.06.2023 02:36 14,3 C 11,7 C 16,7 C 16,7 C 15,0 C 69 % 85 cb 55 cb 31 cb 1016,9 hPa 0,0 l/m 8,0 km/h (2 Bft) SO 135 0 min 0,000 mm 0,0 UV-I 0 W/m 8,7 C 13,4 C 11,3 km/h (2 Bft) 91,30 %
03.06.2023 02:35 14,3 C 11,7 C 16,7 C 16,7 C 15,0 C 69 % 85 cb 55 cb 31 cb 1016,8 hPa 0,0 l/m 9,7 km/h (2 Bft) O-SO 112 0 min 0,000 mm 0,0 UV-I 0 W/m 8,7 C 12,5 C 11,3 km/h (2 Bft) 95,65 %
03.06.2023 02:34 14,3 C 11,7 C 16,7 C 16,7 C 15,0 C 69 % 85 cb 55 cb 31 cb 1016,8 hPa 0,0 l/m 4,8 km/h (1 Bft) SO 135 0 min 0,000 mm 0,0 UV-I 0 W/m 8,7 C 14,3 C 8,0 km/h (2 Bft) 91,30 %
03.06.2023 02:33 14,3 C 11,7 C 16,7 C 16,7 C 15,0 C 69 % 85 cb 55 cb 31 cb 1016,8 hPa 0,0 l/m 9,7 km/h (2 Bft) SO 135 0 min 0,000 mm 0,0 UV-I 0 W/m 8,7 C 12,5 C 14,5 km/h (3 Bft) 95,65 %
03.06.2023 02:32 14,3 C 11,1 C 16,7 C 16,7 C 15,0 C 69 % 85 cb 55 cb 31 cb 1016,9 hPa 0,0 l/m 9,7 km/h (2 Bft) O-SO 112 0 min 0,000 mm 0,0 UV-I 0 W/m 8,7 C 12,5 C 12,9 km/h (3 Bft) 91,30 %
03.06.2023 02:31 14,3 C 11,1 C 16,7 C 16,7 C 15,0 C 68 % 85 cb 55 cb 31 cb 1016,8 hPa 0,0 l/m 6,4 km/h (2 Bft) O 90 0 min 0,000 mm 0,0 UV-I 0 W/m 8,5 C 14,3 C 9,7 km/h (2 Bft) 86,96 %
03.06.2023 02:30 14,3 C 11,1 C 16,7 C 16,7 C 15,0 C 68 % 85 cb 55 cb 31 cb 1016,9 hPa 0,0 l/m 8,0 km/h (2 Bft) O-SO 112 0 min 0,000 mm 0,0 UV-I 0 W/m 8,5 C 13,4 C 12,9 km/h (3 Bft) 95,65 %
03.06.2023 02:29 14,3 C 11,1 C 16,7 C 16,7 C 15,0 C 68 % 85 cb 55 cb 31 cb 1016,8 hPa 0,0 l/m 6,4 km/h (2 Bft) O-SO 112 0 min 0,000 mm 0,0 UV-I 0 W/m 8,5 C 14,3 C 11,3 km/h (2 Bft) 95,65 %
03.06.2023 02:28 14,3 C 11,1 C 16,7 C 16,7 C 15,0 C 68 % 85 cb 55 cb 31 cb 1016,9 hPa 0,0 l/m 6,4 km/h (2 Bft) O-SO 112 0 min 0,000 mm 0,0 UV-I 0 W/m 8,5 C 14,3 C 12,9 km/h (3 Bft) 91,30 %
03.06.2023 02:27 14,4 C 11,1 C 16,7 C 16,7 C 15,0 C 68 % 85 cb 55 cb 31 cb 1016,9 hPa 0,0 l/m 11,3 km/h (2 Bft) O-SO 112 0 min 0,000 mm 0,0 UV-I 0 W/m 8,6 C 11,9 C 14,5 km/h (3 Bft) 91,30 %
03.06.2023 02:26 14,4 C 11,1 C 16,7 C 16,7 C 15,0 C 68 % 85 cb 55 cb 31 cb 1016,9 hPa 0,0 l/m 8,0 km/h (2 Bft) O-SO 112 0 min 0,000 mm 0,0 UV-I 0 W/m 8,6 C 13,5 C 11,3 km/h (2 Bft) 100,00 %
03.06.2023 02:25 14,4 C 11,1 C 16,7 C 16,7 C 15,0 C 68 % 85 cb 55 cb 31 cb 1016,8 hPa 0,0 l/m 6,4 km/h (2 Bft) O-SO 112 0 min 0,000 mm 0,0 UV-I 0 W/m 8,6 C 14,4 C 12,9 km/h (3 Bft) 91,30 %
03.06.2023 02:24 14,4 C 11,1 C 16,7 C 16,7 C 15,0 C 68 % 85 cb 55 cb 31 cb 1016,9 hPa 0,0 l/m 8,0 km/h (2 Bft) O 90 0 min 0,000 mm 0,0 UV-I 0 W/m 8,6 C 13,5 C 11,3 km/h (2 Bft) 95,65 %
03.06.2023 02:23 14,4 C 11,1 C 16,7 C 16,7 C 15,0 C 68 % 85 cb 55 cb 31 cb 1016,8 hPa 0,0 l/m 6,4 km/h (2 Bft) O-SO 112 0 min 0,000 mm 0,0 UV-I 0 W/m 8,6 C 14,4 C 9,7 km/h (2 Bft) 91,30 %
03.06.2023 02:22 14,5 C 11,1 C 16,7 C 16,7 C 15,0 C 68 % 85 cb 55 cb 31 cb 1016,8 hPa 0,0 l/m 8,0 km/h (2 Bft) O-SO 112 0 min 0,000 mm 0,0 UV-I 0 W/m 8,7 C 13,6 C 11,3 km/h (2 Bft) 100,00 %
03.06.2023 02:21 14,5 C 11,1 C 17,2 C 16,7 C 15,0 C 68 % 86 cb 55 cb 31 cb 1016,9 hPa 0,0 l/m 6,4 km/h (2 Bft) O-SO 112 0 min 0,000 mm 0,0 UV-I 0 W/m 8,7 C 14,5 C 9,7 km/h (2 Bft) 91,30 %
03.06.2023 02:20 14,5 C 11,1 C 17,2 C 16,7 C 15,0 C 68 % 86 cb 55 cb 31 cb 1016,8 hPa 0,0 l/m 3,2 km/h (1 Bft) O-SO 112 0 min 0,000 mm 0,0 UV-I 0 W/m 8,7 C 14,5 C 4,8 km/h (1 Bft) 91,30 %
03.06.2023 02:19 14,6 C 11,1 C 17,2 C 16,7 C 15,0 C 68 % 86 cb 55 cb 31 cb 1016,8 hPa 0,0 l/m 6,4 km/h (2 Bft) O-SO 112 0 min 0,000 mm 0,0 UV-I 0 W/m 8,8 C 14,6 C 11,3 km/h (2 Bft) 95,65 %
03.06.2023 02:18 14,5 C 11,1 C 17,2 C 16,7 C 15,0 C 68 % 86 cb 55 cb 31 cb 1016,8 hPa 0,0 l/m 6,4 km/h (2 Bft) O-SO 112 0 min 0,000 mm 0,0 UV-I 0 W/m 8,7 C 14,5 C 9,7 km/h (2 Bft) 91,30 %
03.06.2023 02:17 14,6 C 11,1 C 17,2 C 16,7 C 15,0 C 68 % 86 cb 55 cb 31 cb 1016,7 hPa 0,0 l/m 4,8 km/h (1 Bft) O-SO 112 0 min 0,000 mm 0,0 UV-I 0 W/m 8,8 C 14,6 C 8,0 km/h (2 Bft) 95,65 %
03.06.2023 02:16 14,6 C 11,1 C 17,2 C 16,7 C 15,0 C 67 % 86 cb 55 cb 31 cb 1016,8 hPa 0,0 l/m 4,8 km/h (1 Bft) O-SO 112 0 min 0,000 mm 0,0 UV-I 0 W/m 8,5 C 14,6 C 9,7 km/h (2 Bft) 95,65 %
03.06.2023 02:15 14,6 C 11,1 C 17,2 C 16,7 C 15,0 C 67 % 86 cb 55 cb 31 cb 1016,8 hPa 0,0 l/m 4,8 km/h (1 Bft) O-SO 112 0 min 0,000 mm 0,0 UV-I 0 W/m 8,5 C 14,6 C 9,7 km/h (2 Bft) 91,30 %
03.06.2023 02:14 14,6 C 11,1 C 17,2 C 16,7 C 15,0 C 67 % 86 cb 55 cb 31 cb 1016,7 hPa 0,0 l/m 6,4 km/h (2 Bft) O 90 0 min 0,000 mm 0,0 UV-I 0 W/m 8,5 C 14,6 C 11,3 km/h (2 Bft) 91,30 %
03.06.2023 02:13 14,6 C 11,1 C 17,2 C 16,7 C 15,0 C 67 % 86 cb 55 cb 31 cb 1016,7 hPa 0,0 l/m 4,8 km/h (1 Bft) O 90 0 min 0,000 mm 0,0 UV-I 0 W/m 8,5 C 14,6 C 6,4 km/h (2 Bft) 95,65 %
03.06.2023 02:12 14,7 C 11,1 C 17,2 C 16,7 C 15,0 C 67 % 86 cb 55 cb 31 cb 1016,7 hPa 0,0 l/m 8,0 km/h (2 Bft) O 90 0 min 0,000 mm 0,0 UV-I 0 W/m 8,6 C 13,8 C 9,7 km/h (2 Bft) 82,61 %
03.06.2023 02:11 14,6 C 11,1 C 17,2 C 16,7 C 15,0 C 67 % 86 cb 55 cb 31 cb 1016,7 hPa 0,0 l/m 8,0 km/h (2 Bft) O 90 0 min 0,000 mm 0,0 UV-I 0 W/m 8,5 C 13,7 C 12,9 km/h (3 Bft) 95,65 %
03.06.2023 02:10 14,6 C 10,6 C 17,2 C 16,7 C 15,0 C 67 % 86 cb 55 cb 31 cb 1016,7 hPa 0,0 l/m 4,8 km/h (1 Bft) O-SO 112 0 min 0,000 mm 0,0 UV-I 0 W/m 8,5 C 14,6 C 6,4 km/h (2 Bft) 95,65 %
03.06.2023 02:09 14,7 C 10,6 C 17,2 C 16,7 C 15,0 C 67 % 86 cb 55 cb 31 cb 1016,8 hPa 0,0 l/m 4,8 km/h (1 Bft) O-NO 67 0 min 0,000 mm 0,0 UV-I 0 W/m 8,6 C 14,7 C 6,4 km/h (2 Bft) 91,30 %
03.06.2023 02:08 14,7 C 10,6 C 17,2 C 16,7 C 15,0 C 67 % 86 cb 55 cb 31 cb 1016,8 hPa 0,0 l/m 8,0 km/h (2 Bft) O 90 0 min 0,000 mm 0,0 UV-I 0 W/m 8,6 C 13,8 C 11,3 km/h (2 Bft) 91,30 %
03.06.2023 02:07 14,7 C 10,6 C 17,2 C 16,7 C 15,0 C 67 % 86 cb 55 cb 31 cb 1016,8 hPa 0,0 l/m 4,8 km/h (1 Bft) O 90 0 min 0,000 mm 0,0 UV-I 0 W/m 8,6 C 14,7 C 6,4 km/h (2 Bft) 95,65 %
03.06.2023 02:06 14,7 C 10,6 C 17,2 C 16,7 C 15,0 C 67 % 86 cb 55 cb 31 cb 1016,8 hPa 0,0 l/m 3,2 km/h (1 Bft) O 90 0 min 0,000 mm 0,0 UV-I 0 W/m 8,6 C 14,7 C 8,0 km/h (2 Bft) 95,65 %
03.06.2023 02:05 14,7 C 10,6 C 17,2 C 16,7 C 15,0 C 67 % 86 cb 55 cb 31 cb 1016,8 hPa 0,0 l/m 8,0 km/h (2 Bft) O 90 0 min 0,000 mm 0,0 UV-I 0 W/m 8,6 C 13,8 C 11,3 km/h (2 Bft) 91,30 %
03.06.2023 02:04 14,7 C 11,1 C 17,2 C 16,7 C 15,0 C 67 % 86 cb 55 cb 31 cb 1016,7 hPa 0,0 l/m 3,2 km/h (1 Bft) O-NO 67 0 min 0,000 mm 0,0 UV-I 0 W/m 8,6 C 14,7 C 9,7 km/h (2 Bft) 95,65 %
03.06.2023 02:03 14,8 C 11,1 C 17,2 C 16,7 C 15,0 C 67 % 86 cb 55 cb 31 cb 1016,8 hPa 0,0 l/m 3,2 km/h (1 Bft) O-SO 112 0 min 0,000 mm 0,0 UV-I 0 W/m 8,7 C 14,8 C 6,4 km/h (2 Bft) 91,30 %
03.06.2023 02:02 14,8 C 11,1 C 17,2 C 16,7 C 15,0 C 67 % 86 cb 55 cb 31 cb 1016,8 hPa 0,0 l/m 4,8 km/h (1 Bft) O-NO 67 0 min 0,000 mm 0,0 UV-I 0 W/m 8,7 C 14,8 C 6,4 km/h (2 Bft) 91,30 %
03.06.2023 02:01 14,8 C 11,1 C 17,2 C 16,7 C 15,0 C 66 % 86 cb 55 cb 31 cb 1016,9 hPa 0,0 l/m 4,8 km/h (1 Bft) O 90 0 min 0,000 mm 0,0 UV-I 0 W/m 8,5 C 14,8 C 11,3 km/h (2 Bft) 95,65 %
03.06.2023 02:00 14,8 C 11,1 C 17,2 C 16,7 C 15,0 C 66 % 86 cb 55 cb 31 cb 1016,8 hPa 0,0 l/m 3,2 km/h (1 Bft) O 90 0 min 0,051 mm 0,0 UV-I 0 W/m 8,5 C 14,8 C 8,0 km/h (2 Bft) 91,30 %
03.06.2023 01:59 14,8 C 11,1 C 17,2 C 16,7 C 15,0 C 66 % 86 cb 55 cb 31 cb 1016,8 hPa 0,0 l/m 4,8 km/h (1 Bft) O-SO 112 0 min 0,000 mm 0,0 UV-I 0 W/m 8,5 C 14,8 C 9,7 km/h (2 Bft) 91,30 %
03.06.2023 01:58 14,8 C 11,1 C 17,2 C 16,7 C 15,0 C 66 % 86 cb 55 cb 31 cb 1016,8 hPa 0,0 l/m 4,8 km/h (1 Bft) O 90 0 min 0,000 mm 0,0 UV-I 0 W/m 8,5 C 14,8 C 9,7 km/h (2 Bft) 95,65 %
03.06.2023 01:57 14,9 C 11,1 C 17,2 C 16,7 C 15,0 C 66 % 86 cb 55 cb 31 cb 1016,8 hPa 0,0 l/m 6,4 km/h (2 Bft) O-NO 67 0 min 0,000 mm 0,0 UV-I 0 W/m 8,6 C 14,9 C 8,0 km/h (2 Bft) 95,65 %
03.06.2023 01:56 14,9 C 11,1 C 17,2 C 16,7 C 15,0 C 66 % 86 cb 55 cb 31 cb 1016,8 hPa 0,0 l/m 3,2 km/h (1 Bft) O-NO 67 0 min 0,000 mm 0,0 UV-I 0 W/m 8,6 C 14,9 C 8,0 km/h (2 Bft) 91,30 %
03.06.2023 01:55 14,9 C 11,7 C 17,2 C 16,7 C 15,0 C 66 % 86 cb 55 cb 31 cb 1016,8 hPa 0,0 l/m 4,8 km/h (1 Bft) O-NO 67 0 min 0,000 mm 0,0 UV-I 0 W/m 8,6 C 14,9 C 6,4 km/h (2 Bft) 100,00 %
03.06.2023 01:54 14,9 C 11,7 C 17,2 C 16,7 C 15,0 C 66 % 86 cb 55 cb 31 cb 1016,8 hPa 0,0 l/m 3,2 km/h (1 Bft) O-NO 67 0 min 0,000 mm 0,0 UV-I 0 W/m 8,6 C 14,9 C 4,8 km/h (1 Bft) 86,96 %
03.06.2023 01:53 14,9 C 11,7 C 17,2 C 16,7 C 15,0 C 66 % 86 cb 55 cb 31 cb 1016,8 hPa 0,0 l/m 6,4 km/h (2 Bft) O-NO 67 0 min 0,000 mm 0,0 UV-I 0 W/m 8,6 C 14,9 C 11,3 km/h (2 Bft) 91,30 %
03.06.2023 01:52 14,9 C 11,7 C 17,2 C 16,7 C 15,0 C 66 % 86 cb 55 cb 31 cb 1016,8 hPa 0,0 l/m 4,8 km/h (1 Bft) NO 45 0 min 0,000 mm 0,0 UV-I 0 W/m 8,6 C 14,9 C 6,4 km/h (2 Bft) 95,65 %
03.06.2023 01:51 15,0 C 11,7 C 17,2 C 16,7 C 15,0 C 66 % 86 cb 55 cb 31 cb 1016,8 hPa 0,0 l/m 4,8 km/h (1 Bft) O-NO 67 0 min 0,000 mm 0,0 UV-I 0 W/m 8,7 C 15,0 C 8,0 km/h (2 Bft) 91,30 %
03.06.2023 01:50 15,0 C 11,7 C 17,2 C 16,7 C 15,0 C 66 % 86 cb 55 cb 31 cb 1016,8 hPa 0,0 l/m 4,8 km/h (1 Bft) O-NO 67 0 min 0,000 mm 0,0 UV-I 0 W/m 8,7 C 15,0 C 8,0 km/h (2 Bft) 91,30 %
03.06.2023 01:49 15,1 C 11,7 C 17,2 C 16,7 C 15,0 C 66 % 86 cb 55 cb 31 cb 1016,8 hPa 0,0 l/m 4,8 km/h (1 Bft) O-NO 67 0 min 0,000 mm 0,0 UV-I 0 W/m 8,8 C 15,1 C 8,0 km/h (2 Bft) 95,65 %
03.06.2023 01:48 15,0 C 12,2 C 17,2 C 16,7 C 15,0 C 66 % 86 cb 55 cb 31 cb 1016,8 hPa 0,0 l/m 4,8 km/h (1 Bft) NO 45 0 min 0,000 mm 0,0 UV-I 0 W/m 8,7 C 15,0 C 8,0 km/h (2 Bft) 91,30 %
03.06.2023 01:47 15,1 C 12,2 C 17,2 C 16,7 C 15,0 C 66 % 86 cb 55 cb 31 cb 1016,8 hPa 0,0 l/m 4,8 km/h (1 Bft) O-NO 67 0 min 0,000 mm 0,0 UV-I 0 W/m 8,8 C 15,1 C 6,4 km/h (2 Bft) 91,30 %
03.06.2023 01:46 15,1 C 12,2 C 17,2 C 16,7 C 15,0 C 66 % 86 cb 55 cb 31 cb 1016,7 hPa 0,0 l/m 3,2 km/h (1 Bft) O-NO 67 0 min 0,000 mm 0,0 UV-I 0 W/m 8,8 C 15,1 C 4,8 km/h (1 Bft) 100,00 %
03.06.2023 01:45 15,1 C 12,2 C 17,2 C 16,7 C 15,0 C 66 % 85 cb 55 cb 31 cb 1016,8 hPa 0,0 l/m 3,2 km/h (1 Bft) O-NO 67 0 min 0,000 mm 0,0 UV-I 0 W/m 8,8 C 15,1 C 6,4 km/h (2 Bft) 86,96 %
03.06.2023 01:44 15,1 C 12,2 C 17,2 C 16,7 C 15,0 C 66 % 85 cb 55 cb 31 cb 1016,8 hPa 0,0 l/m 3,2 km/h (1 Bft) NO 45 0 min 0,000 mm 0,0 UV-I 0 W/m 8,8 C 15,1 C 6,4 km/h (2 Bft) 91,30 %
03.06.2023 01:43 15,1 C 12,8 C 17,2 C 16,7 C 15,0 C 66 % 85 cb 55 cb 31 cb 1016,7 hPa 0,0 l/m 6,4 km/h (2 Bft) O-NO 67 0 min 0,000 mm 0,0 UV-I 0 W/m 8,8 C 15,1 C 11,3 km/h (2 Bft) 91,30 %
03.06.2023 01:42 15,1 C 12,8 C 17,2 C 16,7 C 15,0 C 66 % 85 cb 55 cb 31 cb 1016,8 hPa 0,0 l/m 6,4 km/h (2 Bft) O-NO 67 0 min 0,000 mm 0,0 UV-I 0 W/m 8,8 C 15,1 C 8,0 km/h (2 Bft) 95,65 %
03.06.2023 01:41 15,2 C 12,8 C 17,2 C 16,7 C 15,0 C 65 % 85 cb 55 cb 31 cb 1016,7 hPa 0,0 l/m 6,4 km/h (2 Bft) NO 45 0 min 0,000 mm 0,0 UV-I 0 W/m 8,7 C 15,2 C 9,7 km/h (2 Bft) 91,30 %
03.06.2023 01:40 15,2 C 12,8 C 17,2 C 16,7 C 15,0 C 65 % 85 cb 55 cb 31 cb 1016,8 hPa 0,0 l/m 6,4 km/h (2 Bft) NO 45 0 min 0,000 mm 0,0 UV-I 0 W/m 8,7 C 15,2 C 9,7 km/h (2 Bft) 100,00 %
03.06.2023 01:39 15,2 C 12,8 C 17,2 C 16,7 C 15,0 C 65 % 85 cb 55 cb 31 cb 1016,8 hPa 0,0 l/m 8,0 km/h (2 Bft) O-NO 67 0 min 0,000 mm 0,0 UV-I 0 W/m 8,7 C 14,3 C 14,5 km/h (3 Bft) 91,30 %
03.06.2023 01:38 15,2 C 12,8 C 17,2 C 16,7 C 15,0 C 65 % 85 cb 55 cb 31 cb 1016,8 hPa 0,0 l/m 8,0 km/h (2 Bft) NO 45 0 min 0,000 mm 0,0 UV-I 0 W/m 8,7 C 14,3 C 11,3 km/h (2 Bft) 95,65 %
03.06.2023 01:37 15,2 C 12,8 C 17,2 C 16,7 C 15,0 C 65 % 85 cb 55 cb 31 cb 1016,9 hPa 0,0 l/m 6,4 km/h (2 Bft) O-NO 67 0 min 0,000 mm 0,0 UV-I 0 W/m 8,7 C 15,2 C 12,9 km/h (3 Bft) 86,96 %
03.06.2023 01:36 15,2 C 12,8 C 17,2 C 16,7 C 15,0 C 65 % 85 cb 55 cb 31 cb 1016,8 hPa 0,0 l/m 9,7 km/h (2 Bft) NO 45 0 min 0,000 mm 0,0 UV-I 0 W/m 8,7 C 13,5 C 14,5 km/h (3 Bft) 95,65 %
03.06.2023 01:35 15,2 C 12,8 C 17,2 C 16,7 C 15,0 C 65 % 85 cb 55 cb 31 cb 1016,9 hPa 0,0 l/m 6,4 km/h (2 Bft) N-NO 22 0 min 0,000 mm 0,0 UV-I 0 W/m 8,7 C 15,2 C 9,7 km/h (2 Bft) 95,65 %
03.06.2023 01:34 15,2 C 12,8 C 17,2 C 16,7 C 15,0 C 65 % 85 cb 55 cb 31 cb 1016,9 hPa 0,0 l/m 8,0 km/h (2 Bft) N 360 0 min 0,000 mm 0,0 UV-I 0 W/m 8,7 C 14,3 C 11,3 km/h (2 Bft) 86,96 %
03.06.2023 01:33 15,2 C 12,8 C 17,2 C 16,7 C 15,0 C 65 % 85 cb 55 cb 31 cb 1016,9 hPa 0,0 l/m 8,0 km/h (2 Bft) NO 45 0 min 0,000 mm 0,0 UV-I 0 W/m 8,7 C 14,3 C 12,9 km/h (3 Bft) 100,00 %
03.06.2023 01:32 15,2 C 12,8 C 17,2 C 16,7 C 15,0 C 65 % 85 cb 55 cb 31 cb 1016,9 hPa 0,0 l/m 9,7 km/h (2 Bft) O-NO 67 0 min 0,000 mm 0,0 UV-I 0 W/m 8,7 C 13,5 C 14,5 km/h (3 Bft) 86,96 %
03.06.2023 01:31 15,2 C 12,8 C 17,2 C 16,7 C 15,0 C 65 % 85 cb 55 cb 31 cb 1016,9 hPa 0,0 l/m 8,0 km/h (2 Bft) NO 45 0 min 0,000 mm 0,0 UV-I 0 W/m 8,7 C 14,3 C 9,7 km/h (2 Bft) 95,65 %
03.06.2023 01:30 15,2 C 12,8 C 17,2 C 16,7 C 15,0 C 65 % 85 cb 55 cb 31 cb 1016,9 hPa 0,0 l/m 6,4 km/h (2 Bft) NO 45 0 min 0,000 mm 0,0 UV-I 0 W/m 8,7 C 15,2 C 11,3 km/h (2 Bft) 100,00 %
03.06.2023 01:29 15,2 C 12,8 C 17,2 C 16,7 C 15,0 C 65 % 85 cb 55 cb 31 cb 1016,9 hPa 0,0 l/m 8,0 km/h (2 Bft) NO 45 0 min 0,000 mm 0,0 UV-I 0 W/m 8,7 C 14,3 C 14,5 km/h (3 Bft) 95,65 %
03.06.2023 01:28 15,1 C 12,8 C 17,2 C 16,7 C 15,0 C 65 % 85 cb 55 cb 31 cb 1016,8 hPa 0,0 l/m 6,4 km/h (2 Bft) N-NO 22 0 min 0,000 mm 0,0 UV-I 0 W/m 8,6 C 15,1 C 11,3 km/h (2 Bft) 86,96 %
03.06.2023 01:27 15,2 C 12,8 C 17,2 C 16,7 C 15,0 C 65 % 85 cb 55 cb 31 cb 1016,9 hPa 0,0 l/m 6,4 km/h (2 Bft) NO 45 0 min 0,000 mm 0,0 UV-I 0 W/m 8,7 C 15,2 C 11,3 km/h (2 Bft) 100,00 %
03.06.2023 01:26 15,2 C 12,8 C 17,2 C 16,7 C 15,0 C 65 % 85 cb 55 cb 31 cb 1016,8 hPa 0,0 l/m 8,0 km/h (2 Bft) NO 45 0 min 0,000 mm 0,0 UV-I 0 W/m 8,7 C 14,3 C 14,5 km/h (3 Bft) 91,30 %
03.06.2023 01:25 15,1 C 12,8 C 17,2 C 16,7 C 15,0 C 65 % 85 cb 55 cb 31 cb 1016,9 hPa 0,0 l/m 8,0 km/h (2 Bft) N-NO 22 0 min 0,000 mm 0,0 UV-I 0 W/m 8,6 C 14,2 C 12,9 km/h (3 Bft) 86,96 %
03.06.2023 01:24 15,1 C 12,8 C 17,2 C 16,7 C 15,0 C 65 % 85 cb 55 cb 31 cb 1016,8 hPa 0,0 l/m 9,7 km/h (2 Bft) NO 45 0 min 0,000 mm 0,0 UV-I 0 W/m 8,6 C 13,4 C 17,7 km/h (3 Bft) 100,00 %
03.06.2023 01:23 15,1 C 12,8 C 17,2 C 16,7 C 15,0 C 65 % 85 cb 55 cb 31 cb 1016,9 hPa 0,0 l/m 6,4 km/h (2 Bft) NO 45 0 min 0,000 mm 0,0 UV-I 0 W/m 8,6 C 15,1 C 19,3 km/h (3 Bft) 95,65 %
03.06.2023 01:22 15,1 C 12,8 C 17,2 C 16,7 C 15,0 C 65 % 85 cb 55 cb 31 cb 1016,8 hPa 0,0 l/m 8,0 km/h (2 Bft) NO 45 0 min 0,000 mm 0,0 UV-I 0 W/m 8,6 C 14,2 C 19,3 km/h (3 Bft) 95,65 %
03.06.2023 01:21 15,1 C 12,2 C 17,2 C 16,7 C 15,0 C 65 % 85 cb 55 cb 31 cb 1016,9 hPa 0,0 l/m 8,0 km/h (2 Bft) NO 45 0 min 0,000 mm 0,0 UV-I 0 W/m 8,6 C 14,2 C 14,5 km/h (3 Bft) 100,00 %
03.06.2023 01:20 15,1 C 12,2 C 17,2 C 16,7 C 15,0 C 65 % 85 cb 55 cb 31 cb 1016,9 hPa 0,0 l/m 6,4 km/h (2 Bft) NO 45 0 min 0,000 mm 0,0 UV-I 0 W/m 8,6 C 15,1 C 9,7 km/h (2 Bft) 91,30 %
03.06.2023 01:19 15,1 C 12,2 C 17,2 C 16,7 C 15,0 C 65 % 85 cb 55 cb 31 cb 1016,9 hPa 0,0 l/m 4,8 km/h (1 Bft) NO 45 0 min 0,000 mm 0,0 UV-I 0 W/m 8,6 C 15,1 C 8,0 km/h (2 Bft) 91,30 %
03.06.2023 01:18 15,1 C 12,2 C 17,2 C 16,7 C 15,0 C 65 % 85 cb 55 cb 31 cb 1017,0 hPa 0,0 l/m 9,7 km/h (2 Bft) N-NO 22 0 min 0,000 mm 0,0 UV-I 0 W/m 8,6 C 13,4 C 14,5 km/h (3 Bft) 95,65 %
03.06.2023 01:17 15,1 C 12,2 C 17,2 C 16,7 C 15,0 C 65 % 85 cb 55 cb 31 cb 1016,9 hPa 0,0 l/m 6,4 km/h (2 Bft) NO 45 0 min 0,000 mm 0,0 UV-I 0 W/m 8,6 C 15,1 C 11,3 km/h (2 Bft) 82,61 %
03.06.2023 01:16 15,1 C 12,2 C 17,2 C 16,7 C 15,0 C 65 % 85 cb 55 cb 31 cb 1016,9 hPa 0,0 l/m 11,3 km/h (2 Bft) N-NO 22 0 min 0,000 mm 0,0 UV-I 0 W/m 8,6 C 12,7 C 14,5 km/h (3 Bft) 86,96 %
03.06.2023 01:15 15,1 C 12,2 C 17,2 C 16,7 C 15,0 C 65 % 85 cb 55 cb 31 cb 1016,9 hPa 0,0 l/m 8,0 km/h (2 Bft) N-NO 22 0 min 0,000 mm 0,0 UV-I 0 W/m 8,6 C 14,2 C 14,5 km/h (3 Bft) 95,65 %
03.06.2023 01:14 15,1 C 12,2 C 17,2 C 16,7 C 15,0 C 65 % 85 cb 55 cb 31 cb 1016,8 hPa 0,0 l/m 6,4 km/h (2 Bft) NO 45 0 min 0,000 mm 0,0 UV-I 0 W/m 8,6 C 15,1 C 9,7 km/h (2 Bft) 95,65 %
03.06.2023 01:13 15,1 C 12,2 C 17,2 C 16,7 C 15,0 C 65 % 85 cb 55 cb 31 cb 1016,9 hPa 0,0 l/m 6,4 km/h (2 Bft) N-NO 22 0 min 0,000 mm 0,0 UV-I 0 W/m 8,6 C 15,1 C 11,3 km/h (2 Bft) 95,65 %
03.06.2023 01:12 15,1 C 12,2 C 17,2 C 16,7 C 15,0 C 65 % 85 cb 55 cb 31 cb 1016,9 hPa 0,0 l/m 6,4 km/h (2 Bft) N 360 0 min 0,000 mm 0,0 UV-I 0 W/m 8,6 C 15,1 C 11,3 km/h (2 Bft) 100,00 %
03.06.2023 01:11 15,1 C 12,2 C 17,2 C 16,7 C 15,0 C 65 % 85 cb 55 cb 31 cb 1016,9 hPa 0,0 l/m 8,0 km/h (2 Bft) NO 45 0 min 0,000 mm 0,0 UV-I 0 W/m 8,6 C 14,2 C 16,1 km/h (3 Bft) 95,65 %
03.06.2023 01:10 15,1 C 12,2 C 17,2 C 16,7 C 15,0 C 65 % 85 cb 55 cb 31 cb 1016,8 hPa 0,0 l/m 9,7 km/h (2 Bft) N-NO 22 0 min 0,000 mm 0,0 UV-I 0 W/m 8,6 C 13,4 C 16,1 km/h (3 Bft) 91,30 %
03.06.2023 01:09 15,1 C 12,2 C 17,2 C 16,7 C 15,0 C 65 % 85 cb 55 cb 31 cb 1017,0 hPa 0,0 l/m 9,7 km/h (2 Bft) N-NO 22 0 min 0,000 mm 0,0 UV-I 0 W/m 8,6 C 13,4 C 14,5 km/h (3 Bft) 95,65 %
03.06.2023 01:08 15,1 C 12,2 C 17,2 C 16,7 C 15,0 C 65 % 85 cb 55 cb 31 cb 1016,9 hPa 0,0 l/m 4,8 km/h (1 Bft) N 360 0 min 0,000 mm 0,0 UV-I 0 W/m 8,6 C 15,1 C 8,0 km/h (2 Bft) 91,30 %
03.06.2023 01:07 15,1 C 12,2 C 17,2 C 16,7 C 15,0 C 65 % 85 cb 55 cb 31 cb 1016,9 hPa 0,0 l/m 8,0 km/h (2 Bft) N 360 0 min 0,000 mm 0,0 UV-I 0 W/m 8,6 C 14,2 C 9,7 km/h (2 Bft) 95,65 %
03.06.2023 01:06 15,0 C 12,2 C 17,2 C 16,7 C 15,0 C 65 % 85 cb 55 cb 31 cb 1016,9 hPa 0,0 l/m 9,7 km/h (2 Bft) N-NO 22 0 min 0,000 mm 0,0 UV-I 0 W/m 8,5 C 13,3 C 14,5 km/h (3 Bft) 100,00 %
03.06.2023 01:05 15,1 C 12,2 C 17,2 C 16,7 C 15,0 C 65 % 85 cb 55 cb 31 cb 1016,9 hPa 0,0 l/m 9,7 km/h (2 Bft) N-NO 22 0 min 0,000 mm 0,0 UV-I 0 W/m 8,6 C 13,4 C 14,5 km/h (3 Bft) 95,65 %
03.06.2023 01:04 15,1 C 12,2 C 17,2 C 16,7 C 15,0 C 65 % 85 cb 55 cb 31 cb 1016,9 hPa 0,0 l/m 4,8 km/h (1 Bft) N-NO 22 0 min 0,000 mm 0,0 UV-I 0 W/m 8,6 C 15,1 C 4,8 km/h (1 Bft) 91,30 %
03.06.2023 01:03 15,1 C 12,2 C 17,2 C 16,7 C 15,0 C 65 % 85 cb 55 cb 31 cb 1016,9 hPa 0,0 l/m 4,8 km/h (1 Bft) N 360 0 min 0,000 mm 0,0 UV-I 0 W/m 8,6 C 15,1 C 6,4 km/h (2 Bft) 100,00 %
03.06.2023 01:02 15,1 C 12,2 C 17,2 C 16,7 C 15,0 C 65 % 85 cb 55 cb 31 cb 1016,9 hPa 0,0 l/m 8,0 km/h (2 Bft) N 360 0 min 0,000 mm 0,0 UV-I 0 W/m 8,6 C 14,2 C 11,3 km/h (2 Bft) 95,65 %
03.06.2023 01:01 15,1 C 12,2 C 17,2 C 16,7 C 15,0 C 65 % 85 cb 55 cb 31 cb 1016,9 hPa 0,0 l/m 8,0 km/h (2 Bft) N-NO 22 0 min 0,000 mm 0,0 UV-I 0 W/m 8,6 C 14,2 C 12,9 km/h (3 Bft) 91,30 %
03.06.2023 01:00 15,1 C 12,2 C 17,2 C 16,7 C 15,0 C 65 % 85 cb 55 cb 31 cb 1017,0 hPa 0,0 l/m 6,4 km/h (2 Bft) N 360 0 min 0,051 mm 0,0 UV-I 0 W/m 8,6 C 15,1 C 9,7 km/h (2 Bft) 100,00 %
03.06.2023 00:59 15,1 C 12,2 C 17,2 C 16,7 C 15,0 C 65 % 85 cb 55 cb 31 cb 1016,9 hPa 0,0 l/m 4,8 km/h (1 Bft) N-NO 22 0 min 0,000 mm 0,0 UV-I 0 W/m 8,6 C 15,1 C 6,4 km/h (2 Bft) 86,96 %
03.06.2023 00:58 15,1 C 12,8 C 17,2 C 16,7 C 15,0 C 65 % 85 cb 55 cb 31 cb 1016,9 hPa 0,0 l/m 6,4 km/h (2 Bft) N-NO 22 0 min 0,000 mm 0,0 UV-I 0 W/m 8,6 C 15,1 C 11,3 km/h (2 Bft) 95,65 %
03.06.2023 00:57 15,1 C 12,8 C 17,2 C 16,7 C 15,0 C 65 % 85 cb 55 cb 31 cb 1017,0 hPa 0,0 l/m 9,7 km/h (2 Bft) N 360 0 min 0,000 mm 0,0 UV-I 0 W/m 8,6 C 13,4 C 14,5 km/h (3 Bft) 95,65 %
03.06.2023 00:56 15,1 C 12,8 C 17,2 C 16,7 C 15,0 C 65 % 85 cb 55 cb 31 cb 1016,9 hPa 0,0 l/m 9,7 km/h (2 Bft) N 360 0 min 0,000 mm 0,0 UV-I 0 W/m 8,6 C 13,4 C 14,5 km/h (3 Bft) 91,30 %
03.06.2023 00:55 15,2 C 12,8 C 17,2 C 16,7 C 15,0 C 65 % 85 cb 55 cb 31 cb 1017,0 hPa 0,0 l/m 8,0 km/h (2 Bft) N 360 0 min 0,000 mm 0,0 UV-I 0 W/m 8,7 C 14,3 C 12,9 km/h (3 Bft) 91,30 %
03.06.2023 00:54 15,2 C 12,8 C 17,2 C 16,7 C 15,0 C 65 % 85 cb 55 cb 31 cb 1016,9 hPa 0,0 l/m 8,0 km/h (2 Bft) N 360 0 min 0,000 mm 0,0 UV-I 0 W/m 8,7 C 14,3 C 12,9 km/h (3 Bft) 95,65 %
03.06.2023 00:53 15,2 C 12,8 C 17,2 C 16,7 C 15,0 C 65 % 85 cb 55 cb 31 cb 1016,9 hPa 0,0 l/m 8,0 km/h (2 Bft) N 360 0 min 0,000 mm 0,0 UV-I 0 W/m 8,7 C 14,3 C 9,7 km/h (2 Bft) 95,65 %
03.06.2023 00:52 15,2 C 12,2 C 17,2 C 16,7 C 15,0 C 65 % 85 cb 55 cb 31 cb 1017,0 hPa 0,0 l/m 11,3 km/h (2 Bft) N 360 0 min 0,000 mm 0,0 UV-I 0 W/m 8,7 C 12,8 C 14,5 km/h (3 Bft) 95,65 %
03.06.2023 00:51 15,2 C 12,2 C 17,2 C 16,7 C 15,0 C 65 % 85 cb 55 cb 31 cb 1016,9 hPa 0,0 l/m 9,7 km/h (2 Bft) N-NO 22 0 min 0,000 mm 0,0 UV-I 0 W/m 8,7 C 13,5 C 14,5 km/h (3 Bft) 95,65 %
03.06.2023 00:50 15,2 C 12,2 C 17,2 C 16,7 C 15,0 C 65 % 85 cb 55 cb 31 cb 1016,8 hPa 0,0 l/m 8,0 km/h (2 Bft) N 360 0 min 0,000 mm 0,0 UV-I 0 W/m 8,7 C 14,3 C 11,3 km/h (2 Bft) 91,30 %
03.06.2023 00:49 15,2 C 12,2 C 17,2 C 16,7 C 15,0 C 65 % 85 cb 55 cb 31 cb 1016,9 hPa 0,0 l/m 8,0 km/h (2 Bft) N 360 0 min 0,000 mm 0,0 UV-I 0 W/m 8,7 C 14,3 C 9,7 km/h (2 Bft) 95,65 %
03.06.2023 00:48 15,3 C 12,2 C 17,2 C 16,7 C 15,0 C 65 % 85 cb 55 cb 31 cb 1016,9 hPa 0,0 l/m 9,7 km/h (2 Bft) N 360 0 min 0,000 mm 0,0 UV-I 0 W/m 8,8 C 13,6 C 11,3 km/h (2 Bft) 91,30 %
03.06.2023 00:47 15,3 C 12,2 C 17,2 C 16,7 C 15,0 C 65 % 85 cb 55 cb 31 cb 1016,9 hPa 0,0 l/m 9,7 km/h (2 Bft) N 360 0 min 0,000 mm 0,0 UV-I 0 W/m 8,8 C 13,6 C 12,9 km/h (3 Bft) 100,00 %
03.06.2023 00:46 15,3 C 12,2 C 17,2 C 16,7 C 15,0 C 65 % 85 cb 55 cb 31 cb 1016,9 hPa 0,0 l/m 8,0 km/h (2 Bft) N 360 0 min 0,000 mm 0,0 UV-I 0 W/m 8,8 C 14,4 C 14,5 km/h (3 Bft) 91,30 %
03.06.2023 00:45 15,3 C 12,2 C 17,2 C 16,7 C 15,0 C 65 % 85 cb 55 cb 31 cb 1016,9 hPa 0,0 l/m 8,0 km/h (2 Bft) N-NO 22 0 min 0,000 mm 0,0 UV-I 0 W/m 8,8 C 14,4 C 11,3 km/h (2 Bft) 95,65 %
03.06.2023 00:44 15,3 C 12,2 C 17,2 C 16,7 C 15,0 C 65 % 85 cb 55 cb 31 cb 1016,9 hPa 0,0 l/m 8,0 km/h (2 Bft) N 360 0 min 0,000 mm 0,0 UV-I 0 W/m 8,8 C 14,4 C 9,7 km/h (2 Bft) 100,00 %
03.06.2023 00:43 15,3 C 12,2 C 17,2 C 16,7 C 15,0 C 65 % 85 cb 55 cb 31 cb 1016,9 hPa 0,0 l/m 8,0 km/h (2 Bft) N 360 0 min 0,000 mm 0,0 UV-I 0 W/m 8,8 C 14,4 C 12,9 km/h (3 Bft) 86,96 %
03.06.2023 00:42 15,3 C 12,2 C 17,2 C 16,7 C 15,0 C 65 % 85 cb 55 cb 31 cb 1016,8 hPa 0,0 l/m 4,8 km/h (1 Bft) N-NO 22 0 min 0,000 mm 0,0 UV-I 0 W/m 8,8 C 15,3 C 8,0 km/h (2 Bft) 91,30 %
03.06.2023 00:41 15,4 C 12,2 C 17,2 C 16,7 C 15,0 C 65 % 85 cb 55 cb 31 cb 1016,8 hPa 0,0 l/m 4,8 km/h (1 Bft) N-NO 22 0 min 0,000 mm 0,0 UV-I 0 W/m 8,9 C 15,4 C 6,4 km/h (2 Bft) 100,00 %
03.06.2023 00:40 15,4 C 12,2 C 17,2 C 16,7 C 15,0 C 65 % 85 cb 55 cb 31 cb 1016,9 hPa 0,0 l/m 4,8 km/h (1 Bft) N-NO 22 0 min 0,000 mm 0,0 UV-I 0 W/m 8,9 C 15,4 C 6,4 km/h (2 Bft) 91,30 %
03.06.2023 00:39 15,4 C 12,2 C 17,2 C 16,7 C 15,0 C 65 % 85 cb 55 cb 31 cb 1016,9 hPa 0,0 l/m 4,8 km/h (1 Bft) N-NO 22 0 min 0,000 mm 0,0 UV-I 0 W/m 8,9 C 15,4 C 8,0 km/h (2 Bft) 95,65 %
03.06.2023 00:38 15,4 C 12,2 C 17,2 C 16,7 C 15,0 C 65 % 85 cb 55 cb 31 cb 1016,9 hPa 0,0 l/m 6,4 km/h (2 Bft) N-NO 22 0 min 0,000 mm 0,0 UV-I 0 W/m 8,9 C 15,4 C 8,0 km/h (2 Bft) 100,00 %
03.06.2023 00:37 15,4 C 12,2 C 17,2 C 16,7 C 15,0 C 64 % 85 cb 55 cb 31 cb 1016,9 hPa 0,0 l/m 8,0 km/h (2 Bft) N 360 0 min 0,000 mm 0,0 UV-I 0 W/m 8,6 C 14,5 C 9,7 km/h (2 Bft) 95,65 %
03.06.2023 00:36 15,4 C 12,2 C 17,2 C 16,7 C 15,0 C 64 % 85 cb 55 cb 32 cb 1016,8 hPa 0,0 l/m 8,0 km/h (2 Bft) N 360 0 min 0,000 mm 0,0 UV-I 0 W/m 8,6 C 14,5 C 12,9 km/h (3 Bft) 95,65 %
03.06.2023 00:35 15,5 C 11,7 C 17,2 C 16,7 C 15,0 C 64 % 85 cb 55 cb 32 cb 1016,9 hPa 0,0 l/m 6,4 km/h (2 Bft) N-NO 22 0 min 0,000 mm 0,0 UV-I 0 W/m 8,7 C 15,5 C 8,0 km/h (2 Bft) 100,00 %
03.06.2023 00:34 15,6 C 11,7 C 17,2 C 16,7 C 15,0 C 64 % 85 cb 55 cb 32 cb 1017,0 hPa 0,0 l/m 4,8 km/h (1 Bft) N-NO 22 0 min 0,000 mm 0,0 UV-I 0 W/m 8,8 C 15,6 C 8,0 km/h (2 Bft) 91,30 %
03.06.2023 00:33 15,6 C 11,7 C 17,2 C 16,7 C 15,0 C 64 % 85 cb 55 cb 31 cb 1017,0 hPa 0,0 l/m 4,8 km/h (1 Bft) N-NO 22 0 min 0,000 mm 0,0 UV-I 0 W/m 8,8 C 15,6 C 6,4 km/h (2 Bft) 91,30 %
03.06.2023 00:32 15,6 C 11,7 C 17,2 C 16,7 C 15,0 C 64 % 85 cb 55 cb 31 cb 1016,9 hPa 0,0 l/m 4,8 km/h (1 Bft) N-NO 22 0 min 0,000 mm 0,0 UV-I 0 W/m 8,8 C 15,6 C 6,4 km/h (2 Bft) 95,65 %
03.06.2023 00:31 15,6 C 11,7 C 17,2 C 16,7 C 15,0 C 64 % 85 cb 55 cb 31 cb 1017,0 hPa 0,0 l/m 4,8 km/h (1 Bft) N-NO 22 0 min 0,000 mm 0,0 UV-I 0 W/m 8,8 C 15,6 C 8,0 km/h (2 Bft) 86,96 %
03.06.2023 00:30 15,6 C 11,7 C 17,2 C 16,7 C 15,0 C 64 % 85 cb 55 cb 32 cb 1016,9 hPa 0,0 l/m 4,8 km/h (1 Bft) N-NO 22 0 min 0,000 mm 0,0 UV-I 0 W/m 8,8 C 15,6 C 6,4 km/h (2 Bft) 91,30 %
03.06.2023 00:29 15,6 C 11,7 C 17,2 C 16,7 C 15,0 C 64 % 85 cb 55 cb 32 cb 1016,9 hPa 0,0 l/m 3,2 km/h (1 Bft) NO 45 0 min 0,000 mm 0,0 UV-I 0 W/m 8,8 C 15,6 C 4,8 km/h (1 Bft) 100,00 %
03.06.2023 00:28 15,7 C 11,7 C 17,2 C 16,7 C 15,0 C 64 % 85 cb 55 cb 32 cb 1017,0 hPa 0,0 l/m 3,2 km/h (1 Bft) NO 45 0 min 0,000 mm 0,0 UV-I 0 W/m 8,9 C 15,7 C 6,4 km/h (2 Bft) 91,30 %
03.06.2023 00:27 15,7 C 11,7 C 17,2 C 16,7 C 15,0 C 64 % 85 cb 55 cb 32 cb 1017,0 hPa 0,0 l/m 6,4 km/h (2 Bft) O-NO 67 0 min 0,000 mm 0,0 UV-I 0 W/m 8,9 C 15,7 C 8,0 km/h (2 Bft) 91,30 %
03.06.2023 00:26 15,7 C 11,7 C 17,2 C 16,7 C 15,0 C 64 % 85 cb 55 cb 32 cb 1016,9 hPa 0,0 l/m 4,8 km/h (1 Bft) N-NO 22 0 min 0,000 mm 0,0 UV-I 0 W/m 8,9 C 15,7 C 6,4 km/h (2 Bft) 100,00 %
03.06.2023 00:25 15,7 C 11,7 C 17,2 C 16,7 C 15,0 C 64 % 85 cb 55 cb 31 cb 1017,0 hPa 0,0 l/m 6,4 km/h (2 Bft) NO 45 0 min 0,000 mm 0,0 UV-I 0 W/m 8,9 C 15,7 C 9,7 km/h (2 Bft) 95,65 %
03.06.2023 00:24 15,7 C 11,7 C 17,2 C 16,7 C 15,0 C 64 % 85 cb 55 cb 32 cb 1016,9 hPa 0,0 l/m 6,4 km/h (2 Bft) NO 45 0 min 0,000 mm 0,0 UV-I 0 W/m 8,9 C 15,7 C 11,3 km/h (2 Bft) 91,30 %
03.06.2023 00:23 15,7 C 11,7 C 17,2 C 16,7 C 15,0 C 63 % 85 cb 55 cb 32 cb 1017,0 hPa 0,0 l/m 4,8 km/h (1 Bft) NO 45 0 min 0,000 mm 0,0 UV-I 0 W/m 8,7 C 15,7 C 8,0 km/h (2 Bft) 95,65 %
03.06.2023 00:22 15,7 C 11,7 C 17,2 C 16,7 C 15,0 C 63 % 85 cb 55 cb 32 cb 1016,8 hPa 0,0 l/m 4,8 km/h (1 Bft) N-NO 22 0 min 0,000 mm 0,0 UV-I 0 W/m 8,7 C 15,7 C 9,7 km/h (2 Bft) 91,30 %
03.06.2023 00:21 15,7 C 11,7 C 17,2 C 16,7 C 15,0 C 63 % 85 cb 55 cb 31 cb 1017,0 hPa 0,0 l/m 6,4 km/h (2 Bft) N-NO 22 0 min 0,000 mm 0,0 UV-I 0 W/m 8,7 C 15,7 C 8,0 km/h (2 Bft) 91,30 %
03.06.2023 00:20 15,8 C 11,7 C 17,2 C 16,7 C 15,0 C 63 % 85 cb 55 cb 32 cb 1017,0 hPa 0,0 l/m 6,4 km/h (2 Bft) N-NO 22 0 min 0,000 mm 0,0 UV-I 0 W/m 8,8 C 15,8 C 9,7 km/h (2 Bft) 100,00 %
03.06.2023 00:19 15,8 C 11,7 C 17,2 C 16,7 C 15,0 C 63 % 85 cb 55 cb 32 cb 1016,9 hPa 0,0 l/m 4,8 km/h (1 Bft) N-NO 22 0 min 0,000 mm 0,0 UV-I 0 W/m 8,8 C 15,8 C 6,4 km/h (2 Bft) 95,65 %
03.06.2023 00:18 15,8 C 11,7 C 17,2 C 16,7 C 15,0 C 63 % 85 cb 55 cb 31 cb 1017,0 hPa 0,0 l/m 4,8 km/h (1 Bft) NO 45 0 min 0,000 mm 0,0 UV-I 0 W/m 8,8 C 15,8 C 6,4 km/h (2 Bft) 86,96 %
03.06.2023 00:17 15,8 C 11,7 C 17,2 C 16,7 C 15,0 C 63 % 85 cb 55 cb 32 cb 1017,0 hPa 0,0 l/m 8,0 km/h (2 Bft) NO 45 0 min 0,000 mm 0,0 UV-I 0 W/m 8,8 C 14,9 C 11,3 km/h (2 Bft) 100,00 %
03.06.2023 00:16 15,8 C 11,7 C 17,2 C 16,7 C 15,0 C 63 % 85 cb 55 cb 32 cb 1016,9 hPa 0,0 l/m 6,4 km/h (2 Bft) NO 45 0 min 0,000 mm 0,0 UV-I 0 W/m 8,8 C 15,8 C 8,0 km/h (2 Bft) 91,30 %
03.06.2023 00:15 15,8 C 11,7 C 17,2 C 16,7 C 15,0 C 63 % 85 cb 55 cb 32 cb 1016,9 hPa 0,0 l/m 4,8 km/h (1 Bft) NO 45 0 min 0,000 mm 0,0 UV-I 0 W/m 8,8 C 15,8 C 6,4 km/h (2 Bft) 91,30 %
03.06.2023 00:14 15,8 C 11,7 C 17,2 C 16,7 C 15,0 C 63 % 85 cb 55 cb 31 cb 1017,0 hPa 0,0 l/m 4,8 km/h (1 Bft) O-NO 67 0 min 0,000 mm 0,0 UV-I 0 W/m 8,8 C 15,8 C 8,0 km/h (2 Bft) 100,00 %
03.06.2023 00:13 15,9 C 11,7 C 17,2 C 16,7 C 15,0 C 63 % 85 cb 55 cb 32 cb 1016,9 hPa 0,0 l/m 8,0 km/h (2 Bft) NO 45 0 min 0,000 mm 0,0 UV-I 0 W/m 8,9 C 15,0 C 9,7 km/h (2 Bft) 91,30 %
03.06.2023 00:12 15,9 C 11,7 C 17,2 C 16,7 C 15,0 C 63 % 85 cb 55 cb 32 cb 1016,9 hPa 0,0 l/m 8,0 km/h (2 Bft) NO 45 0 min 0,000 mm 0,0 UV-I 0 W/m 8,9 C 15,0 C 11,3 km/h (2 Bft) 95,65 %
03.06.2023 00:11 15,9 C 11,7 C 17,2 C 16,7 C 15,0 C 63 % 85 cb 55 cb 32 cb 1017,0 hPa 0,0 l/m 6,4 km/h (2 Bft) O-NO 67 0 min 0,000 mm 0,0 UV-I 0 W/m 8,9 C 15,9 C 9,7 km/h (2 Bft) 95,65 %
03.06.2023 00:10 15,9 C 12,2 C 17,2 C 16,7 C 15,0 C 63 % 85 cb 55 cb 32 cb 1017,0 hPa 0,0 l/m 6,4 km/h (2 Bft) NO 45 0 min 0,000 mm 0,0 UV-I 0 W/m 8,9 C 15,9 C 9,7 km/h (2 Bft) 91,30 %
03.06.2023 00:09 15,9 C 12,2 C 17,2 C 16,7 C 15,0 C 63 % 85 cb 55 cb 32 cb 1016,8 hPa 0,0 l/m 6,4 km/h (2 Bft) O-NO 67 0 min 0,000 mm 0,0 UV-I 0 W/m 8,9 C 15,9 C 12,9 km/h (3 Bft) 91,30 %
03.06.2023 00:08 16,0 C 12,2 C 17,2 C 16,7 C 15,0 C 63 % 85 cb 55 cb 32 cb 1016,9 hPa 0,0 l/m 8,0 km/h (2 Bft) NO 45 0 min 0,000 mm 0,0 UV-I 0 W/m 9,0 C 15,2 C 11,3 km/h (2 Bft) 100,00 %
03.06.2023 00:07 16,0 C 12,2 C 17,2 C 16,7 C 15,0 C 62 % 85 cb 55 cb 31 cb 1016,8 hPa 0,0 l/m 6,4 km/h (2 Bft) NO 45 0 min 0,000 mm 0,0 UV-I 0 W/m 8,7 C 16,0 C 8,0 km/h (2 Bft) 95,65 %
03.06.2023 00:06 16,1 C 12,2 C 17,2 C 16,7 C 15,0 C 62 % 85 cb 55 cb 32 cb 1016,8 hPa 0,0 l/m 8,0 km/h (2 Bft) NO 45 0 min 0,000 mm 0,0 UV-I 0 W/m 8,8 C 15,3 C 9,7 km/h (2 Bft) 95,65 %
03.06.2023 00:05 16,1 C 12,2 C 17,2 C 16,7 C 15,0 C 63 % 85 cb 55 cb 32 cb 1016,9 hPa 0,0 l/m 6,4 km/h (2 Bft) N-NO 22 0 min 0,000 mm 0,0 UV-I 0 W/m 9,1 C 16,1 C 9,7 km/h (2 Bft) 100,00 %
03.06.2023 00:04 16,1 C 12,2 C 17,2 C 16,7 C 15,0 C 62 % 85 cb 55 cb 32 cb 1016,7 hPa 0,0 l/m 4,8 km/h (1 Bft) O-NO 67 0 min 0,000 mm 0,0 UV-I 0 W/m 8,8 C 16,1 C 6,4 km/h (2 Bft) 91,30 %
03.06.2023 00:03 16,1 C 12,2 C 17,2 C 16,7 C 15,0 C 62 % 85 cb 55 cb 32 cb 1016,8 hPa 0,0 l/m 4,8 km/h (1 Bft) O-NO 67 0 min 0,000 mm 0,0 UV-I 0 W/m 8,8 C 16,1 C 8,0 km/h (2 Bft) 95,65 %
03.06.2023 00:02 16,2 C 12,2 C 17,2 C 16,7 C 15,0 C 62 % 85 cb 55 cb 31 cb 1016,8 hPa 0,0 l/m 4,8 km/h (1 Bft) NO 45 0 min 0,000 mm 0,0 UV-I 0 W/m 8,9 C 16,2 C 8,0 km/h (2 Bft) 95,65 %
03.06.2023 00:01 16,2 C 12,2 C 17,2 C 16,7 C 15,0 C 62 % 85 cb 55 cb 32 cb 1016,8 hPa 0,0 l/m 8,0 km/h (2 Bft) NO 45 0 min 0,000 mm 0,0 UV-I 0 W/m 8,9 C 15,4 C 12,9 km/h (3 Bft) 91,30 %
03.06.2023 00:00 16,2 C 12,2 C 17,2 C 16,7 C 15,0 C 62 % 85 cb 55 cb 32 cb 1016,7 hPa 0,0 l/m 8,0 km/h (2 Bft) NO 45 0 min 0,051 mm 0,0 UV-I 0 W/m 8,9 C 15,4 C 12,9 km/h (3 Bft) 95,65 %
_ Min-Zeit 05:42 04:49 05:36 04:31 00:00 14:41 00:00 00:00 00:02 16:03 - 00:28 - - - - - - 09:12 07:59 00:29 05:07
Minimum _ 12,1 C 9,4 C 16,1 C 16,1 C 15,0 C 47 % 85 cb 55 cb 31 cb 1016,5 hPa - 3,2 km/h (1 Bft) - - - - - - 6,6 C 7,4 C 4,8 km/h (1 Bft) 13,04 %
_ Max-Zeit 16:16 14:10 15:12 00:00 00:00 04:30 09:15 09:53 15:38 09:39 00:00 09:27 - - 06:47 14:00 12:54 12:54 15:39 15:56 09:08 00:05
Maximum _ 21,3 C 25,6 C 17,8 C 16,7 C 15,0 C 74 % 88 cb 57 cb 34 cb 1018,9 hPa 0,0 l/m 24,1 km/h
O-SO (4 Bft)
- - 1 min 0,610 mm 5,9 UV-I 905 W/m 10,7 C 20,2 C 33,8 km/h
O-SO (5 Bft)
100,00 %
Durchschnitt _ 15,8 C 16,9 C 16,7 C 16,3 C 15,0 C 62 % 86 cb 56 cb 32 cb 1017,7 hPa #0,0 l/m 11,9 km/h (2 Bft) O-SO - #9:40 h #4,547 mm 3,8 UV-I 589 W/m 8,5 C 13,6 C 17,3 km/h (3 Bft) 93,45 %